[[{"header":{"parameterUnit":"m.s-1","parameterCategory":1,"la1":31.0,"la2":29.5877,"lo1":-88.7671,"lo2":-86.6584,"dy":0.0162,"dx":0.0185,"nx":115,"ny":88,"refTime":"2023-08-08T18:00:00:Z","depth":0,"parameterNumber":2,"parameterNumberName":"U-component_of_WINDS"},"data":[0.0,0.0,0.0,0.0,0.0,0.0,0.0,0.0,0.0,0.0,0.0,0.0,0.0,0.0,0.0,0.0,0.0,0.0,0.0,0.0,0.0,0.0,0.0,0.0,0.0,0.0,0.0,0.0,0.0,0.0,0.0,0.0,0.0,0.0,0.0,0.0,0.0,0.0,0.0,0.0,0.0,0.0,0.0,0.0,0.0,0.0,0.0,0.0,0.0,0.0,0.0,0.0,0.0,0.0,0.0,0.0,0.0,0.0,0.0,0.0,0.0,0.0,0.0,0.0,0.0,0.0,0.0,0.0,0.0,0.0,0.0,0.0,0.0,0.0,0.0,0.0,0.0,0.0,0.0,0.0,0.0,0.0,0.0,0.0,0.0,0.0,0.0,0.0,0.0,0.0,0.0,0.0,0.0,0.0,0.0,0.0,0.0,0.0,0.0,0.0,0.0,0.0,0.0,0.0,0.0,0.0,0.0,0.0,0.0,0.0,0.0,0.0,0.0,0.0,0.0,0.0,0.0,0.0,0.0,0.0,0.0,0.0,0.0,0.0,0.0,0.0,0.0,0.0,0.0,0.0,0.0,0.0,0.0,0.0,0.0,0.0,0.0,0.0,0.0,0.0,0.0,0.0,0.0,0.0,0.0,0.0,0.0,0.0,0.0,0.0,0.0,0.0,0.0,0.0,0.0,0.0,0.0,0.0,0.0,0.0,0.0,0.0,0.0,0.0,0.0,0.0,0.0,0.0,0.0,0.0,0.0,0.0,0.0,0.0,0.0,0.0,0.0,0.0,0.0,0.0,0.0,0.0,0.0,0.0,0.0,0.0,0.0,0.0,0.0,0.0,0.0,0.0,0.0,0.0,0.0,0.0,0.0,0.0,0.0,0.0,0.0,0.0,0.0,0.0,0.0,0.0,0.0,0.0,0.0,0.0,0.0,0.0,0.0,0.0,0.0,0.0,0.0,0.0,0.0,0.0,0.0,0.0,0.0,0.0,0.0,0.0,0.0,0.0,0.0,0.0,0.0,0.0,0.0,0.0,0.0,0.0,0.0,0.0,0.0,0.0,0.0,0.0,0.0,0.0,0.0,0.0,0.0,0.0,0.0,0.0,0.0,0.0,0.0,0.0,0.0,0.0,0.0,0.0,0.0,0.0,0.0,0.0,0.0,0.0,0.0,0.0,0.0,0.0,0.0,0.0,0.0,0.0,0.0,0.0,0.0,0.0,0.0,0.0,0.0,0.0,0.0,0.0,0.0,0.0,0.0,0.0,0.0,0.0,0.0,0.0,0.0,0.0,0.0,0.0,0.0,0.0,0.0,0.0,0.0,0.0,0.0,0.0,0.0,0.0,0.0,0.0,0.0,0.0,0.0,0.0,0.0,0.0,0.0,0.0,0.0,0.0,0.0,0.0,0.0,0.0,0.0,0.0,0.0,0.0,0.0,0.0,0.0,0.0,0.0,0.0,0.0,0.0,0.0,0.0,0.0,0.0,0.0,0.0,0.0,0.0,0.0,0.0,0.0,0.0,0.0,0.0,0.0,0.0,0.0,0.0,0.0,0.0,0.0,0.0,0.0,0.0,0.0,0.0,0.0,0.0,0.0,0.0,0.0,0.0,0.0,0.0,0.0,0.0,0.0,0.0,0.0,0.0,0.0,0.0,0.0,0.0,0.0,0.0,0.0,0.0,0.0,0.0,0.0,0.0,0.0,0.0,0.0,0.0,0.0,0.0,0.0,0.0,0.0,0.0,0.0,0.0,0.0,0.0,0.0,0.0,0.0,0.0,0.0,0.0,0.0,0.0,0.0,0.0,0.0,0.0,0.0,0.0,0.0,0.0,0.0,0.0,0.0,0.0,0.0,0.0,0.0,0.0,0.0,0.0,0.0,0.0,0.0,0.0,0.0,0.0,0.0,0.0,0.0,0.0,0.0,0.0,0.0,0.0,0.0,0.0,0.0,0.0,0.0,0.0,0.0,0.0,0.0,0.0,0.0,0.0,0.0,0.0,0.0,0.0,0.0,0.0,0.0,0.0,0.0,0.0,0.0,0.0,0.0,0.0,0.0,0.0,0.0,0.0,0.0,0.0,0.0,0.0,0.0,0.0,0.0,0.0,0.0,0.0,0.0,0.0,0.0,0.0,0.0,0.0,0.0,0.0,0.0,0.0,0.0,0.0,0.0,0.0,0.0,0.0,0.0,0.0,0.0,0.0,0.0,0.0,0.0,0.0,0.0,0.0,0.0,0.0,0.0,0.0,0.0,0.0,0.0,0.0,0.0,0.0,0.0,0.0,0.0,0.0,0.0,0.0,0.0,0.0,0.0,0.0,0.0,0.0,0.0,0.0,0.0,0.0,0.0,0.0,0.0,0.0,0.0,0.0,0.0,0.0,0.0,0.0,0.0,0.0,0.0,0.0,0.0,0.0,0.0,0.0,0.0,0.0,0.0,0.0,0.0,0.0,0.0,0.0,0.0,0.0,0.0,0.0,0.0,0.0,0.0,0.0,0.0,0.0,0.0,0.0,0.0,0.0,0.0,0.0,0.0,0.0,0.0,0.0,0.0,0.0,0.0,0.0,0.0,0.0,0.0,0.0,0.0,0.0,0.0,0.0,0.0,0.0,0.0,0.0,0.0,0.0,0.0,0.0,0.0,0.0,0.0,0.0,0.0,0.0,0.0,0.0,0.0,0.0,0.0,0.0,0.0,0.0,0.0,0.0,0.0,0.0,0.0,0.0,0.0,0.0,0.0,0.0,0.0,0.0,0.0,0.0,0.0,0.0,0.0,0.0,0.0,0.0,0.0,0.0,0.0,0.0,0.0,0.0,0.0,0.0,0.0,0.0,0.0,0.0,0.0,0.0,0.0,0.0,0.0,0.0,0.0,0.0,0.0,0.0,0.0,0.0,0.0,0.0,0.0,0.0,0.0,0.0,0.0,0.0,0.0,0.0,0.0,0.0,0.0,0.0,0.0,0.0,0.0,0.0,0.0,0.0,0.0,0.0,0.0,0.0,0.0,0.0,0.0,0.0,0.0,0.0,0.0,0.0,0.0,0.0,0.0,0.0,0.0,0.0,0.0,0.0,0.0,0.0,0.0,0.0,0.0,0.0,0.0,0.0,0.0,0.0,0.0,0.0,0.0,0.0,0.0,0.0,0.0,0.0,0.0,0.0,0.0,0.0,0.0,0.0,0.0,0.0,0.0,0.0,0.0,0.0,0.0,0.0,0.0,0.0,0.0,0.0,0.0,0.0,0.0,0.0,0.0,0.0,0.0,0.0,0.0,0.0,0.0,0.0,0.0,0.0,0.0,0.0,0.0,0.0,0.0,0.0,0.0,0.0,0.0,0.0,0.0,0.0,0.0,0.0,0.0,0.0,0.0,0.0,0.0,0.0,0.0,0.0,0.0,0.0,0.0,0.0,0.0,0.0,0.0,0.0,0.0,0.0,0.0,0.0,0.0,0.0,0.0,0.0,0.0,0.0,0.0,0.0,0.0,0.0,0.0,0.0,0.0,0.0,0.0,0.0,0.0,0.0,0.0,0.0,0.0,0.0,0.0,0.0,0.0,0.0,0.0,0.0,0.0,0.0,0.0,0.0,0.0,0.0,0.0,0.0,0.0,0.0,0.0,0.0,0.0,0.0,0.0,0.0,0.0,0.0,0.0,0.0,0.0,0.0,0.0,0.0,0.0,0.0,0.0,0.0,0.0,0.0,0.0,0.0,0.0,0.0,0.0,0.0,0.0,0.0,0.0,0.0,0.0,0.0,0.0,0.0,0.0,0.0,0.0,0.0,0.0,0.0,0.0,0.0,0.0,0.0,0.0,0.0,0.0,0.0,0.0,0.0,0.0,0.0,0.0,0.0,0.0,0.0,0.0,0.0,0.0,0.0,0.0,0.0,0.0,0.0,0.0,0.0,0.0,0.0,0.0,0.0,0.0,0.0,0.0,0.0,0.0,0.0,0.0,0.0,0.0,0.0,0.0,0.0,0.0,0.0,0.0,0.0,0.0,0.0,0.0,0.0,0.0,0.0,0.0,0.0,0.0,0.0,0.0,0.0,0.0,0.0,0.0,0.0,0.0,0.0,0.0,0.0,0.0,0.0,0.0,0.0,0.0,0.0,0.0,0.0,0.0,0.0,0.0,0.0,0.0,0.0,0.0,0.0,0.0,0.0,0.0,0.0,0.0,0.0,0.0,0.0,0.0,0.0,0.0,0.0,0.0,0.0,0.0,0.0,0.0,0.0,0.0,0.0,0.0,0.0,0.0,0.0,0.0,0.0,0.0,0.0,-4.6966,0.0,0.0,0.0,0.0,0.0,0.0,0.0,0.0,0.0,0.0,0.0,0.0,0.0,0.0,0.0,0.0,0.0,0.0,0.0,0.0,0.0,0.0,0.0,0.0,0.0,0.0,0.0,0.0,0.0,0.0,0.0,0.0,0.0,0.0,0.0,0.0,0.0,0.0,0.0,0.0,0.0,0.0,0.0,0.0,0.0,0.0,0.0,0.0,0.0,0.0,0.0,0.0,0.0,0.0,0.0,0.0,0.0,0.0,0.0,0.0,0.0,0.0,0.0,0.0,0.0,0.0,0.0,0.0,0.0,0.0,0.0,0.0,0.0,0.0,0.0,0.0,0.0,0.0,0.0,0.0,0.0,0.0,0.0,0.0,0.0,0.0,0.0,0.0,0.0,0.0,0.0,0.0,0.0,0.0,0.0,0.0,0.0,0.0,0.0,0.0,0.0,0.0,0.0,0.0,0.0,0.0,0.0,0.0,0.0,0.0,-4.8324,-4.8324,-4.8324,-4.7939,-4.7113,0.0,0.0,0.0,0.0,0.0,0.0,0.0,0.0,0.0,0.0,0.0,0.0,0.0,0.0,0.0,0.0,0.0,0.0,0.0,0.0,0.0,0.0,0.0,0.0,0.0,0.0,0.0,0.0,0.0,0.0,0.0,0.0,0.0,0.0,0.0,0.0,0.0,0.0,0.0,0.0,0.0,0.0,0.0,0.0,0.0,0.0,0.0,0.0,0.0,0.0,0.0,0.0,0.0,0.0,0.0,0.0,0.0,0.0,0.0,0.0,0.0,0.0,0.0,0.0,0.0,0.0,0.0,0.0,0.0,0.0,0.0,0.0,0.0,0.0,0.0,0.0,0.0,0.0,0.0,0.0,0.0,0.0,0.0,0.0,0.0,0.0,0.0,0.0,0.0,0.0,0.0,0.0,0.0,0.0,0.0,0.0,0.0,0.0,0.0,0.0,0.0,0.0,0.0,0.0,0.0,0.0,0.0,0.0,0.0,0.0,0.0,0.0,-4.9517,-4.8837,-4.7663,0.0,0.0,0.0,0.0,0.0,0.0,0.0,0.0,0.0,0.0,0.0,0.0,0.0,0.0,0.0,0.0,0.0,0.0,0.0,0.0,0.0,0.0,0.0,0.0,0.0,0.0,0.0,0.0,0.0,0.0,0.0,0.0,0.0,0.0,0.0,0.0,0.0,0.0,0.0,0.0,0.0,0.0,0.0,0.0,0.0,0.0,0.0,0.0,0.0,0.0,0.0,0.0,0.0,0.0,0.0,0.0,0.0,0.0,0.0,0.0,0.0,0.0,0.0,0.0,0.0,0.0,0.0,0.0,0.0,0.0,0.0,0.0,0.0,0.0,0.0,0.0,0.0,0.0,0.0,0.0,0.0,0.0,0.0,0.0,0.0,0.0,0.0,0.0,0.0,0.0,0.0,0.0,0.0,0.0,0.0,0.0,0.0,0.0,0.0,0.0,0.0,0.0,0.0,0.0,0.0,0.0,0.0,0.0,0.0,0.0,-5.0877,-5.3739,-5.3115,0.0,-4.9481,0.0,0.0,0.0,0.0,0.0,0.0,0.0,0.0,0.0,0.0,0.0,0.0,0.0,0.0,0.0,0.0,0.0,0.0,0.0,0.0,0.0,0.0,0.0,0.0,0.0,0.0,0.0,0.0,0.0,0.0,0.0,0.0,0.0,0.0,0.0,0.0,0.0,0.0,0.0,0.0,0.0,0.0,0.0,0.0,0.0,0.0,0.0,0.0,0.0,0.0,0.0,0.0,0.0,0.0,0.0,0.0,0.0,0.0,0.0,0.0,0.0,0.0,0.0,0.0,0.0,0.0,0.0,0.0,0.0,0.0,0.0,0.0,0.0,0.0,0.0,0.0,0.0,0.0,0.0,0.0,0.0,0.0,0.0,0.0,0.0,0.0,0.0,0.0,0.0,0.0,0.0,0.0,0.0,0.0,0.0,0.0,0.0,0.0,0.0,0.0,0.0,0.0,0.0,0.0,0.0,0.0,0.0,0.0,0.0,0.0,-5.1867,-5.3665,-5.2913,-5.1573,0.0,0.0,0.0,0.0,0.0,0.0,0.0,0.0,0.0,0.0,0.0,0.0,0.0,0.0,0.0,0.0,0.0,0.0,0.0,0.0,0.0,0.0,0.0,0.0,0.0,0.0,0.0,0.0,0.0,0.0,0.0,0.0,0.0,0.0,0.0,0.0,0.0,0.0,0.0,0.0,0.0,0.0,0.0,0.0,0.0,0.0,0.0,0.0,0.0,0.0,0.0,0.0,0.0,0.0,0.0,0.0,0.0,0.0,0.0,0.0,0.0,0.0,0.0,0.0,0.0,0.0,0.0,0.0,0.0,0.0,0.0,0.0,0.0,0.0,0.0,0.0,0.0,0.0,0.0,0.0,0.0,0.0,0.0,0.0,0.0,0.0,0.0,0.0,0.0,0.0,0.0,0.0,0.0,0.0,0.0,0.0,0.0,0.0,0.0,0.0,0.0,0.0,0.0,0.0,0.0,0.0,0.0,0.0,0.0,0.0,-5.2068,-5.2931,-5.4106,-5.3628,-5.2142,-4.9665,0.0,0.0,0.0,0.0,0.0,0.0,0.0,0.0,0.0,0.0,0.0,0.0,0.0,0.0,0.0,0.0,0.0,0.0,0.0,0.0,0.0,0.0,0.0,0.0,0.0,0.0,0.0,0.0,0.0,0.0,0.0,0.0,0.0,0.0,0.0,0.0,0.0,0.0,0.0,0.0,0.0,0.0,0.0,0.0,0.0,0.0,0.0,0.0,0.0,0.0,0.0,0.0,0.0,0.0,0.0,0.0,0.0,0.0,0.0,0.0,0.0,0.0,0.0,0.0,0.0,0.0,0.0,0.0,0.0,0.0,0.0,0.0,0.0,0.0,0.0,0.0,0.0,0.0,0.0,0.0,0.0,0.0,0.0,0.0,0.0,0.0,0.0,0.0,0.0,0.0,0.0,0.0,0.0,0.0,0.0,0.0,0.0,0.0,0.0,0.0,0.0,0.0,0.0,0.0,0.0,0.0,0.0,0.0,-5.6051,-5.4271,-5.4249,-5.6565,-5.6579,-5.4363,0.0,0.0,0.0,0.0,0.0,0.0,0.0,0.0,0.0,0.0,0.0,0.0,0.0,0.0,0.0,0.0,0.0,0.0,0.0,0.0,0.0,0.0,0.0,0.0,0.0,0.0,0.0,0.0,0.0,0.0,0.0,0.0,0.0,0.0,0.0,0.0,0.0,0.0,0.0,0.0,0.0,0.0,0.0,0.0,0.0,0.0,0.0,0.0,0.0,0.0,0.0,0.0,0.0,0.0,0.0,0.0,0.0,0.0,0.0,0.0,0.0,0.0,0.0,0.0,0.0,0.0,0.0,0.0,0.0,0.0,0.0,0.0,0.0,0.0,0.0,0.0,0.0,0.0,0.0,0.0,0.0,0.0,0.0,0.0,0.0,0.0,0.0,0.0,0.0,0.0,0.0,0.0,0.0,0.0,0.0,0.0,0.0,0.0,0.0,0.0,0.0,0.0,0.0,0.0,0.0,0.0,0.0,0.0,0.0,-5.2821,-5.361,-5.5629,-5.8804,-5.5152,-5.2362,0.0,0.0,0.0,0.0,0.0,0.0,0.0,0.0,0.0,0.0,0.0,0.0,0.0,0.0,0.0,0.0,0.0,0.0,0.0,0.0,0.0,0.0,0.0,0.0,0.0,0.0,0.0,0.0,0.0,0.0,0.0,0.0,0.0,0.0,0.0,0.0,0.0,0.0,0.0,0.0,0.0,0.0,0.0,0.0,0.0,0.0,0.0,0.0,0.0,0.0,0.0,0.0,0.0,0.0,0.0,0.0,0.0,0.0,0.0,0.0,0.0,0.0,0.0,0.0,0.0,0.0,0.0,0.0,0.0,0.0,0.0,0.0,0.0,0.0,0.0,0.0,0.0,0.0,0.0,0.0,0.0,0.0,0.0,0.0,0.0,0.0,0.0,0.0,0.0,0.0,0.0,0.0,0.0,0.0,0.0,0.0,0.0,0.0,0.0,0.0,0.0,0.0,0.0,0.0,0.0,0.0,0.0,0.0,0.0,-5.2307,0.0,-5.7299,-5.8969,-5.4785,-5.1756,0.0,0.0,0.0,0.0,0.0,0.0,0.0,0.0,0.0,0.0,0.0,0.0,0.0,0.0,0.0,0.0,0.0,0.0,0.0,0.0,0.0,0.0,0.0,0.0,0.0,0.0,0.0,0.0,0.0,0.0,0.0,0.0,0.0,0.0,0.0,0.0,0.0,0.0,0.0,0.0,0.0,0.0,0.0,0.0,0.0,0.0,0.0,0.0,0.0,0.0,0.0,0.0,0.0,0.0,0.0,0.0,0.0,0.0,0.0,0.0,0.0,0.0,0.0,0.0,0.0,0.0,0.0,0.0,0.0,0.0,0.0,0.0,0.0,0.0,0.0,0.0,0.0,0.0,0.0,0.0,0.0,0.0,0.0,0.0,0.0,0.0,0.0,0.0,0.0,0.0,0.0,0.0,0.0,0.0,0.0,0.0,0.0,0.0,0.0,0.0,0.0,0.0,0.0,0.0,0.0,0.0,0.0,0.0,-5.071,-5.5354,-5.8492,-5.9043,-5.6987,-5.5886,-5.2821,0.0,0.0,0.0,0.0,0.0,0.0,0.0,0.0,0.0,0.0,0.0,0.0,0.0,0.0,0.0,0.0,0.0,0.0,0.0,0.0,0.0,0.0,0.0,0.0,0.0,0.0,0.0,0.0,0.0,0.0,0.0,0.0,0.0,0.0,0.0,0.0,0.0,0.0,0.0,0.0,0.0,0.0,0.0,0.0,0.0,0.0,0.0,0.0,0.0,0.0,0.0,0.0,0.0,0.0,0.0,0.0,0.0,0.0,0.0,0.0,0.0,0.0,0.0,0.0,0.0,0.0,0.0,0.0,0.0,0.0,0.0,0.0,0.0,0.0,0.0,0.0,0.0,0.0,0.0,0.0,0.0,0.0,0.0,0.0,0.0,0.0,0.0,0.0,0.0,0.0,0.0,0.0,0.0,0.0,0.0,0.0,0.0,0.0,0.0,0.0,0.0,0.0,0.0,0.0,0.0,0.0,0.0,0.0,0.0,-5.394,-5.5996,-5.8052,-5.9813,-5.5005,-5.1995,0.0,0.0,0.0,0.0,0.0,0.0,0.0,0.0,0.0,0.0,0.0,0.0,0.0,0.0,0.0,0.0,0.0,0.0,0.0,0.0,0.0,0.0,0.0,0.0,0.0,0.0,0.0,0.0,0.0,0.0,0.0,0.0,0.0,0.0,0.0,0.0,0.0,0.0,0.0,0.0,0.0,0.0,0.0,0.0,0.0,0.0,0.0,0.0,0.0,0.0,0.0,0.0,0.0,0.0,0.0,0.0,0.0,0.0,0.0,0.0,0.0,0.0,0.0,0.0,0.0,0.0,0.0,0.0,0.0,0.0,0.0,0.0,0.0,0.0,0.0,0.0,0.0,0.0,0.0,0.0,0.0,0.0,0.0,0.0,0.0,0.0,0.0,0.0,0.0,0.0,0.0,0.0,0.0,0.0,0.0,0.0,0.0,0.0,0.0,0.0,0.0,0.0,0.0,0.0,0.0,0.0,0.0,0.0,0.0,-5.4616,-5.7005,-5.9189,-6.1098,-5.6161,-5.3096,-5.2234,0.0,0.0,0.0,0.0,0.0,0.0,0.0,0.0,0.0,0.0,0.0,0.0,0.0,0.0,0.0,0.0,0.0,0.0,0.0,0.0,0.0,0.0,0.0,0.0,0.0,0.0,0.0,0.0,0.0,0.0,0.0,0.0,0.0,0.0,0.0,0.0,0.0,0.0,0.0,0.0,0.0,0.0,0.0,0.0,0.0,0.0,0.0,0.0,0.0,0.0,0.0,0.0,0.0,0.0,0.0,0.0,0.0,0.0,0.0,0.0,0.0,0.0,0.0,0.0,0.0,0.0,0.0,0.0,0.0,0.0,0.0,0.0,0.0,0.0,0.0,0.0,0.0,0.0,0.0,0.0,0.0,0.0,0.0,0.0,0.0,0.0,0.0,0.0,0.0,0.0,0.0,0.0,0.0,0.0,0.0,0.0,0.0,0.0,0.0,0.0,0.0,0.0,0.0,0.0,0.0,0.0,0.0,0.0,-5.6914,-6.0799,-6.2163,-6.0768,-5.8914,-5.5831,0.0,0.0,0.0,0.0,0.0,0.0,0.0,0.0,0.0,0.0,0.0,0.0,0.0,0.0,0.0,0.0,0.0,0.0,0.0,0.0,0.0,0.0,0.0,0.0,0.0,0.0,0.0,0.0,0.0,0.0,0.0,0.0,0.0,0.0,0.0,0.0,0.0,0.0,0.0,0.0,0.0,0.0,0.0,0.0,0.0,0.0,0.0,0.0,0.0,0.0,0.0,0.0,0.0,0.0,0.0,0.0,0.0,0.0,0.0,0.0,0.0,0.0,0.0,0.0,0.0,0.0,0.0,0.0,0.0,0.0,0.0,0.0,0.0,0.0,0.0,0.0,0.0,0.0,0.0,0.0,0.0,0.0,0.0,0.0,0.0,0.0,0.0,0.0,0.0,0.0,0.0,0.0,0.0,0.0,0.0,0.0,0.0,0.0,0.0,0.0,0.0,0.0,0.0,0.0,0.0,0.0,0.0,0.0,0.0,-5.8542,-6.1961,-6.3833,-6.3906,-6.0126,-5.6859,0.0,0.0,0.0,0.0,0.0,0.0,0.0,0.0,0.0,0.0,0.0,0.0,0.0,0.0,0.0,0.0,0.0,0.0,0.0,0.0,0.0,0.0,0.0,0.0,0.0,0.0,0.0,0.0,0.0,0.0,0.0,0.0,0.0,0.0,0.0,0.0,0.0,0.0,0.0,0.0,0.0,0.0,0.0,0.0,0.0,0.0,0.0,0.0,0.0,0.0,0.0,0.0,0.0,0.0,0.0,0.0,0.0,0.0,0.0,0.0,0.0,0.0,0.0,0.0,0.0,0.0,0.0,0.0,0.0,0.0,0.0,0.0,0.0,0.0,0.0,0.0,0.0,0.0,0.0,0.0,0.0,0.0,0.0,0.0,0.0,0.0,0.0,0.0,0.0,0.0,0.0,0.0,0.0,0.0,0.0,0.0,0.0,0.0,0.0,0.0,0.0,0.0,0.0,0.0,0.0,0.0,0.0,0.0,-5.6822,-5.9661,-6.3246,-6.5319,-6.5778,-6.2401,-5.9153,0.0,0.0,0.0,0.0,0.0,0.0,0.0,0.0,0.0,0.0,0.0,0.0,0.0,0.0,0.0,0.0,0.0,0.0,0.0,0.0,0.0,0.0,0.0,0.0,0.0,0.0,0.0,0.0,0.0,0.0,0.0,0.0,0.0,0.0,0.0,0.0,0.0,0.0,0.0,0.0,0.0,0.0,0.0,0.0,0.0,0.0,0.0,0.0,0.0,0.0,0.0,0.0,0.0,0.0,0.0,0.0,0.0,0.0,0.0,0.0,0.0,0.0,0.0,0.0,0.0,0.0,0.0,0.0,0.0,0.0,0.0,0.0,0.0,0.0,0.0,0.0,0.0,0.0,0.0,0.0,0.0,0.0,0.0,0.0,0.0,0.0,0.0,0.0,0.0,0.0,0.0,0.0,0.0,0.0,0.0,0.0,0.0,0.0,0.0,0.0,0.0,0.0,0.0,0.0,0.0,0.0,0.0,0.0,-5.8088,-6.0511,-6.4439,-6.6549,-6.6568,-6.4897,-6.1716,0.0,0.0,0.0,0.0,0.0,0.0,0.0,0.0,0.0,0.0,0.0,0.0,0.0,0.0,0.0,0.0,0.0,0.0,0.0,0.0,0.0,0.0,0.0,0.0,0.0,0.0,0.0,0.0,0.0,0.0,0.0,0.0,0.0,0.0,0.0,0.0,0.0,0.0,0.0,0.0,0.0,0.0,0.0,0.0,0.0,0.0,0.0,0.0,0.0,0.0,0.0,0.0,0.0,0.0,0.0,0.0,0.0,0.0,0.0,0.0,0.0,0.0,0.0,0.0,0.0,0.0,0.0,0.0,0.0,0.0,0.0,0.0,0.0,0.0,0.0,0.0,0.0,0.0,0.0,0.0,0.0,0.0,0.0,0.0,0.0,0.0,0.0,0.0,0.0,0.0,0.0,0.0,0.0,0.0,0.0,0.0,0.0,0.0,0.0,0.0,0.0,0.0,0.0,0.0,0.0,0.0,0.0,0.0,-5.8914,-6.1318,-6.4714,-6.6806,-6.7412,-6.4604,-6.1151,0.0,0.0,0.0,0.0,0.0,0.0,0.0,0.0,0.0,0.0,0.0,0.0,0.0,0.0,0.0,0.0,0.0,0.0,0.0,0.0,0.0,0.0,0.0,0.0,0.0,0.0,0.0,0.0,0.0,0.0,0.0,0.0,0.0,0.0,0.0,0.0,0.0,0.0,0.0,0.0,0.0,0.0,0.0,0.0,0.0,0.0,0.0,0.0,-4.6498,0.0,0.0,0.0,0.0,0.0,0.0,0.0,0.0,0.0,0.0,0.0,0.0,0.0,0.0,0.0,0.0,0.0,0.0,0.0,0.0,0.0,0.0,0.0,0.0,0.0,0.0,0.0,0.0,0.0,0.0,0.0,0.0,0.0,0.0,0.0,0.0,0.0,0.0,0.0,0.0,0.0,0.0,0.0,0.0,0.0,0.0,0.0,0.0,0.0,0.0,0.0,0.0,0.0,0.0,0.0,0.0,0.0,0.0,0.0,-6.0309,-6.275,-6.5595,-6.7265,-6.7577,-6.5222,-6.2094,0.0,0.0,0.0,0.0,0.0,0.0,0.0,0.0,0.0,0.0,0.0,0.0,0.0,0.0,0.0,0.0,0.0,0.0,0.0,0.0,0.0,0.0,0.0,0.0,0.0,0.0,0.0,0.0,0.0,0.0,0.0,0.0,0.0,0.0,0.0,0.0,0.0,0.0,0.0,0.0,0.0,0.0,0.0,0.0,0.0,0.0,0.0,0.0,0.0,0.0,0.0,0.0,0.0,0.0,0.0,0.0,0.0,0.0,0.0,0.0,0.0,0.0,0.0,0.0,0.0,0.0,0.0,0.0,0.0,0.0,0.0,0.0,0.0,0.0,0.0,0.0,0.0,0.0,0.0,0.0,0.0,0.0,0.0,0.0,0.0,0.0,0.0,0.0,0.0,0.0,0.0,0.0,0.0,0.0,0.0,0.0,0.0,0.0,0.0,0.0,0.0,0.0,0.0,0.0,0.0,0.0,0.0,-5.7666,-6.1484,-6.4035,-6.6329,-6.7477,-6.7295,-6.576,-6.2972,-5.8844,0.0,0.0,0.0,0.0,0.0,0.0,0.0,0.0,0.0,0.0,0.0,0.0,0.0,0.0,0.0,0.0,0.0,0.0,0.0,0.0,0.0,0.0,0.0,0.0,0.0,0.0,0.0,0.0,0.0,0.0,0.0,0.0,0.0,0.0,0.0,0.0,0.0,0.0,-4.3673,-4.5077,0.0,0.0,0.0,0.0,0.0,0.0,0.0,0.0,-4.8765,0.0,0.0,0.0,0.0,0.0,0.0,0.0,0.0,0.0,0.0,0.0,0.0,0.0,0.0,0.0,0.0,0.0,0.0,0.0,0.0,0.0,0.0,0.0,0.0,0.0,0.0,0.0,0.0,0.0,0.0,0.0,0.0,0.0,0.0,0.0,0.0,0.0,0.0,0.0,0.0,0.0,0.0,0.0,0.0,0.0,0.0,0.0,0.0,0.0,0.0,0.0,0.0,0.0,0.0,0.0,0.0,-5.5941,-5.8253,-6.0933,-6.4016,-6.5797,-6.6354,-6.563,-6.4679,-6.1489,-5.5864,0.0,0.0,0.0,0.0,0.0,0.0,0.0,0.0,0.0,0.0,0.0,0.0,0.0,0.0,0.0,0.0,0.0,0.0,0.0,0.0,0.0,0.0,0.0,0.0,0.0,0.0,0.0,0.0,0.0,0.0,0.0,0.0,0.0,0.0,0.0,0.0,0.0,0.0,0.0,-4.6616,-4.7567,0.0,0.0,0.0,0.0,0.0,0.0,0.0,0.0,-5.0287,0.0,0.0,0.0,0.0,0.0,0.0,0.0,0.0,0.0,0.0,0.0,0.0,0.0,0.0,0.0,0.0,0.0,0.0,0.0,0.0,0.0,0.0,0.0,0.0,0.0,0.0,0.0,0.0,0.0,0.0,0.0,0.0,0.0,0.0,0.0,0.0,0.0,0.0,0.0,0.0,0.0,0.0,0.0,0.0,0.0,0.0,0.0,0.0,0.0,0.0,0.0,0.0,0.0,0.0,0.0,-5.4803,-5.8162,-6.1227,-6.3998,-6.483,-6.5,-6.4531,-6.2199,-5.899,0.0,0.0,0.0,0.0,0.0,0.0,0.0,0.0,0.0,0.0,0.0,0.0,0.0,0.0,0.0,0.0,0.0,0.0,0.0,0.0,0.0,0.0,0.0,0.0,0.0,0.0,0.0,0.0,0.0,0.0,0.0,0.0,0.0,0.0,0.0,0.0,0.0,0.0,0.0,0.0,-4.7547,-4.8748,-4.9494,0.0,0.0,0.0,0.0,0.0,0.0,-5.0422,-5.0913,0.0,0.0,0.0,0.0,0.0,0.0,0.0,0.0,0.0,0.0,0.0,0.0,0.0,0.0,0.0,0.0,0.0,0.0,0.0,0.0,0.0,0.0,0.0,0.0,0.0,0.0,0.0,0.0,0.0,0.0,0.0,0.0,0.0,0.0,0.0,0.0,0.0,0.0,0.0,0.0,0.0,0.0,0.0,0.0,0.0,0.0,0.0,0.0,0.0,0.0,0.0,0.0,0.0,0.0,0.0,-5.3185,-5.7154,-6.0674,-6.3419,-6.3408,-6.3201,-6.3,-5.9805,-5.6683,0.0,0.0,0.0,0.0,0.0,0.0,0.0,0.0,0.0,0.0,0.0,0.0,0.0,0.0,0.0,0.0,0.0,0.0,0.0,0.0,0.0,0.0,0.0,0.0,0.0,0.0,0.0,0.0,0.0,0.0,0.0,0.0,0.0,0.0,0.0,0.0,0.0,0.0,0.0,0.0,0.0,-5.005,-5.1065,-5.1438,0.0,0.0,0.0,0.0,-5.0845,-5.1285,0.0,0.0,0.0,0.0,0.0,0.0,0.0,0.0,0.0,0.0,0.0,0.0,0.0,0.0,0.0,0.0,0.0,0.0,0.0,0.0,0.0,0.0,0.0,0.0,0.0,0.0,0.0,0.0,0.0,0.0,0.0,0.0,0.0,0.0,0.0,0.0,0.0,0.0,0.0,0.0,0.0,0.0,0.0,0.0,0.0,0.0,0.0,0.0,0.0,0.0,0.0,0.0,0.0,0.0,0.0,0.0,-5.3014,-5.4536,-5.7414,-6.1615,-6.1229,-6.0538,-5.9768,-5.8602,-5.5378,0.0,0.0,0.0,0.0,0.0,0.0,0.0,0.0,0.0,0.0,0.0,0.0,0.0,0.0,0.0,0.0,0.0,0.0,0.0,0.0,0.0,0.0,0.0,0.0,0.0,0.0,0.0,0.0,0.0,0.0,0.0,0.0,0.0,0.0,0.0,0.0,0.0,0.0,0.0,0.0,0.0,-5.1742,-5.1285,-5.2384,-5.2959,0.0,0.0,-5.2401,-5.301,-5.3179,0.0,0.0,0.0,0.0,0.0,0.0,0.0,0.0,0.0,0.0,0.0,0.0,0.0,0.0,0.0,0.0,0.0,0.0,0.0,0.0,0.0,0.0,0.0,0.0,0.0,0.0,0.0,0.0,0.0,0.0,0.0,0.0,0.0,0.0,0.0,0.0,0.0,0.0,0.0,0.0,0.0,0.0,0.0,0.0,0.0,0.0,0.0,0.0,0.0,0.0,0.0,0.0,0.0,0.0,0.0,-4.7343,-5.1719,-5.3659,-5.6233,-5.9491,-5.8857,-5.8282,-5.7894,-5.547,-5.2535,0.0,0.0,0.0,0.0,0.0,0.0,0.0,0.0,0.0,0.0,0.0,0.0,0.0,0.0,0.0,0.0,0.0,0.0,0.0,0.0,0.0,0.0,0.0,0.0,0.0,0.0,0.0,0.0,0.0,0.0,0.0,0.0,0.0,0.0,0.0,0.0,0.0,0.0,0.0,0.0,0.0,0.0,-5.3585,-5.4685,0.0,0.0,0.0,-5.4211,-5.4126,0.0,0.0,0.0,0.0,0.0,0.0,0.0,0.0,0.0,0.0,0.0,0.0,0.0,0.0,0.0,0.0,0.0,0.0,0.0,0.0,0.0,0.0,0.0,0.0,0.0,0.0,0.0,0.0,0.0,0.0,0.0,0.0,0.0,0.0,0.0,0.0,0.0,0.0,0.0,0.0,0.0,0.0,0.0,0.0,0.0,0.0,0.0,0.0,0.0,0.0,0.0,0.0,0.0,0.0,0.0,0.0,0.0,-4.996,-5.2483,-5.4887,-5.7187,-5.6686,-5.6221,-5.6014,-5.3271,0.0,0.0,0.0,0.0,0.0,0.0,0.0,0.0,0.0,0.0,0.0,0.0,0.0,0.0,0.0,0.0,0.0,0.0,0.0,0.0,0.0,0.0,0.0,0.0,0.0,0.0,0.0,-3.7364,0.0,0.0,0.0,0.0,0.0,0.0,0.0,0.0,0.0,0.0,0.0,0.0,0.0,0.0,-5.3365,-5.5429,-5.6494,-5.707,0.0,0.0,-5.5243,-5.4668,-5.3974,-5.3095,0.0,0.0,0.0,0.0,0.0,0.0,0.0,0.0,0.0,0.0,0.0,0.0,0.0,0.0,0.0,0.0,0.0,0.0,0.0,0.0,0.0,0.0,0.0,0.0,0.0,0.0,0.0,0.0,0.0,0.0,0.0,0.0,0.0,0.0,0.0,0.0,0.0,0.0,0.0,0.0,0.0,0.0,0.0,0.0,0.0,0.0,0.0,0.0,0.0,0.0,0.0,0.0,0.0,0.0,0.0,-4.7889,-5.0228,-5.2572,-5.4755,-5.4782,-5.4432,-5.3754,-5.3467,-5.0997,0.0,0.0,0.0,0.0,0.0,0.0,0.0,0.0,0.0,0.0,0.0,0.0,0.0,0.0,0.0,0.0,0.0,0.0,0.0,0.0,0.0,0.0,0.0,0.0,0.0,0.0,0.0,0.0,0.0,0.0,0.0,0.0,0.0,0.0,0.0,0.0,0.0,0.0,0.0,0.0,0.0,-5.3991,-5.5513,-5.6917,-5.7814,0.0,0.0,-5.4651,-5.4634,-5.3974,-5.2756,-5.0608,0.0,0.0,0.0,0.0,0.0,0.0,0.0,0.0,0.0,0.0,0.0,0.0,0.0,0.0,0.0,0.0,0.0,0.0,0.0,0.0,0.0,0.0,0.0,0.0,0.0,0.0,0.0,0.0,0.0,0.0,0.0,0.0,0.0,0.0,0.0,0.0,0.0,0.0,0.0,0.0,0.0,0.0,0.0,0.0,0.0,0.0,0.0,0.0,0.0,0.0,0.0,0.0,0.0,-4.4354,-4.6934,-4.9774,-5.1632,-5.2497,-5.2939,-5.3061,-5.2773,-5.1894,-5.005,0.0,0.0,0.0,0.0,0.0,0.0,0.0,0.0,0.0,0.0,0.0,0.0,0.0,0.0,0.0,0.0,0.0,0.0,0.0,0.0,0.0,0.0,0.0,0.0,0.0,0.0,0.0,0.0,-4.1018,-4.1322,-4.204,0.0,0.0,0.0,0.0,0.0,0.0,0.0,0.0,0.0,0.0,-5.4871,-5.6782,-5.7543,0.0,0.0,-5.641,-5.5277,-5.5277,-5.3873,-5.2317,-5.0997,-4.8815,0.0,0.0,0.0,0.0,0.0,0.0,0.0,0.0,0.0,0.0,0.0,0.0,0.0,0.0,0.0,0.0,0.0,0.0,0.0,0.0,0.0,0.0,0.0,0.0,0.0,0.0,0.0,0.0,0.0,0.0,0.0,0.0,0.0,0.0,0.0,0.0,0.0,0.0,0.0,0.0,0.0,0.0,0.0,0.0,0.0,0.0,0.0,0.0,0.0,0.0,0.0,0.0,-4.3834,-4.6251,-4.9505,-5.1116,-5.0896,-5.1809,-5.208,-5.1623,-5.0625,-4.9289,0.0,0.0,0.0,0.0,0.0,0.0,0.0,0.0,0.0,0.0,0.0,0.0,0.0,0.0,0.0,0.0,0.0,0.0,0.0,0.0,0.0,0.0,0.0,0.0,0.0,0.0,0.0,0.0,-4.2448,-4.2405,-4.2726,0.0,0.0,0.0,0.0,0.0,0.0,0.0,0.0,0.0,0.0,-5.5327,-5.7273,-5.756,-5.7577,-5.7577,-5.6308,-5.5226,-5.4769,-5.328,-5.1631,-5.0054,0.0,0.0,0.0,0.0,0.0,0.0,0.0,0.0,0.0,0.0,0.0,0.0,0.0,0.0,0.0,0.0,0.0,0.0,0.0,0.0,0.0,0.0,0.0,0.0,0.0,0.0,0.0,0.0,0.0,0.0,0.0,0.0,0.0,0.0,0.0,0.0,0.0,0.0,0.0,0.0,0.0,0.0,0.0,0.0,0.0,0.0,0.0,0.0,0.0,0.0,0.0,0.0,0.0,-4.413,-4.5749,-4.9323,-5.0845,-5.0168,-5.1539,-5.1589,-5.0236,-5.0101,-4.9052,-4.6904,0.0,0.0,0.0,0.0,0.0,0.0,0.0,0.0,0.0,0.0,0.0,0.0,0.0,0.0,0.0,0.0,0.0,0.0,0.0,0.0,0.0,0.0,0.0,0.0,0.0,0.0,-4.3284,-4.2726,-4.2033,0.0,0.0,0.0,0.0,0.0,0.0,0.0,0.0,0.0,0.0,-5.3179,-5.5141,-5.6613,-5.6799,-5.6799,-5.678,-5.5529,-5.4126,-5.2656,-5.2056,-5.0632,0.0,0.0,0.0,0.0,0.0,0.0,0.0,0.0,0.0,0.0,0.0,0.0,0.0,0.0,0.0,0.0,0.0,0.0,0.0,0.0,0.0,0.0,0.0,0.0,0.0,0.0,0.0,0.0,-4.9903,0.0,0.0,0.0,0.0,0.0,0.0,0.0,0.0,0.0,0.0,0.0,-4.5822,-4.6411,0.0,0.0,0.0,0.0,0.0,0.0,0.0,0.0,0.0,0.0,0.0,0.0,-4.4136,-4.5771,-4.8832,-5.0118,-4.9424,-5.0321,-5.0591,-5.0101,-4.961,-4.8562,-4.6836,0.0,0.0,0.0,0.0,0.0,0.0,0.0,0.0,0.0,0.0,0.0,0.0,0.0,0.0,0.0,0.0,0.0,0.0,0.0,0.0,0.0,0.0,0.0,0.0,0.0,-4.3149,0.0,0.0,0.0,0.0,0.0,0.0,0.0,0.0,0.0,0.0,0.0,-5.0042,-5.2436,-5.4245,-5.5513,-5.6021,-5.5649,-5.5269,0.0,0.0,0.0,0.0,0.0,0.0,0.0,0.0,0.0,0.0,0.0,0.0,0.0,0.0,-4.4302,-4.2156,-4.0831,-4.0142,-4.0352,0.0,0.0,0.0,0.0,0.0,0.0,0.0,0.0,0.0,0.0,0.0,0.0,0.0,0.0,0.0,0.0,-5.0741,0.0,0.0,0.0,0.0,0.0,0.0,0.0,0.0,-4.7919,-4.8186,-4.7809,-4.8384,-4.8037,0.0,-4.7107,-4.6194,0.0,0.0,0.0,0.0,0.0,0.0,0.0,0.0,-4.4823,-4.6143,-4.8731,-4.9729,-4.9069,-4.9712,-4.9965,-4.9729,-4.9255,-4.8426,-4.7208,-4.5742,-4.4857,0.0,0.0,0.0,0.0,0.0,0.0,0.0,0.0,0.0,0.0,0.0,0.0,0.0,0.0,0.0,0.0,0.0,0.0,0.0,0.0,0.0,0.0,0.0,-4.3238,0.0,0.0,0.0,0.0,0.0,0.0,0.0,0.0,0.0,-4.7873,-4.9171,-5.0648,-5.2456,-5.3775,-5.4492,-5.4243,0.0,0.0,0.0,0.0,0.0,0.0,0.0,-4.9552,-4.8732,-4.7636,-4.6649,-4.5957,-4.6279,-4.6381,-4.5469,0.0,0.0,-4.3494,-4.2192,-4.1489,-4.1713,-4.1399,-4.128,-4.1923,-4.1878,-4.1752,0.0,0.0,0.0,0.0,0.0,0.0,0.0,0.0,-5.462,-5.4983,0.0,-5.2358,0.0,0.0,0.0,0.0,0.0,0.0,0.0,0.0,-4.9329,-4.9354,-4.8139,-4.9441,-4.9746,-4.9103,-4.9695,-4.9255,-4.772,-4.4947,0.0,0.0,0.0,0.0,0.0,0.0,-4.6075,-4.687,-4.8951,-4.9695,-4.9052,-4.9678,-4.9712,-4.9052,-4.9018,-4.868,-4.7956,-4.7838,-4.6887,-4.4784,-4.3876,0.0,0.0,0.0,0.0,0.0,0.0,0.0,0.0,0.0,0.0,0.0,0.0,0.0,0.0,0.0,0.0,0.0,0.0,0.0,0.0,-4.2387,0.0,0.0,0.0,0.0,0.0,0.0,0.0,0.0,0.0,0.0,-4.8193,-4.9388,-5.0443,-5.1199,0.0,0.0,0.0,0.0,-5.143,-5.139,-5.1893,-5.1989,-5.1248,-5.0845,-4.9954,-4.8084,0.0,0.0,-4.6516,-4.6815,-4.677,-4.5544,-4.5798,-4.6219,-4.6142,-4.4471,-4.3469,-4.3988,-4.3135,-4.2656,-4.3105,-4.2761,-4.2425,-5.8272,0.0,0.0,0.0,0.0,-5.5684,-5.6542,-5.7863,-5.8437,-5.7538,-5.5613,-5.4706,0.0,0.0,0.0,0.0,0.0,0.0,-4.83,-4.8673,-4.9602,-4.9812,-4.9492,-5.0456,-5.0507,-4.9796,-4.9982,-4.934,-4.7936,-4.7027,-4.572,-4.3988,0.0,0.0,0.0,0.0,-4.6329,-4.7581,-4.8748,-4.9221,-4.9018,-4.9221,-4.9221,-4.9018,-4.9018,-4.8917,-4.8697,-4.8206,-4.7378,-4.621,-4.4942,0.0,0.0,0.0,0.0,0.0,0.0,0.0,0.0,0.0,0.0,0.0,0.0,0.0,0.0,0.0,0.0,0.0,0.0,0.0,-4.2635,-4.2045,-4.213,0.0,0.0,0.0,0.0,0.0,0.0,0.0,0.0,0.0,-4.8412,-4.9039,-5.0016,0.0,0.0,-5.1508,-5.0797,-5.1094,-5.1137,-5.037,0.0,0.0,0.0,-4.8981,-4.8266,-4.816,-4.7465,-4.6756,-4.6339,-4.6067,-4.5738,-4.5334,-4.505,-4.4885,-4.487,-4.4466,-4.3943,-4.3618,-4.326,-4.3105,-4.323,-4.3125,-4.3045,-6.0951,-5.9074,-5.8143,-5.7735,-5.7772,-5.8107,-5.8969,-6.0199,-6.0658,-5.9963,-5.8398,-5.6865,-5.4561,-5.1742,-4.9071,0.0,0.0,0.0,-4.9359,-4.9489,-5.0158,-5.0195,-4.9743,-5.0405,-5.0388,-4.9678,-4.9661,-4.9204,-4.8342,-4.8311,-4.7513,-4.5957,0.0,0.0,-4.5512,-4.621,-4.687,-4.7479,-4.8189,-4.8426,-4.8156,-4.8139,-4.8274,-4.8562,-4.8578,-4.8714,-4.8984,-4.8308,-4.7564,-4.6819,-4.5669,-4.4316,0.0,0.0,0.0,0.0,0.0,0.0,0.0,0.0,0.0,0.0,0.0,-4.0127,0.0,0.0,0.0,0.0,-4.0286,-4.1714,-4.3459,-4.2639,0.0,0.0,0.0,0.0,0.0,0.0,0.0,-4.6197,-4.6647,-4.7307,-4.8401,-4.8393,-4.905,-5.098,-5.0642,-5.0065,-4.9634,0.0,-4.9947,-4.9304,-4.9756,-4.998,-4.9374,-4.8386,-4.7668,-4.7504,-4.6636,-4.5948,-4.5903,-4.5559,-4.5214,-4.493,-4.4571,-4.4227,-4.3932,-4.3888,-4.3783,-4.3379,-4.3305,-4.3305,-4.3305,-4.3305,-4.3245,-6.2823,-6.2597,-6.0395,-5.9478,-5.9551,-6.0291,-6.1006,-6.1667,-6.1704,-6.2003,-6.2241,-5.8695,-5.6914,-5.6357,-5.2127,0.0,0.0,-5.055,-5.0236,-5.0202,-5.0845,-5.0371,-4.9069,-4.9678,-4.9644,-4.9018,-4.9018,-4.9018,-4.9001,-4.9001,-4.8663,-4.7973,-4.731,-4.6938,-4.6921,-4.7466,-4.7513,-4.6904,-4.7513,-4.7496,-4.6819,-4.6786,-4.7124,-4.7787,-4.7787,-4.8139,-4.8765,-4.8173,-4.7479,-4.6735,-4.6,-4.4896,-4.336,0.0,0.0,0.0,0.0,0.0,0.0,0.0,0.0,0.0,0.0,0.0,0.0,0.0,0.0,0.0,-4.0306,0.0,-4.3858,-4.383,0.0,0.0,0.0,-4.4641,-4.4872,-4.5173,-4.5394,-4.5454,0.0,0.0,0.0,0.0,-4.7728,-4.8925,-4.8595,-4.8207,-4.8207,-4.831,-4.8267,-4.8265,-4.8805,-4.9179,-4.888,-4.8282,-4.7474,-4.6471,-4.5663,-4.5244,-4.52,-4.5095,-4.487,-4.4332,-4.4227,-4.4022,-4.3409,-4.3349,-4.3305,-4.3305,-4.3305,-4.3305,-4.329,-4.323,-4.3045,-6.2823,-6.2743,-6.2175,-6.1961,-6.1936,-6.2163,-6.2365,-6.2511,-6.2511,-6.1638,-6.0067,-5.9118,-5.711,-5.4198,-5.2516,-5.1847,-5.2017,-5.184,-5.1488,-5.0947,-5.0541,-4.9864,-4.9035,-4.9187,-4.9171,-4.9018,-4.9018,-4.9018,-4.9018,-4.9018,-4.8917,-4.8731,-4.8578,-4.8206,-4.7665,-4.7259,-4.7259,-4.7648,-4.7259,-4.6972,-4.6802,-4.6786,-4.687,-4.7056,-4.7073,-4.7124,-4.731,-4.7158,-4.6718,-4.5978,-4.5146,-4.4036,-4.2547,-4.0196,0.0,0.0,0.0,0.0,0.0,0.0,0.0,0.0,0.0,-4.0585,-3.9711,0.0,-4.0768,0.0,-4.0608,-4.2159,-4.4452,-4.3908,0.0,0.0,-4.5382,-4.5167,-4.7171,-4.6599,-4.6277,-4.677,-4.7115,-4.7369,-4.7519,-4.7399,-4.7219,-4.707,-4.7324,-4.7534,-4.7549,-4.7982,-4.8102,-4.7683,-4.8057,-4.8147,-4.7219,-4.6441,-4.5918,-4.5589,-4.499,-4.4556,-4.4541,-4.4082,-4.3748,-4.3544,-4.3529,-4.3454,-4.3305,-4.3305,-4.329,-4.3305,-4.3305,-4.3305,-4.329,-4.2955,-4.259,-6.2823,-6.2823,-6.2823,-6.2823,-6.2823,-6.2823,-6.2823,-6.278,-6.2402,-6.1534,-6.0242,-5.8865,-5.6475,-5.3551,-5.3044,-5.2824,-5.2841,-5.2841,-5.2266,-5.1168,-5.0777,-5.0033,-4.9018,-4.9018,-4.9018,-4.9018,-4.9018,-4.8832,-4.8545,-4.8511,-4.8359,-4.8037,-4.802,-4.7817,-4.7428,-4.7327,-4.7175,-4.6938,-4.6177,-4.5805,-4.5821,-4.5805,-4.5957,-4.6295,-4.6295,-4.6283,-4.6223,-4.5892,-4.5407,-4.4675,-4.3873,-4.3043,-4.2206,-4.0062,-3.8455,0.0,0.0,0.0,0.0,0.0,0.0,0.0,0.0,0.0,0.0,0.0,-4.1437,0.0,-4.2117,0.0,-4.543,-4.5035,-4.5421,-4.7289,-4.6403,-4.6232,-4.7698,-4.7219,-4.6905,-4.7264,-4.7309,-4.7204,-4.692,-4.6875,-4.6621,-4.5948,-4.6172,-4.6411,-4.6426,-4.6741,-4.6815,-4.6486,-4.6726,-4.6741,-4.5933,-4.5304,-4.4855,-4.4811,-4.4317,-4.3843,-4.3853,-4.3344,-4.2985,-4.3185,-4.2841,-4.2566,-4.2821,-4.2626,-4.2462,-4.2462,-4.2462,-4.2566,-4.2836,-4.2596,-4.2291,-6.2823,-6.2823,-6.2823,-6.2823,-6.2823,-6.267,-6.2633,-6.259,-6.1697,-6.1196,-6.0834,-5.7898,-5.5511,-5.3653,-5.3551,-5.3518,-5.3518,-5.3518,-5.2672,-5.1251,-5.1234,-5.0439,-4.9035,-4.9018,-4.9018,-4.9018,-4.9018,-4.868,-4.8024,-4.797,-4.7551,-4.6955,-4.6836,-4.6752,-4.6684,-4.731,-4.6925,-4.5585,-4.4925,-4.4598,-4.4598,-4.4598,-4.4891,-4.5517,-4.5436,-4.5336,-4.5227,-4.4479,-4.3809,-4.3171,-4.2411,-4.1991,-4.1959,-4.0019,-3.8731,0.0,-3.6728,0.0,0.0,0.0,0.0,0.0,0.0,0.0,0.0,-4.0929,-4.2543,-4.4429,-4.3869,-4.4218,-4.6122,-4.6195,-4.6414,-4.71,-4.71,-4.707,-4.716,-4.7115,-4.7055,-4.704,-4.7055,-4.6815,-4.6292,-4.6145,-4.5933,-4.5304,-4.52,-4.5185,-4.508,-4.5259,-4.5424,-4.5289,-4.5214,-4.5289,-4.514,-4.4616,-4.4137,-4.4032,-4.3584,-4.314,-4.3021,-4.2611,-4.2455,-4.2791,-4.2162,-4.1692,-4.2186,-4.1811,-4.1482,-4.1527,-4.1489,-4.1692,-4.2111,-4.2126,-4.1767,-6.2823,-6.2823,-6.2823,-6.2823,-6.2725,-6.2108,-6.1832,-6.1728,-6.0344,-5.8999,-5.7667,-5.5854,-5.4805,-5.4346,-5.3771,-5.3518,-5.3518,-5.3518,-5.2689,-5.1234,-5.1234,-5.0439,-4.9052,-4.9018,-4.9018,-4.9018,-4.9018,-4.8934,-4.8781,-4.8176,-4.7821,-4.7669,-4.709,-4.6481,0.0,0.0,0.0,0.0,-4.4682,-4.4598,-4.4598,-4.4598,-4.4682,-4.4773,-4.4119,0.0,-4.3685,-4.2921,-4.2397,-4.2221,-4.145,0.0,0.0,0.0,0.0,0.0,0.0,0.0,0.0,0.0,0.0,0.0,-4.0188,-4.0147,-4.0366,-4.1544,-4.244,-4.2849,-4.3602,-4.4252,-4.4695,-4.5203,-4.5753,-4.6396,-4.6007,-4.5888,-4.6354,-4.6037,-4.5663,-4.5678,-4.5678,-4.5633,-4.5529,-4.5499,-4.5244,-4.4616,-4.4496,-4.4272,-4.3753,-4.4586,-4.5244,-4.5259,-4.4811,-4.4511,-4.4496,-4.3943,-4.3344,-4.288,-4.271,-4.2357,-4.1923,-4.1698,-4.1617,-4.1803,-4.1534,-4.1407,-4.1587,-4.1459,-4.1294,-4.1407,-4.1392,-4.1452,-4.1572,-4.1145,-4.0711,-6.2823,0.0,-6.2823,-6.2585,0.0,-6.1355,-6.0579,-5.9809,-5.9051,-5.758,-5.5736,-5.4958,-5.4397,-5.4042,-5.367,-5.3281,-5.2909,-5.2909,-5.2097,-5.0693,-5.0659,-5.0067,-4.9018,-4.9018,-4.9018,-4.9018,-4.9018,-4.8629,-4.7919,-4.753,-4.6989,-4.6261,-4.5889,-4.5517,-4.5162,-4.5145,-4.4987,-4.4615,-4.4598,-4.4598,-4.457,-4.4212,-4.3948,-4.3948,0.0,0.0,0.0,0.0,0.0,0.0,0.0,0.0,0.0,0.0,0.0,-3.8427,-3.8108,-3.8121,-3.8466,-3.8742,-3.9384,-4.0426,-4.1061,-4.143,-4.1511,-4.2326,-4.297,-4.3299,-4.3943,-4.4451,-4.4781,-4.5095,-4.5439,-4.5738,-4.5499,-4.5454,-4.5708,-4.5514,-4.5289,-4.5289,-4.5289,-4.52,-4.484,-4.4811,-4.4541,-4.3888,-4.3539,-4.324,-4.3015,-4.3688,-4.4317,-4.4317,-4.4092,-4.3718,-4.3389,-4.3105,-4.2626,-4.2096,-4.1916,-4.1782,-4.1482,-4.11,-4.0995,-4.1235,-4.0876,-4.0502,-4.0816,-4.0636,-4.0412,-4.0412,-4.0412,-4.0412,-4.0427,-4.0397,-4.0277,-6.2823,-6.2823,-6.2823,-6.242,-6.1759,-6.0951,-5.9582,-5.7855,0.0,0.0,0.0,-5.4397,-5.4076,-5.3501,-5.3348,-5.2926,-5.2317,-5.2164,-5.1369,-5.0101,-5.0101,-4.9712,-4.9018,-4.9018,-4.9018,-4.9001,-4.8883,-4.8189,-4.7005,-4.6735,-4.5974,-4.4902,-4.4666,-4.4598,-4.457,-4.444,-4.4384,-4.4384,-4.4384,-4.4281,-4.4121,-4.3456,-4.3094,-4.3078,-4.2221,-4.1429,-4.0724,-4.0569,-4.017,-3.9594,-3.9564,-3.9564,-3.9564,-3.9548,-3.9531,-3.94,-3.9388,-3.9388,-3.9403,-4.0023,-4.0457,-4.0561,-4.1602,-4.2321,-4.2545,-4.3015,-4.3514,-4.4092,-4.4137,-4.4362,-4.4885,-4.4945,-4.4945,-4.4945,-4.4945,-4.493,-4.4945,-4.4945,-4.487,-4.4945,-4.4885,-4.4751,-4.4212,-4.4003,-4.3778,-4.3225,-4.2626,-4.2231,-4.2291,-4.2641,-4.2985,-4.2985,-4.2925,-4.2776,-4.2396,-4.2246,-4.1961,-4.1377,-4.1205,-4.1175,-4.098,-4.0576,-4.0487,-4.0831,-4.0098,-3.9813,-4.0068,-3.9858,-3.9403,-3.9388,-3.9388,-3.9328,-3.932,-3.9649,-3.9798,-6.2823,-6.2823,-6.2823,-6.2707,-6.2567,-6.1759,-5.9764,-5.7011,-5.5662,-5.4554,-5.3653,-5.3653,-5.3602,-5.3484,-5.2773,-5.2401,-5.2266,-5.1657,-5.0896,0.0,-5.0101,-4.9695,-4.9018,-4.9018,-4.9018,-4.8951,-4.8345,-4.7953,-4.7631,-4.6481,-4.572,-4.5483,-4.4936,-4.4598,-4.4525,-4.3844,-4.3502,-4.3486,-4.3456,-4.3139,-4.2395,-4.2269,-4.2189,-4.2173,-4.133,-4.086,-4.069,-3.999,-3.9544,-3.9454,-3.9439,-3.9439,-3.9403,-3.9424,-3.9412,-3.9409,-3.9388,-3.9388,-3.9403,-4.0023,-4.0636,-4.1175,-4.1467,-4.1998,-4.3035,-4.3245,-4.3334,-4.3424,-4.3409,-4.3454,-4.3559,-4.3599,-4.3574,-4.3559,-4.3574,-4.3559,-4.3574,-4.3559,-4.3574,-4.3559,-4.3574,-4.3599,-4.3379,-4.3,-4.2695,-4.247,-4.1923,-4.1542,-4.1489,-4.1594,-4.1654,-4.1654,-4.1654,-4.1647,-4.1587,-4.1519,-4.1272,-4.0636,-4.0546,-4.0382,-3.9933,-3.9753,-3.9709,-3.9687,-3.9574,-3.9478,-3.9568,-3.9463,-3.9358,-3.9343,-3.9298,-3.92,-3.8676,-3.8631,-3.8646,-6.2823,-6.2823,-6.2823,-6.2567,-6.2003,-5.9947,-5.7989,-5.6156,-5.4638,-5.3832,-5.3501,-5.3518,-5.3518,-5.3433,-5.2655,-5.208,-5.1674,-5.0947,-5.0202,-4.9526,-4.9492,-4.9323,-4.9018,-4.9018,-4.8798,-4.8396,-4.8058,-4.7466,-4.6688,-4.6024,-4.55,-4.5094,-4.4739,-4.4598,-4.4525,-4.3726,-4.3078,-4.2614,-4.2583,-4.2379,-4.1997,-4.1528,-4.1313,-4.1313,-4.0447,-3.9975,-3.999,-3.961,-3.9388,-3.9388,-3.9388,-3.9388,-3.9388,-3.9388,-3.9388,-3.9388,-3.9388,-3.9388,-3.9388,-4.0038,-4.0681,-4.1324,-4.1422,-4.1624,-4.2222,-4.2282,-4.2267,-4.2282,-4.2267,-4.2267,-4.2282,-4.2267,-4.2282,-4.2267,-4.2282,-4.2282,-4.2267,-4.2267,-4.2267,-4.2267,-4.2282,-4.2282,-4.2282,-4.2013,-4.1871,-4.1826,-4.125,-4.0741,-4.0412,-4.0337,-4.0606,-4.122,-4.1422,-4.1205,-4.0935,-4.0846,-4.0561,-3.9978,-3.9873,-3.9738,-3.9418,-3.9388,-3.9388,-3.9388,-3.9388,-3.9388,-3.9373,-3.9388,-3.929,-3.8901,-3.8856,-3.8586,-3.8048,-3.7614,-3.7494,-6.2823,-6.2823,-6.2823,-6.232,-6.1343,-5.8425,-5.6744,-5.5842,-5.4241,-5.3518,-5.3518,-5.3518,-5.3416,-5.3162,-5.2401,-5.1657,-5.093,-5.0185,-4.956,-4.9052,-4.9018,-4.9018,-4.8984,-4.8849,-4.846,-4.7872,-4.7567,-4.6807,-4.5805,-4.5551,-4.5162,-4.4649,-4.4598,-4.4598,-4.4587,-4.3532,-4.2693,-4.2029,-4.1609,-4.1412,-4.1379,-4.0758,-4.0397,-4.0378,-3.9758,-3.9388,-3.9388,-3.9388,-3.9388,-3.9388,-3.9388,-3.9388,-3.9388,-3.9388,-3.9388,-3.9388,-3.9388,-3.9388,-3.9418,-3.9888,-4.0382,-4.0891,-4.0935,-4.0935,-4.095,-4.0935,-4.1085,-4.1362,-4.1482,-4.1467,-4.1497,-4.1467,-4.1422,-4.1422,-4.1422,-4.1497,-4.1437,-4.1422,-4.1422,-4.1422,-4.1422,-4.1452,-4.1407,-4.125,-4.11,-4.0876,-4.0487,-3.9978,-3.9493,-3.9388,-3.9903,-4.0561,-4.095,-4.0711,-4.0262,-4.0187,-3.9978,-3.9433,-3.9418,-3.9418,-3.9388,-3.9388,-3.9388,-3.9388,-3.9388,-3.9284,-3.923,-3.9155,-3.8871,-3.8347,-3.8167,-3.7958,-3.7345,-3.6731,-3.6611,-6.2823,-6.2823,-6.2823,-6.2331,-6.1362,-5.9084,-5.7583,-5.6532,-5.4463,-5.3518,-5.3518,-5.3501,-5.3078,-5.2384,-5.1657,-5.0947,-5.0202,-4.9441,-4.9069,-4.9018,-4.9018,-4.9001,-4.8917,-4.8342,-4.7956,-4.7686,-4.6599,-4.5923,-4.5635,-4.5038,-4.4682,-4.4598,-4.4598,-4.4598,-4.4412,-4.2953,-4.2093,-4.1965,-4.0447,-3.9646,-3.9631,-3.9538,-3.9517,-3.9502,-3.9445,-3.9388,-3.9388,-3.9388,-3.9388,-3.9388,-3.9388,-3.9388,-3.9388,-3.9388,-3.9388,-3.9388,-3.9388,-3.9388,-3.9388,-3.9484,-3.9538,-3.9553,-3.9679,-3.9664,-3.9627,-3.9612,-4.0127,-4.0995,-4.1377,-4.1317,-4.1422,-4.1309,-4.125,-4.1242,-4.1287,-4.1422,-4.1332,-4.1422,-4.1422,-4.1422,-4.1235,-4.1407,-4.1175,-4.0801,-4.0292,-3.9873,-3.9738,-3.9568,-3.9433,-3.9388,-3.9403,-3.9634,-3.9597,-3.9627,-3.9538,-3.9493,-3.9508,-3.9403,-3.9388,-3.9388,-3.9388,-3.9388,-3.9373,-3.9194,-3.9298,-3.914,-3.8676,-3.8467,-3.8257,-3.7689,-3.7434,-3.727,-3.6686,-3.6103,-3.6133,-6.2823,-6.2823,-6.2823,-6.2324,-6.1368,-5.9614,-5.811,-5.6755,-5.494,-5.3907,-5.345,-5.301,-5.2604,-5.2249,-5.1539,-5.0811,-5.0067,-4.934,-4.9018,-4.9018,-4.9001,-4.8781,-4.8311,-4.8058,-4.7449,-4.665,-4.5991,-4.5466,-4.506,-4.4722,-4.4598,-4.4598,-4.4598,-4.4598,-4.444,-4.2862,-4.1981,-4.1949,-4.0289,-3.9388,-3.9388,-3.9388,-3.9388,-3.9388,-3.9388,-3.9388,-3.9388,-3.9388,-3.9388,-3.9388,-3.9388,-3.9388,-3.9388,-3.9388,-3.9388,-3.9388,-3.9388,-3.9388,-3.9388,-3.9388,-3.9388,-3.9388,-3.9388,-3.9388,-3.9388,-3.9388,-3.9679,-4.0098,-4.0232,-4.0232,-4.0247,-4.0217,-4.0217,-4.0217,-4.0217,-4.0232,-4.0217,-4.0232,-4.0232,-4.0217,-4.0232,-4.0232,-4.0202,-3.9993,-3.9709,-3.9418,-3.9388,-3.9388,-3.9388,-3.9388,-3.9388,-3.9388,-3.9388,-3.9388,-3.9388,-3.9388,-3.9373,-3.9373,-3.9388,-3.9388,-3.9328,-3.9388,-3.9284,-3.8901,-3.8826,-3.8571,-3.7928,-3.7793,-3.7614,-3.706,-3.6462,-3.6178,-3.5953,-3.5699,-3.5833,-6.2823,-6.2823,-6.2823,-6.2324,-6.144,-5.9721,-5.8198,-5.6755,-5.5059,-5.3991,-5.3467,-5.2892,-5.2384,-5.1928,-5.1251,-5.0507,-4.9779,-4.9238,-4.9018,-4.9018,-4.9018,-4.8582,-4.7953,-4.7652,-4.6955,-4.5838,-4.5483,-4.5111,-4.4649,-4.4598,-4.4598,-4.4598,-4.4598,-4.4598,-4.4457,-4.3061,-4.2237,-4.1901,-4.0481,-3.9646,-3.9445,-3.9388,-3.9388,-3.9388,-3.9388,-3.9388,-3.9388,-3.9388,-3.9388,-3.9388,-3.9388,-3.9388,-3.9388,-3.9388,-3.9388,-3.9388,-3.9388,-3.9388,-3.9388,-3.9388,-3.9388,-3.9388,-3.9388,-3.9388,-3.9388,-3.9388,-3.9388,-3.9433,-3.9388,-3.9433,-3.9388,-3.9388,-3.9388,-3.9388,-3.9388,-3.9388,-3.9418,-3.9388,-3.9433,-3.9388,-3.9523,-3.9388,-3.9403,-3.9418,-3.9403,-3.9403,-3.9388,-3.9388,-3.9388,-3.9388,-3.9343,-3.917,-3.9089,-3.9215,-3.9349,-3.9185,-3.9185,-3.9065,-3.8975,-3.8715,-3.8871,-3.8856,-3.879,-3.8167,-3.8138,-3.7898,-3.733,-3.712,-3.6956,-3.6357,-3.5848,-3.5534,-3.5594,-3.5504,-3.5489,-6.2823,-6.2823,-6.2823,-6.235,-6.145,-5.9269,-5.7789,-5.6836,-5.4598,-5.3551,-5.3518,-5.3348,-5.2621,-5.1252,-5.0507,-4.9746,-4.9137,-4.9035,-4.9018,-4.9001,-4.8968,-4.8612,-4.7902,-4.7175,-4.643,-4.5602,-4.501,-4.4699,-4.4598,-4.4598,-4.4598,-4.4598,-4.4598,-4.4598,-4.444,-4.3591,-4.2785,-4.1949,-4.0995,-4.017,-3.9517,-3.9388,-3.9388,-3.9388,-3.9388,-3.9388,-3.9388,-3.9388,-3.9388,-3.9388,-3.9388,-3.9388,-3.9388,-3.9388,-3.9388,-3.9388,-3.9388,-3.9388,-3.9388,-3.9388,-3.9388,-3.9388,-3.9388,-3.9388,-3.9388,-3.9388,-3.9388,-3.9388,-3.9388,-3.9388,-3.9388,-3.9388,-3.9388,-3.9388,-3.9388,-3.9388,-3.9388,-3.9388,-3.9388,-3.9388,-3.9388,-3.9388,-3.9388,-3.9388,-3.9313,-3.9298,-3.9343,-3.9269,-3.9215,-3.9254,-3.9,-3.8616,-3.8482,-3.8661,-3.917,-3.8826,-3.8482,-3.8392,-3.8123,-3.7674,-3.7539,-3.7479,-3.7494,-3.7494,-3.7479,-3.724,-3.6731,-3.6387,-3.6178,-3.5818,-3.5564,-3.5355,-3.5026,-3.5355,-3.528,-6.2823,-6.2823,-6.2823,-6.2636,-6.2118,-5.9899,-5.8466,-5.7526,-5.5223,-5.3923,-5.3365,-5.2486,-5.1725,-5.1117,-4.9932,-4.9255,-4.9018,-4.9018,-4.9018,-4.8951,-4.8528,-4.7919,-4.7175,-4.6447,-4.572,-4.5026,-4.475,-4.4598,-4.4598,-4.4598,-4.4598,-4.4598,-4.4598,-4.4598,-4.4355,-4.3169,-4.2284,-4.1901,-4.0603,-3.9702,-3.946,-3.9388,-3.9388,-3.9388,-3.9388,-3.9388,-3.9388,-3.9388,-3.9388,-3.9388,-3.9388,-3.9388,-3.9388,-3.9388,-3.9388,-3.9388,-3.9388,-3.9388,-3.9388,-3.9388,-3.9388,-3.9388,-3.9388,-3.9388,-3.9388,-3.9388,-3.9388,-3.9388,-3.9388,-3.9388,-3.9388,-3.9388,-3.9388,-3.9388,-3.9388,-3.9388,-3.9388,-3.9388,-3.9388,-3.9388,-3.9388,-3.9388,-3.9224,-3.905,-3.8766,-3.8706,-3.8407,-3.8177,-3.8103,-3.8153,-3.8093,-3.7853,-3.7764,-3.7838,-3.8033,-3.7973,-3.7764,-3.7719,-3.7569,-3.7479,-3.736,-3.7255,-3.7285,-3.6881,-3.6821,-3.6552,-3.6073,-3.5818,-3.5549,-3.5085,-3.4861,-3.4696,-3.4292,-3.4532,-3.4427,-6.2823,-6.2823,-6.2823,-6.2658,-6.2116,-5.9942,-5.8491,-5.7535,-5.5302,-5.3974,-5.3298,-5.2131,-5.1454,-5.1048,-4.9898,-4.9187,-4.9018,-4.9018,-4.9018,-4.8934,-4.8257,-4.7513,-4.6769,-4.6041,-4.5314,-4.4699,-4.4598,-4.4598,-4.4598,-4.4598,-4.4598,-4.4598,-4.4598,-4.4598,-4.4338,-4.3122,-4.2332,-4.1804,-4.055,-3.9702,-3.946,-3.9388,-3.9388,-3.9388,-3.9388,-3.9388,-3.9388,-3.9388,-3.9388,-3.9388,-3.9388,-3.9388,-3.9388,-3.9388,-3.9388,-3.9388,-3.9388,-3.9388,-3.9388,-3.9388,-3.9388,-3.9388,-3.9388,-3.9388,-3.9388,-3.9388,-3.9388,-3.9388,-3.9388,-3.9388,-3.9388,-3.9388,-3.9388,-3.9388,-3.9388,-3.9388,-3.9388,-3.9388,-3.929,-3.9095,-3.9035,-3.8975,-3.8766,-3.8347,-3.8123,-3.8078,-3.7659,-3.7419,-3.7404,-3.7404,-3.73,-3.715,-3.712,-3.6971,-3.6911,-3.6731,-3.6971,-3.7,-3.6806,-3.6866,-3.6926,-3.6896,-3.6731,-3.6327,-3.6013,-3.5759,-3.5504,-3.525,-3.4816,-3.4339,-3.4158,-3.4068,-3.3814,-3.3619,-3.3481,-6.2823,-6.2823,-6.2823,-6.2383,-6.1439,-5.9344,-5.7788,-5.6688,-5.4613,-5.3601,-5.3263,-5.252,-5.1691,-5.1082,-5.0202,-4.961,-4.9103,-4.9018,-4.9018,-4.8934,-4.8189,-4.7462,-4.6769,-4.5957,-4.5246,-4.4632,-4.4598,-4.4598,-4.4598,-4.4598,-4.4598,-4.4598,-4.4598,-4.4598,-4.4598,-4.3562,-4.2738,-4.1933,-4.0946,-4.015,-3.9502,-3.9388,-3.9388,-3.9388,-3.9388,-3.9388,-3.9388,-3.9388,-3.9388,-3.9388,-3.9388,-3.9388,-3.9388,-3.9388,-3.9388,-3.9388,-3.9388,-3.9388,-3.9388,-3.9388,-3.9388,-3.9388,-3.9388,-3.9388,-3.9388,-3.9388,-3.9388,-3.9388,-3.9388,-3.9388,-3.9388,-3.9388,-3.9388,-3.9388,-3.9388,-3.9388,-3.9388,-3.9394,-3.9155,-3.8601,-3.8437,-3.8108,-3.7644,-3.7449,-3.7404,-3.7389,-3.7255,-3.7135,-3.7075,-3.7075,-3.7015,-3.6656,-3.6462,-3.6342,-3.5923,-3.5564,-3.5968,-3.6237,-3.5983,-3.5863,-3.5938,-3.5938,-3.5804,-3.5492,-3.522,-3.4966,-3.4696,-3.4442,-3.4143,-3.3739,-3.3634,-3.3395,-3.308,-3.2795,-3.2531,-6.2823,-6.2823,-6.2823,-6.2346,-6.1422,-5.969,-5.819,-5.6774,-5.5012,-5.3654,-5.267,-5.1877,-5.115,-5.0405,-4.9661,-4.9221,-4.9018,-4.9018,-4.9001,-4.8781,-4.7733,-4.7039,-4.6583,-4.5517,-4.4835,-4.4632,-4.4598,-4.4598,-4.4598,-4.4598,-4.4598,-4.4598,-4.4598,-4.4598,-4.4514,-4.3183,-4.2221,-4.1901,-4.0535,-3.9666,-3.9424,-3.9388,-3.9388,-3.9388,-3.9388,-3.9388,-3.9388,-3.9388,-3.9388,-3.9388,-3.9388,-3.9388,-3.9388,-3.9388,-3.9388,-3.9388,-3.9388,-3.9388,-3.9388,-3.9388,-3.9388,-3.9388,-3.9388,-3.9388,-3.9388,-3.9388,-3.9388,-3.9388,-3.9388,-3.9388,-3.9388,-3.9388,-3.9388,-3.9388,-3.9388,-3.9373,-3.9284,-3.9005,-3.8661,-3.8392,-3.8003,-3.7644,-3.7375,-3.709,-3.6776,-3.6716,-3.6447,-3.6178,-3.6148,-3.6237,-3.6073,-3.5833,-3.5774,-3.5789,-3.5489,-3.5325,-3.5564,-3.5654,-3.537,-3.5265,-3.5265,-3.5026,-3.4876,-3.4758,-3.4472,-3.4203,-3.3933,-3.3694,-3.344,-3.311,-3.2886,-3.2557,-3.2169,-3.1886,-3.1608,-6.2823,-6.2743,-6.2493,-6.1887,-6.1007,-5.9509,-5.7926,-5.6403,-5.5148,-5.3722,-5.2397,-5.1539,-5.0794,-5.005,-4.934,-4.9018,-4.8984,-4.8748,-4.8595,-4.8426,-4.7394,-4.6684,-4.6295,-4.5207,-4.4598,-4.4598,-4.4598,-4.4598,-4.4598,-4.4598,-4.4598,-4.4598,-4.4598,-4.4598,-4.444,-4.2939,-4.1981,-4.1723,-4.0309,-3.9388,-3.9388,-3.9388,-3.9388,-3.9388,-3.9388,-3.9388,-3.9388,-3.9388,-3.9388,-3.9388,-3.9388,-3.9388,-3.9388,-3.9388,-3.9388,-3.9388,-3.9388,-3.9388,-3.9388,-3.9388,-3.9388,-3.9388,-3.9388,-3.9388,-3.9388,-3.9388,-3.9388,-3.9388,-3.9388,-3.9388,-3.9388,-3.9388,-3.9388,-3.9388,-3.9388,-3.9305,-3.908,-3.8661,-3.8123,-3.7764,-3.73,-3.7,-3.6656,-3.6447,-3.6133,-3.6058,-3.5774,-3.5489,-3.5489,-3.5534,-3.5489,-3.5489,-3.5564,-3.5459,-3.5175,-3.516,-3.5235,-3.5085,-3.4861,-3.4891,-3.4936,-3.4427,-3.4144,-3.4098,-3.3918,-3.3604,-3.3335,-3.317,-3.2946,-3.2572,-3.2213,-3.1989,-3.1692,-3.1042,-3.0707,-6.2762,-6.2658,-6.1924,-6.1135,-6.0219,-5.8871,-5.7353,-5.5755,-5.4937,-5.3693,-5.2277,-5.1369,-5.0659,-4.9965,-4.9272,-4.9018,-4.8883,-4.8277,-4.7953,-4.7682,-4.6989,-4.6312,-4.5585,-4.4919,-4.4615,-4.4598,-4.4598,-4.4598,-4.4598,-4.4598,-4.4598,-4.4598,-4.4598,-4.4598,-4.4281,-4.2862,-4.1981,-4.1756,-4.0289,-3.9424,-3.9388,-3.9388,-3.9388,-3.9388,-3.9388,-3.9388,-3.9388,-3.9388,-3.9388,-3.9388,-3.9388,-3.9388,-3.9388,-3.9388,-3.9388,-3.9388,-3.9388,-3.9388,-3.9388,-3.9388,-3.9388,-3.9388,-3.9388,-3.9388,-3.9388,-3.9388,-3.9388,-3.9388,-3.9388,-3.9388,-3.9388,-3.9388,-3.9388,-3.9388,-3.9388,-3.9155,-3.8527,-3.8362,-3.7808,-3.6896,-3.6462,-3.6252,-3.5759,-3.5624,-3.5594,-3.5579,-3.5549,-3.5504,-3.5459,-3.5429,-3.5415,-3.5325,-3.516,-3.4846,-3.4487,-3.4547,-3.4577,-3.4382,-3.4173,-3.4158,-3.4292,-3.3829,-3.3275,-3.326,-3.326,-3.2976,-3.2736,-3.2542,-3.2332,-3.1959,-3.1705,-3.154,-3.1087,-3.045,-2.9813,-6.2456,-6.1906,-6.1667,-6.0805,-5.9588,-5.903,-5.7632,-5.5727,-5.4917,-5.345,-5.1694,-5.071,-5.0033,-4.9323,-4.912,-4.9018,-4.8815,-4.8223,-4.7534,-4.7022,-4.6329,-4.5585,-4.4993,-4.4733,-4.4598,-4.4598,-4.4598,-4.4598,-4.4598,-4.4598,-4.4598,-4.4598,-4.4598,-4.4598,-4.4338,-4.2862,-4.2062,-4.1772,-4.0289,-3.9388,-3.9388,-3.9388,-3.9388,-3.9388,-3.9388,-3.9388,-3.9388,-3.9388,-3.9388,-3.9388,-3.9388,-3.9388,-3.9388,-3.9388,-3.9388,-3.9388,-3.9388,-3.9388,-3.9388,-3.9388,-3.9388,-3.9388,-3.9388,-3.9388,-3.9388,-3.9388,-3.9388,-3.9388,-3.9388,-3.9388,-3.9388,-3.9388,-3.9388,-3.9388,-3.9343,-3.9095,-3.8497,-3.7928,-3.733,-3.6596,-3.6103,-3.5744,-3.5579,-3.5489,-3.5489,-3.5489,-3.5489,-3.5489,-3.5444,-3.507,-3.4921,-3.4607,-3.4367,-3.4053,-3.3829,-3.3888,-3.3844,-3.3649,-3.3425,-3.32,-3.329,-3.317,-3.2587,-3.2153,-3.2318,-3.2153,-3.1974,-3.178,-3.154,-3.1525,-3.138,-3.1248,-3.0554,-2.9889,-2.9097,-6.2346,-6.1557,-6.1227,-6.0382,-5.9203,-5.8859,-5.754,-5.5814,-5.4874,-5.3305,-5.1403,-5.0422,-4.9695,-4.9035,-4.9018,-4.9018,-4.8883,-4.7919,-4.7208,-4.6701,-4.572,-4.5026,-4.4682,-4.4598,-4.4598,-4.4598,-4.4598,-4.4598,-4.4598,-4.4598,-4.4598,-4.4598,-4.4598,-4.4598,-4.4485,-4.2923,-4.1981,-4.1707,-4.0324,-3.9388,-3.9388,-3.9388,-3.9388,-3.9388,-3.9388,-3.9388,-3.9388,-3.9388,-3.9388,-3.9388,-3.9388,-3.9388,-3.9388,-3.9388,-3.9388,-3.9388,-3.9388,-3.9388,-3.9388,-3.9388,-3.9388,-3.9388,-3.9388,-3.9388,-3.9388,-3.9388,-3.9388,-3.9388,-3.9388,-3.9388,-3.9388,-3.9388,-3.9388,-3.9394,-3.917,-3.8841,-3.8407,-3.7823,-3.718,-3.6552,-3.5938,-3.5489,-3.5489,-3.5489,-3.5489,-3.5489,-3.5489,-3.5489,-3.5429,-3.4861,-3.4444,-3.4249,-3.3814,-3.3469,-3.332,-3.335,-3.3066,-3.2856,-3.2721,-3.2467,-3.2362,-3.2392,-3.2064,-3.163,-3.154,-3.1451,-3.1346,-3.1346,-3.1496,-3.1438,-3.1248,-3.0748,-3.0047,-2.916,-2.8383,-6.2144,-6.1282,-6.0566,-5.979,-5.8982,-5.8304,-5.7094,-5.5636,-5.4752,-5.316,-5.1233,-5.0287,-4.956,-4.9018,-4.9018,-4.9001,-4.8917,-4.7547,-4.6769,-4.6109,-4.5309,-4.4632,-4.4632,-4.4598,-4.4598,-4.4598,-4.4598,-4.4598,-4.4598,-4.4598,-4.4598,-4.4598,-4.4598,-4.4598,-4.4253,-4.2909,-4.2077,-4.1691,-4.0289,-3.946,-3.9388,-3.9388,-3.9388,-3.9388,-3.9388,-3.9388,-3.9388,-3.9388,-3.9388,-3.9388,-3.9388,-3.9388,-3.9388,-3.9388,-3.9388,-3.9388,-3.9388,-3.9388,-3.9388,-3.9388,-3.9388,-3.9388,-3.9388,-3.9388,-3.9388,-3.9388,-3.9388,-3.9388,-3.9388,-3.9388,-3.9388,-3.9388,-3.9388,-3.9364,-3.8901,-3.8571,-3.8272,-3.7749,-3.7075,-3.6492,-3.5818,-3.5564,-3.5489,-3.5489,-3.5489,-3.5489,-3.5489,-3.5489,-3.5235,-3.4651,-3.4322,-3.4189,-3.3619,-3.2976,-3.2886,-3.2826,-3.2378,-3.2034,-3.1959,-3.1765,-3.1511,-3.1481,-3.1451,-3.1271,-3.0943,-3.0853,-3.0913,-3.1032,-3.1008,-3.0615,-2.9944,-2.978,-2.9545,-2.8469,-2.7575,-6.1025,-5.9722,-5.9538,-5.9006,-5.8309,-5.8028,-5.6792,-5.4879,-5.4089,-5.2491,-5.0584,-4.9608,-4.9187,-4.9018,-4.9018,-4.9018,-4.8765,-4.7394,-4.6244,-4.5026,-4.4852,-4.4598,-4.4598,-4.4598,-4.4598,-4.4598,-4.4598,-4.4598,-4.4598,-4.4598,-4.4598,-4.4598,-4.4598,-4.4598,-4.4338,-4.2923,-4.1981,-4.1691,-4.0289,-3.946,-3.9388,-3.9388,-3.9388,-3.9388,-3.9388,-3.9388,-3.9388,-3.9388,-3.9388,-3.9388,-3.9388,-3.9388,-3.9388,-3.9388,-3.9388,-3.9388,-3.9388,-3.9388,-3.9388,-3.9388,-3.9388,-3.9388,-3.9388,-3.9388,-3.9388,-3.9388,-3.9388,-3.9388,-3.9388,-3.9388,-3.9388,-3.9388,-3.9388,-3.9328,-3.9155,-3.8841,-3.8347,-3.7419,-3.6582,-3.5968,-3.5654,-3.5489,-3.5489,-3.5489,-3.5489,-3.5489,-3.5489,-3.5489,-3.507,-3.4517,-3.4188,-3.4024,-3.32,-3.2542,-3.2258,-3.2228,-3.2004,-3.1705,-3.1585,-3.1271,-3.1017,-3.0731,-3.0746,-3.0552,-3.0223,-3.0182,-3.0164,-2.9532,-2.9261,-2.8915,-2.8596,-2.825,-2.7841,-2.7147,-2.6811,-6.0309,-5.9221,-5.9203,-5.8749,-5.8015,-5.757,-5.6558,-5.5007,-5.3522,-5.2085,-5.0609,-4.9522,-4.9018,-4.9018,-4.8984,-4.8849,-4.8206,-4.6972,-4.5686,-4.4818,-4.4598,-4.4598,-4.4598,-4.4598,-4.4598,-4.4598,-4.4598,-4.4598,-4.4598,-4.4598,-4.4598,-4.4598,-4.4598,-4.4598,-4.4338,-4.2862,-4.2077,-4.1674,-4.0324,-3.9388,-3.9388,-3.9388,-3.9388,-3.9388,-3.9388,-3.9388,-3.9388,-3.9388,-3.9388,-3.9388,-3.9388,-3.9388,-3.9388,-3.9388,-3.9388,-3.9388,-3.9388,-3.9388,-3.9388,-3.9388,-3.9388,-3.9388,-3.9388,-3.9388,-3.9388,-3.9388,-3.9388,-3.9388,-3.9388,-3.9388,-3.9388,-3.9388,-3.9388,-3.9254,-3.8841,-3.8347,-3.7898,-3.73,-3.6671,-3.6088,-3.5729,-3.5564,-3.5489,-3.5489,-3.5489,-3.5489,-3.5489,-3.5489,-3.5325,-3.4756,-3.4083,-3.3604,-3.2751,-3.2079,-3.1735,-3.163,-3.169,-3.1555,-3.154,-3.1137,-3.0776,-3.0417,-3.0073,-2.9821,-2.9573,-2.9189,-2.9024,-2.8311,-2.7826,-2.7778,-2.7496,-2.6742,-2.6326,-2.6263,-2.5917,-5.9758,-5.9001,-5.8872,-5.8437,-5.774,-5.6969,-5.598,-5.4827,-5.3148,-5.172,-5.0747,-4.9515,-4.9018,-4.9018,-4.9018,-4.8545,-4.7564,-4.6464,-4.5331,-4.4699,-4.4598,-4.4598,-4.4598,-4.4598,-4.4598,-4.4598,-4.4598,-4.4598,-4.4598,-4.4598,-4.4598,-4.4598,-4.4598,-4.4598,-4.4207,-4.2953,-4.1981,-4.1772,-4.0289,-3.9388,-3.9388,-3.9388,-3.9388,-3.9388,-3.9388,-3.9388,-3.9388,-3.9388,-3.9388,-3.9388,-3.9388,-3.9388,-3.9388,-3.9388,-3.9388,-3.9388,-3.9388,-3.9388,-3.9388,-3.9388,-3.9388,-3.9388,-3.9388,-3.9388,-3.9388,-3.9388,-3.9388,-3.9388,-3.9388,-3.9313,-3.9254,-3.917,-3.9125,-3.8901,-3.8003,-3.7479,-3.7285,-3.7255,-3.6851,-3.6297,-3.5774,-3.5519,-3.5489,-3.5489,-3.5489,-3.5489,-3.5489,-3.5415,-3.525,-3.4801,-3.4023,-3.3245,-3.2378,-3.1929,-3.1585,-3.1496,-3.1496,-3.1467,-3.1467,-3.1034,-3.0498,-2.9841,-2.9415,-2.925,-2.8951,-2.8468,-2.7907,-2.7286,-2.6946,-2.6876,-2.6188,-2.5257,-2.5154,-2.5422,-2.5058,-5.8933,-5.8143,-5.7483,-5.7116,-5.6895,-5.6143,-5.4766,-5.2996,-5.2555,-5.1165,-4.9555,-4.9114,-4.9018,-4.9001,-4.9001,-4.8257,-4.7005,-4.5957,-4.5246,-4.4699,-4.4598,-4.4598,-4.4598,-4.4598,-4.4598,-4.4598,-4.4598,-4.4598,-4.4598,-4.4598,-4.4598,-4.4598,-4.4598,-4.4598,-4.415,-4.2953,-4.1981,-4.1756,-4.0324,-3.946,-3.9388,-3.9388,-3.9388,-3.9388,-3.9388,-3.9388,-3.9388,-3.9388,-3.9388,-3.9388,-3.9388,-3.9388,-3.9388,-3.9388,-3.9388,-3.9388,-3.9388,-3.9388,-3.9388,-3.9388,-3.9388,-3.9388,-3.9388,-3.9388,-3.9388,-3.9388,-3.9388,-3.9388,-3.9328,-3.92,-3.8616,-3.8661,-3.8302,-3.7913,-3.7584,-3.7165,-3.6821,-3.6611,-3.6432,-3.5893,-3.5609,-3.5489,-3.5489,-3.5489,-3.5489,-3.5489,-3.5489,-3.531,-3.504,-3.4427,-3.3619,-3.2856,-3.2034,-3.175,-3.1496,-3.1496,-3.1496,-3.1438,-3.1348,-3.0962,-3.0284,-2.9255,-2.8732,-2.8439,-2.7944,-2.7372,-2.6797,-2.6218,-2.5638,-2.5263,-2.4497,-2.3725,-2.4101,-2.4462,-2.4261,-5.8125,-5.7354,-5.695,-5.6565,-5.6088,-5.5317,-5.4405,-5.3285,-5.2167,-5.1112,-5.0108,-4.9376,-4.9018,-4.8917,-4.8562,-4.7614,-4.6363,-4.5466,-4.4942,-4.4632,-4.4598,-4.4598,-4.4598,-4.4598,-4.4598,-4.4598,-4.4598,-4.4598,-4.4598,-4.4598,-4.4598,-4.4598,-4.4598,-4.4598,-4.4207,-4.2892,-4.2125,-4.1609,-4.0359,-3.9388,-3.9388,-3.9388,-3.9388,-3.9388,-3.9388,-3.9388,-3.9388,-3.9388,-3.9388,-3.9388,-3.9388,-3.9388,-3.9388,-3.9388,-3.9388,-3.9388,-3.9388,-3.9388,-3.9388,-3.9388,-3.9388,-3.9388,-3.9388,-3.9388,-3.9388,-3.9388,-3.9388,-3.9373,-3.9358,-3.9125,-3.8497,-3.8347,-3.8063,-3.7524,-3.7135,-3.6791,-3.6492,-3.6193,-3.5848,-3.5549,-3.5519,-3.5489,-3.5489,-3.5489,-3.5489,-3.5489,-3.5489,-3.5205,-3.4846,-3.4233,-3.3484,-3.2736,-3.2034,-3.166,-3.1496,-3.1496,-3.1496,-3.1438,-3.129,-3.0904,-3.0202,-2.9245,-2.8188,-2.7416,-2.6876,-2.6305,-2.566,-2.5087,-2.437,-2.3826,-2.3603,-2.3392,-2.3382,-2.3401,-2.3427,-5.7391,-5.6804,-5.6455,-5.5959,-5.5262,-5.4323,-5.3825,-5.3372,-5.1696,-5.0751,-5.0482,-4.938,-4.8748,-4.8528,-4.777,-4.6756,-4.5635,-4.4959,-4.4666,-4.4615,-4.4598,-4.4598,-4.4598,-4.4598,-4.4598,-4.4598,-4.4598,-4.4598,-4.4598,-4.4598,-4.4598,-4.4598,-4.4598,-4.444,-4.396,-4.2738,-4.2157,-4.128,-4.0289,-3.946,-3.9388,-3.9388,-3.9388,-3.9388,-3.9388,-3.9388,-3.9388,-3.9388,-3.9388,-3.9388,-3.9388,-3.9388,-3.9388,-3.9388,-3.9388,-3.9388,-3.9388,-3.9388,-3.9388,-3.9388,-3.9388,-3.9388,-3.9388,-3.9388,-3.9388,-3.9373,-3.9328,-3.9239,-3.917,-3.8751,-3.8003,-3.7958,-3.7614,-3.706,-3.6522,-3.6252,-3.6118,-3.5908,-3.5684,-3.5504,-3.5489,-3.5489,-3.5489,-3.5489,-3.5489,-3.5489,-3.5489,-3.4921,-3.4562,-3.4262,-3.3589,-3.2811,-3.2138,-3.169,-3.1496,-3.1496,-3.1496,-3.1467,-3.1291,-3.0996,-3.0191,-2.9305,-2.8266,-2.7269,-2.5924,-2.5329,-2.4633,-2.4223,-2.3922,-2.3619,-2.3275,-2.3133,-2.3208,-2.3283,-2.3346,-5.6895,-5.6653,-5.5258,-5.462,-5.429,-5.2999,-5.2042,-5.1477,-5.0607,-4.978,-4.9372,-4.8476,-4.8075,-4.7669,-4.6604,-4.5957,-4.5483,-4.4959,-4.4598,-4.4598,-4.4598,-4.4598,-4.4598,-4.4598,-4.4598,-4.4598,-4.4598,-4.4598,-4.4598,-4.4598,-4.4598,-4.4598,-4.4542,-4.427,-4.3562,-4.2536,-4.1642,-4.086,-3.99,-3.9388,-3.9388,-3.9388,-3.9388,-3.9388,-3.9388,-3.9388,-3.9388,-3.9388,-3.9388,-3.9388,-3.9388,-3.9388,-3.9388,-3.9388,-3.9388,-3.9388,-3.9388,-3.9388,-3.9388,-3.9388,-3.9388,-3.9388,-3.9388,-3.9388,-3.9373,-3.9305,-3.9095,-3.8527,-3.8556,-3.8078,-3.724,-3.6836,-3.6402,-3.6133,-3.5863,-3.5729,-3.5639,-3.5774,-3.5534,-3.5489,-3.5489,-3.5489,-3.5489,-3.5489,-3.5489,-3.5489,-3.537,-3.4816,-3.4247,-3.3918,-3.332,-3.2422,-3.2049,-3.163,-3.1496,-3.1496,-3.1467,-3.1467,-3.1014,-3.0764,-3.0046,-2.917,-2.8597,-2.7464,-2.5945,-2.4757,-2.4398,-2.4047,-2.3726,-2.3442,-2.3185,-2.3095,-2.3108,-2.3195,-2.3271,-5.48,-5.4745,-5.4072,-5.3282,-5.248,-5.1786,-5.1368,-5.0981,-5.0307,-4.9608,-4.8917,-4.8205,-4.7496,-4.6667,-4.5906,-4.5466,-4.5077,-4.475,-4.4615,-4.4598,-4.4598,-4.4598,-4.4598,-4.4598,-4.4598,-4.4598,-4.4598,-4.4598,-4.4598,-4.4598,-4.4598,-4.4598,-4.4542,-4.4167,-4.3306,-4.2426,-4.156,-4.0724,-3.99,-3.9424,-3.9388,-3.9388,-3.9388,-3.9388,-3.9388,-3.9388,-3.9388,-3.9388,-3.9388,-3.9388,-3.9388,-3.9388,-3.9388,-3.9388,-3.9388,-3.9388,-3.9388,-3.9388,-3.9388,-3.9388,-3.9388,-3.9373,-3.9373,-3.9388,-3.9313,-3.9035,-3.8766,-3.8437,-3.8392,-3.7749,-3.6825,-3.6522,-3.6103,-3.5759,-3.5504,-3.5489,-3.5489,-3.5489,-3.5489,-3.5489,-3.5489,-3.5489,-3.5489,-3.5489,-3.5444,-3.5355,-3.5265,-3.4891,-3.4158,-3.3455,-3.2736,-3.1809,-3.163,-3.1525,-3.1496,-3.1496,-3.138,-3.1161,-3.0072,-2.9838,-2.9598,-2.8983,-2.8321,-2.7286,-2.5716,-2.4787,-2.4288,-2.3791,-2.342,-2.3245,-2.3095,-2.3095,-2.3095,-2.3108,-2.317,-5.2922,-5.2785,-5.2931,-5.2254,-5.1104,-5.0903,-5.07,-5.0444,-4.9721,-4.9028,-4.8358,-4.7593,-4.6566,-4.5652,-4.5382,-4.5077,-4.4649,-4.4598,-4.4598,-4.4598,-4.4598,-4.4598,-4.4598,-4.4598,-4.4598,-4.4598,-4.4598,-4.4598,-4.4598,-4.4598,-4.4598,-4.4598,-4.4598,-4.4093,-4.3306,-4.2395,-4.1478,-4.0274,-3.9702,-3.9424,-3.9388,-3.9388,-3.9388,-3.9388,-3.9388,-3.9388,-3.9388,-3.9388,-3.9388,-3.9388,-3.9388,-3.9388,-3.9388,-3.9388,-3.9388,-3.9388,-3.9388,-3.9388,-3.9388,-3.9388,-3.9388,-3.9328,-3.9155,-3.8975,-3.8701,-3.8392,-3.8003,-3.7793,-3.7764,-3.721,-3.66,-3.6207,-3.5953,-3.5669,-3.5489,-3.5489,-3.5489,-3.5489,-3.5489,-3.5489,-3.5489,-3.5489,-3.5489,-3.5489,-3.5415,-3.5265,-3.5085,-3.4831,-3.3977,-3.2915,-3.2094,-3.1234,-3.1424,-3.1219,-3.0748,-3.0866,-3.097,-3.0881,-2.9752,-2.9216,-2.9226,-2.8654,-2.7863,-2.6677,-2.5499,-2.4829,-2.4354,-2.3702,-2.3095,-2.3095,-2.3095,-2.3095,-2.3095,-2.3095,-2.3095,-5.1882,-5.1286,-5.1928,-5.1721,-5.0928,-5.0352,-4.9667,-4.9032,-4.8365,-4.7708,-4.7007,-4.6223,-4.55,-4.4919,-4.4818,-4.4733,-4.4598,-4.4598,-4.4598,-4.4598,-4.4598,-4.4598,-4.4598,-4.4598,-4.4598,-4.4598,-4.4598,-4.4598,-4.4598,-4.4598,-4.4598,-4.4598,-4.4598,-4.4035,-4.3229,-4.2252,-4.1147,-4.0115,-3.9538,-3.9424,-3.9388,-3.9388,-3.9388,-3.9388,-3.9388,-3.9388,-3.9388,-3.9388,-3.9388,-3.9388,-3.9388,-3.9388,-3.9388,-3.9388,-3.9388,-3.9388,-3.9388,-3.9388,-3.9388,-3.9388,-3.9358,-3.923,-3.8781,-3.8197,-3.7943,-3.7644,-3.724,-3.6911,-3.7,-3.6522,-3.5938,-3.5579,-3.5624,-3.5579,-3.5489,-3.5489,-3.5489,-3.5489,-3.5489,-3.5489,-3.5489,-3.5489,-3.5489,-3.5489,-3.516,-3.4981,-3.4231,-3.3947,-3.3,-3.2034,-3.1351,-3.0866,-3.119,-3.0807,-2.9735,-2.9919,-3.0777,-3.0554,-2.9673,-2.9317,-2.9202,-2.8411,-2.7315,-2.6873,-2.5882,-2.5108,-2.4329,-2.3644,-2.3158,-2.312,-2.3095,-2.3095,-2.3095,-2.3095,-2.3095,-5.13,-5.1,-5.1279,-5.0487,-4.9074,-4.834,-4.7882,-4.7631,-4.7339,-4.6819,-4.6075,-4.5365,-4.4886,-4.4666,-4.4598,-4.4598,-4.4598,-4.4598,-4.4598,-4.4598,-4.4598,-4.4598,-4.4598,-4.4598,-4.4598,-4.4598,-4.4598,-4.4598,-4.4598,-4.4598,-4.4598,-4.4598,-4.4598,-4.4035,-4.3229,-4.2093,-4.0912,-4.0274,-3.9666,-3.9388,-3.9388,-3.9388,-3.9388,-3.9388,-3.9388,-3.9388,-3.9388,-3.9388,-3.9388,-3.9373,-3.9373,-3.9328,-3.9313,-3.9328,-3.9328,-3.9343,-3.9343,-3.9358,-3.9328,-3.9313,-3.9209,-3.8586,-3.7898,-3.7255,-3.721,-3.706,-3.6806,-3.6567,-3.6447,-3.6118,-3.5654,-3.5519,-3.5519,-3.5504,-3.5489,-3.5489,-3.5489,-3.5489,-3.5489,-3.5489,-3.5489,-3.5489,-3.5489,-3.5489,-3.507,-3.4622,-3.3798,-3.2944,-3.2138,-3.1396,-3.0804,-3.0389,-3.0673,-3.0807,-2.9827,-3.0208,-3.0763,-2.9999,-2.9247,-2.8917,-2.847,-2.7677,-2.6742,-2.6466,-2.6043,-2.4982,-2.4123,-2.3545,-2.3208,-2.3133,-2.3095,-2.3095,-2.3095,-2.3095,-2.3095,-5.1202,-5.088,-5.0651,-4.9657,-4.814,-4.7363,-4.6919,-4.6703,-4.6564,-4.6058,-4.5348,-4.4818,-4.4598,-4.4598,-4.4598,-4.4598,-4.4598,-4.4598,-4.4598,-4.4598,-4.4598,-4.4598,-4.4598,-4.4598,-4.4598,-4.4598,-4.4598,-4.4598,-4.4598,-4.4598,-4.4598,-4.4598,-4.457,-4.4196,-4.3545,-4.2013,-4.0878,-4.0239,-3.9793,-3.9388,-3.9388,-3.9388,-3.9388,-3.9388,-3.9388,-3.9388,-3.9388,-3.9388,-3.9388,-3.9298,-3.923,-3.9095,-3.9095,-3.911,-3.9125,-3.917,-3.9275,-3.932,-3.917,-3.905,-3.8796,-3.8093,-3.7225,-3.6806,-3.6641,-3.6447,-3.6163,-3.6148,-3.6133,-3.5998,-3.5489,-3.5489,-3.5489,-3.5489,-3.5489,-3.5489,-3.5489,-3.5489,-3.5489,-3.5489,-3.5489,-3.5459,-3.516,-3.5008,-3.4379,-3.3842,-3.299,-3.2333,-3.1782,-3.1116,-3.0565,-3.0208,-3.0072,-3.0147,-3.0147,-2.9797,-2.9278,-2.8157,-2.7589,-2.7673,-2.7252,-2.6555,-2.6076,-2.5753,-2.5205,-2.4539,-2.4004,-2.3471,-2.3246,-2.3108,-2.3095,-2.3095,-2.3095,-2.3095,-2.3095,-5.1584,-5.0849,-5.0159,-4.9405,-4.8539,-4.7934,-4.7188,-4.6466,-4.5937,-4.5348,-4.4784,-4.4598,-4.4598,-4.4598,-4.4598,-4.4598,-4.4598,-4.4598,-4.4598,-4.4598,-4.4598,-4.4598,-4.4598,-4.4598,-4.4598,-4.4598,-4.4598,-4.4598,-4.4598,-4.4598,-4.4598,-4.4514,-4.444,-4.4355,-4.431,-4.28,-4.1129,-3.9737,-3.9538,-3.9424,-3.9388,-3.9388,-3.9388,-3.9388,-3.9388,-3.9388,-3.9388,-3.9245,-3.9215,-3.9155,-3.8661,-3.8452,-3.8422,-3.8422,-3.8422,-3.8422,-3.896,-3.8945,-3.8512,-3.8422,-3.8003,-3.7464,-3.6671,-3.6267,-3.5774,-3.5579,-3.5654,-3.5759,-3.5669,-3.5624,-3.5489,-3.5489,-3.5489,-3.5489,-3.5489,-3.5489,-3.5489,-3.5489,-3.5489,-3.5235,-3.5355,-3.54,-3.4919,-3.4424,-3.3689,-3.2974,-3.2169,-3.1589,-3.1102,-3.04,-2.9718,-2.9504,-2.924,-2.9348,-2.9223,-2.8492,-2.7728,-2.6581,-2.6291,-2.6807,-2.6501,-2.5761,-2.5349,-2.5026,-2.4639,-2.4167,-2.3853,-2.3484,-2.3283,-2.3095,-2.3095,-2.3095,-2.3095,-2.3095,-2.3095,-5.1112,-5.0769,-4.9987,-4.9209,-4.8298,-4.6835,-4.6074,-4.5796,-4.5237,-4.4835,-4.4649,-4.4598,-4.4598,-4.4598,-4.4598,-4.4598,-4.4598,-4.4598,-4.4598,-4.4598,-4.4598,-4.4598,-4.4598,-4.4598,-4.4598,-4.4598,-4.4598,-4.4598,-4.4598,-4.4598,-4.4598,-4.4542,-4.396,-4.3739,-4.3243,-4.2125,-4.069,-4.0239,-3.9793,-3.9388,-3.9388,-3.9388,-3.9388,-3.9388,-3.9388,-3.9373,-3.9284,-3.9035,-3.8826,-3.8676,-3.8093,-3.7764,-3.7734,-3.7734,-3.7749,-3.7749,-3.8078,-3.7988,-3.7644,-3.7434,-3.706,-3.6671,-3.6267,-3.5804,-3.5519,-3.5489,-3.5504,-3.5489,-3.5489,-3.5489,-3.5489,-3.5489,-3.5489,-3.5489,-3.5489,-3.5489,-3.5489,-3.5489,-3.5415,-3.4936,-3.4816,-3.4122,-3.3596,-3.3551,-3.2972,-3.2055,-3.1216,-3.0533,-3.0007,-2.9121,-2.8376,-2.833,-2.8266,-2.8427,-2.8363,-2.8298,-2.7911,-2.7083,-2.677,-2.692,-2.6296,-2.5046,-2.4898,-2.4782,-2.431,-2.3891,-2.3559,-2.3296,-2.3208,-2.3095,-2.3095,-2.3095,-2.3095,-2.3095,-2.3095,-5.0315,-5.0024,-4.9733,-4.8979,-4.7891,-4.6682,-4.5957,-4.5459,-4.4879,-4.4598,-4.4598,-4.4598,-4.4598,-4.4598,-4.4598,-4.4598,-4.4598,-4.4598,-4.4598,-4.4598,-4.4598,-4.4598,-4.4598,-4.4598,-4.4598,-4.4598,-4.4598,-4.4598,-4.4598,-4.4598,-4.4367,-4.3931,-4.329,-4.2676,-4.2125,-4.1247,-4.0535,-4.0115,-3.9574,-3.9388,-3.9388,-3.9388,-3.9388,-3.9388,-3.9358,-3.9305,-3.9005,-3.8646,-3.8257,-3.7958,-3.7524,-3.7105,-3.7075,-3.709,-3.709,-3.709,-3.709,-3.7105,-3.6971,-3.6507,-3.6237,-3.6103,-3.5684,-3.5534,-3.5489,-3.5489,-3.5489,-3.5489,-3.5489,-3.5489,-3.5489,-3.5489,-3.5489,-3.5489,-3.5489,-3.5489,-3.5365,-3.535,-3.4703,-3.4275,-3.3756,-3.2979,-3.2489,-3.2367,-3.2242,-3.1254,-3.0254,-2.9648,-2.9083,-2.8427,-2.7868,-2.792,-2.7887,-2.8136,-2.8524,-2.8798,-2.831,-2.7592,-2.708,-2.6574,-2.5393,-2.4144,-2.4325,-2.4425,-2.3903,-2.3459,-2.3271,-2.3095,-2.3095,-2.3095,-2.3095,-2.3095,-2.3095,-2.3095,-2.3095,-4.9279,-4.8735,-4.9259,-4.8626,-4.7478,-4.7128,-4.6472,-4.5433,-4.4841,-4.4598,-4.4598,-4.4598,-4.4598,-4.4598,-4.4598,-4.4598,-4.4598,-4.4598,-4.4598,-4.4598,-4.4598,-4.4598,-4.4598,-4.4598,-4.4598,-4.4598,-4.4598,-4.4598,-4.4598,-4.4598,-4.4179,-4.329,-4.2583,-4.1772,-4.1095,-4.043,-4.0024,-3.9642,-3.9517,-3.9388,-3.9388,-3.9388,-3.9298,-3.9275,-3.9149,-3.8871,-3.8527,-3.8123,-3.7823,-3.7389,-3.6806,-3.6567,-3.6462,-3.6462,-3.6462,-3.6447,-3.6447,-3.6447,-3.6372,-3.5848,-3.5699,-3.5684,-3.5564,-3.5489,-3.5489,-3.5489,-3.5489,-3.5489,-3.5489,-3.5489,-3.5489,-3.5489,-3.5489,-3.5489,-3.5489,-3.5412,-3.5225,-3.4762,-3.39,-3.329,-3.272,-3.2205,-3.2058,-3.1886,-3.1633,-3.0567,-2.9724,-2.9352,-2.8844,-2.8556,-2.8149,-2.8201,-2.8168,-2.8038,-2.8303,-2.8287,-2.7556,-2.6479,-2.6025,-2.5436,-2.4251,-2.3508,-2.3661,-2.3661,-2.3329,-2.3095,-2.3095,-2.3095,-2.3095,-2.3095,-2.3095,-2.3095,-2.3095,-2.3095,-2.3095,-4.8432,-4.85,-4.768,-4.7061,-4.6659,-4.6216,-4.5571,-4.4879,-4.4654,-4.4598,-4.4598,-4.4598,-4.4598,-4.4598,-4.4598,-4.4598,-4.4598,-4.4598,-4.4598,-4.4598,-4.4598,-4.4598,-4.4598,-4.4598,-4.4598,-4.4598,-4.4598,-4.4598,-4.457,-4.457,-4.3693,-4.2473,-4.2062,-4.1129,-4.0155,-3.9325,-3.9314,-3.9337,-3.932,-3.9239,-3.9269,-3.9269,-3.9095,-3.8826,-3.8691,-3.8317,-3.7838,-3.733,-3.7015,-3.6731,-3.6118,-3.5804,-3.5789,-3.5789,-3.5774,-3.5774,-3.5789,-3.5789,-3.5759,-3.5609,-3.5489,-3.5489,-3.5489,-3.5489,-3.5489,-3.5489,-3.5489,-3.5489,-3.5489,-3.5489,-3.5489,-3.5489,-3.5489,-3.5489,-3.5474,-3.5367,-3.5106,-3.4389,-3.3519,-3.2633,-3.2063,-3.1547,-3.1426,-3.1531,-3.1116,-2.9991,-2.9254,-2.8907,-2.8505,-2.8214,-2.7999,-2.8019,-2.8149,-2.792,-2.7209,-2.7038,-2.6213,-2.5422,-2.5189,-2.4743,-2.3783,-2.3231,-2.315,-2.3095,-2.3095,-2.3095,-2.3095,-2.3095,-2.3095,-2.3095,-2.3095,-2.3095,-2.3095,-2.3095,-2.3095,-4.7393,-4.7639,-4.7084,-4.6542,-4.6039,-4.563,-4.5152,-4.4665,-4.4598,-4.4598,-4.4598,-4.4598,-4.4598,-4.4598,-4.4598,-4.4598,-4.4598,-4.4598,-4.4598,-4.4598,-4.4598,-4.4598,-4.4598,-4.4598,-4.4598,-4.4598,-4.4598,-4.4598,-4.4542,-4.4064,-4.3259,-4.2141,-4.1772,-4.0672,-3.9662,-3.8962,-3.8732,-3.8841,-3.8945,-3.8871,-3.8841,-3.8871,-3.8571,-3.8153,-3.8003,-3.7629,-3.712,-3.6582,-3.6417,-3.6178,-3.5609,-3.5519,-3.5519,-3.5519,-3.5519,-3.5549,-3.5549,-3.5564,-3.5564,-3.5534,-3.5489,-3.5489,-3.5489,-3.5489,-3.5489,-3.5489,-3.5489,-3.5489,-3.5489,-3.5489,-3.5489,-3.5489,-3.5489,-3.5489,-3.5429,-3.5355,-3.4746,-3.4063,-3.3199,-3.2236,-3.1511,-3.0906,-3.0762,-3.0955,-3.0539,-2.9286,-2.8716,-2.8652,-2.8149,-2.7617,-2.7364,-2.7229,-2.7517,-2.7637,-2.6904,-2.6475,-2.6116,-2.5667,-2.5218,-2.4633,-2.3555,-2.3095,-2.3095,-2.3095,-2.3095,-2.3095,-2.3095,-2.3095,-2.3095,-2.3095,-2.3095,-2.3095,-2.3095,-2.3095,-2.3095,-4.6377,-4.6472,-4.6955,-4.6377,-4.5511,-4.5381,-4.5089,-4.4626,-4.4598,-4.4598,-4.4598,-4.4598,-4.4598,-4.4598,-4.4598,-4.4598,-4.4598,-4.4598,-4.4598,-4.4598,-4.4598,-4.4598,-4.4598,-4.4598,-4.4598,-4.4598,-4.4598,-4.457,-4.4355,-4.3873,-4.3031,-4.1997,-4.1198,-4.0293,-3.9469,-3.8542,-3.8227,-3.8242,-3.8167,-3.8003,-3.7868,-3.7928,-3.8018,-3.7479,-3.727,-3.706,-3.6596,-3.6297,-3.6148,-3.5729,-3.5519,-3.5489,-3.5489,-3.5489,-3.5489,-3.5489,-3.5489,-3.5489,-3.5489,-3.5489,-3.5489,-3.5489,-3.5489,-3.5489,-3.5489,-3.5489,-3.5489,-3.5489,-3.5489,-3.5489,-3.5489,-3.5489,-3.5489,-3.5385,-3.5265,-3.4862,-3.4203,-3.3223,-3.1913,-3.1203,-3.0978,-3.045,-3.0464,-3.0644,-3.0777,-2.9066,-2.8117,-2.8233,-2.8214,-2.755,-2.717,-2.6947,-2.7284,-2.7644,-2.7398,-2.6976,-2.6676,-2.6205,-2.5344,-2.47,-2.3777,-2.3365,-2.3095,-2.3095,-2.3095,-2.3095,-2.3095,-2.3095,-2.3095,-2.3095,-2.3095,-2.3095,-2.3095,-2.3095,-2.3095,-4.5989,-4.6312,-4.5588,-4.5079,-4.4841,-4.4814,-4.4731,-4.4598,-4.4598,-4.4598,-4.4598,-4.4598,-4.4598,-4.4598,-4.4598,-4.4598,-4.4598,-4.4598,-4.4598,-4.4598,-4.4598,-4.4598,-4.4598,-4.4598,-4.4598,-4.4598,-4.4598,-4.4542,-4.4253,-4.3621,-4.2816,-4.1965,-4.1046,-4.015,-3.9391,-3.8407,-3.7749,-3.7749,-3.724,-3.7225,-3.7315,-3.733,-3.736,-3.6911,-3.6641,-3.6387,-3.5998,-3.5759,-3.5684,-3.5519,-3.5504,-3.5489,-3.5489,-3.5489,-3.5489,-3.5489,-3.5489,-3.5489,-3.5489,-3.5489,-3.5489,-3.5489,-3.5489,-3.5489,-3.5489,-3.5489,-3.5489,-3.5489,-3.5489,-3.5489,-3.5489,-3.5489,-3.5474,-3.5295,-3.5115,-3.4433,-3.3709,-3.224,-3.0788,-3.0499,-3.0385,-3.0343,-3.0343,-3.0313,-3.0464,-2.9673,-2.8363,-2.8051,-2.8524,-2.8266,-2.7795,-2.7545,-2.7498,-2.765,-2.744,-2.6786,-2.6105,-2.5532,-2.4679,-2.4226,-2.3881,-2.3514,-2.3095,-2.3095,-2.3095,-2.3095,-2.3095,-2.3095,-2.3095,-2.3095,-2.3095,-2.3095,-2.3095,-2.3095,-2.3095,-4.6524,-4.6682,-4.5511,-4.4824,-4.4626,-4.4598,-4.4598,-4.4598,-4.4598,-4.4598,-4.4598,-4.4598,-4.4598,-4.4598,-4.4598,-4.4598,-4.4598,-4.4598,-4.4598,-4.4598,-4.4598,-4.4598,-4.4598,-4.4598,-4.4598,-4.4598,-4.457,-4.444,-4.4006,-4.3122,-4.2221,-4.1445,-4.0588,-3.9844,-3.9185,-3.8167,-3.7375,-3.7375,-3.6537,-3.6357,-3.6686,-3.6746,-3.6641,-3.6252,-3.5968,-3.5774,-3.5699,-3.5489,-3.5504,-3.5504,-3.5489,-3.5489,-3.5489,-3.5489,-3.5489,-3.5489,-3.5489,-3.5489,-3.5489,-3.5489,-3.5489,-3.5489,-3.5489,-3.5489,-3.5489,-3.5489,-3.5489,-3.5489,-3.5489,-3.5489,-3.5489,-3.5489,-3.5489,-3.5385,-3.5205,-3.4743,-3.3619,-3.2235,-3.1347,-3.1057,-3.0881,-3.0673,-3.0464,-2.9704,-2.9642,-2.8812,-2.7723,-2.7404,-2.7953,-2.8556,-2.8204,-2.7889,-2.7688,-2.7118,-2.6505,-2.5749,-2.4902,-2.4359,-2.412,-2.3727,-2.3454,-2.3275,-2.3095,-2.3095,-2.3095,-2.3095,-2.3095,-2.3095,-2.3095,-2.3095,-2.3095,-2.3095,-2.3095,-2.3095,-2.3095,-4.732,-4.7088,-4.5965,-4.5142,-4.4654,-4.4598,-4.4598,-4.4598,-4.4598,-4.4598,-4.4598,-4.4598,-4.4598,-4.4598,-4.4598,-4.4598,-4.4598,-4.4598,-4.4598,-4.4598,-4.4598,-4.4598,-4.4598,-4.4598,-4.4598,-4.4598,-4.457,-4.4018,-4.3426,-4.2583,-4.1739,-4.0724,-3.9934,-3.926,-3.8886,-3.8093,-3.7195,-3.6911,-3.6312,-3.5669,-3.5774,-3.6013,-3.5923,-3.5699,-3.5489,-3.5489,-3.5489,-3.5489,-3.5489,-3.5489,-3.5489,-3.5489,-3.5489,-3.5489,-3.5489,-3.5489,-3.5489,-3.5489,-3.5489,-3.5489,-3.5489,-3.5489,-3.5489,-3.5489,-3.5489,-3.5489,-3.5489,-3.5489,-3.5489,-3.5489,-3.5489,-3.5489,-3.5489,-3.529,-3.5081,-3.4603,-3.3257,-3.193,-3.1471,-3.1131,-3.1058,-3.0837,-3.0163,-2.938,-2.8748,-2.7855,-2.725,-2.696,-2.696,-2.7577,-2.7742,-2.7536,-2.7345,-2.6661,-2.5968,-2.5051,-2.4261,-2.4318,-2.4138,-2.3531,-2.3095,-2.3095,-2.3095,-2.3095,-2.3095,-2.3095,-2.3095,-2.3095,-2.3095,-2.3095,-2.3095,-2.3095,-2.3095,-2.3095,-2.3095,-4.7066,-4.6524,-4.5808,-4.5152,-4.4637,-4.4598,-4.4598,-4.4598,-4.4598,-4.4598,-4.4598,-4.4598,-4.4598,-4.4598,-4.4598,-4.4598,-4.4598,-4.4598,-4.4598,-4.4598,-4.4598,-4.4598,-4.4598,-4.4598,-4.4598,-4.4598,-4.4497,-4.4035,-4.3139,-4.2332,-4.1479,-4.0526,-3.9163,-3.8607,-3.8362,-3.7524,-3.6731,-3.6492,-3.6118,-3.5489,-3.5489,-3.5639,-3.5609,-3.5519,-3.5489,-3.5489,-3.5489,-3.5489,-3.5489,-3.5489,-3.5489,-3.5489,-3.5489,-3.5489,-3.5489,-3.5489,-3.5489,-3.5489,-3.5489,-3.5489,-3.5489,-3.5489,-3.5489,-3.5489,-3.5489,-3.5489,-3.5489,-3.5489,-3.5489,-3.5489,-3.5489,-3.5489,-3.5427,-3.4845,-3.448,-3.3354,-3.2108,-3.0899,-3.0003,-3.0178,-3.0434,-3.0042,-2.9504,-2.9034,-2.8876,-2.8019,-2.7129,-2.6939,-2.7471,-2.7511,-2.7419,-2.7269,-2.7128,-2.6785,-2.6286,-2.4867,-2.4128,-2.424,-2.4164,-2.3611,-2.3228,-2.3095,-2.3095,-2.3138,-2.3095,-2.3095,-2.3095,-2.3095,-2.3095,-2.3095,-2.3095,-2.3095,-2.3095,-2.3095,-2.3095]},{"header":{"parameterUnit":"m.s-1","parameterCategory":1,"la1":31.0,"la2":29.5877,"lo1":-88.7671,"lo2":-86.6584,"dy":0.0162,"dx":0.0185,"nx":115,"ny":88,"refTime":"2023-08-08T18:00:00:Z","depth":0,"parameterNumber":3,"parameterNumberName":"V-component_of_WINDS"},"data":[0.0,0.0,0.0,0.0,0.0,0.0,0.0,0.0,0.0,0.0,0.0,0.0,0.0,0.0,0.0,0.0,0.0,0.0,0.0,0.0,0.0,0.0,0.0,0.0,0.0,0.0,0.0,0.0,0.0,0.0,0.0,0.0,0.0,0.0,0.0,0.0,0.0,0.0,0.0,0.0,0.0,0.0,0.0,0.0,0.0,0.0,0.0,0.0,0.0,0.0,0.0,0.0,0.0,0.0,0.0,0.0,0.0,0.0,0.0,0.0,0.0,0.0,0.0,0.0,0.0,0.0,0.0,0.0,0.0,0.0,0.0,0.0,0.0,0.0,0.0,0.0,0.0,0.0,0.0,0.0,0.0,0.0,0.0,0.0,0.0,0.0,0.0,0.0,0.0,0.0,0.0,0.0,0.0,0.0,0.0,0.0,0.0,0.0,0.0,0.0,0.0,0.0,0.0,0.0,0.0,0.0,0.0,0.0,0.0,0.0,0.0,0.0,0.0,0.0,0.0,0.0,0.0,0.0,0.0,0.0,0.0,0.0,0.0,0.0,0.0,0.0,0.0,0.0,0.0,0.0,0.0,0.0,0.0,0.0,0.0,0.0,0.0,0.0,0.0,0.0,0.0,0.0,0.0,0.0,0.0,0.0,0.0,0.0,0.0,0.0,0.0,0.0,0.0,0.0,0.0,0.0,0.0,0.0,0.0,0.0,0.0,0.0,0.0,0.0,0.0,0.0,0.0,0.0,0.0,0.0,0.0,0.0,0.0,0.0,0.0,0.0,0.0,0.0,0.0,0.0,0.0,0.0,0.0,0.0,0.0,0.0,0.0,0.0,0.0,0.0,0.0,0.0,0.0,0.0,0.0,0.0,0.0,0.0,0.0,0.0,0.0,0.0,0.0,0.0,0.0,0.0,0.0,0.0,0.0,0.0,0.0,0.0,0.0,0.0,0.0,0.0,0.0,0.0,0.0,0.0,0.0,0.0,0.0,0.0,0.0,0.0,0.0,0.0,0.0,0.0,0.0,0.0,0.0,0.0,0.0,0.0,0.0,0.0,0.0,0.0,0.0,0.0,0.0,0.0,0.0,0.0,0.0,0.0,0.0,0.0,0.0,0.0,0.0,0.0,0.0,0.0,0.0,0.0,0.0,0.0,0.0,0.0,0.0,0.0,0.0,0.0,0.0,0.0,0.0,0.0,0.0,0.0,0.0,0.0,0.0,0.0,0.0,0.0,0.0,0.0,0.0,0.0,0.0,0.0,0.0,0.0,0.0,0.0,0.0,0.0,0.0,0.0,0.0,0.0,0.0,0.0,0.0,0.0,0.0,0.0,0.0,0.0,0.0,0.0,0.0,0.0,0.0,0.0,0.0,0.0,0.0,0.0,0.0,0.0,0.0,0.0,0.0,0.0,0.0,0.0,0.0,0.0,0.0,0.0,0.0,0.0,0.0,0.0,0.0,0.0,0.0,0.0,0.0,0.0,0.0,0.0,0.0,0.0,0.0,0.0,0.0,0.0,0.0,0.0,0.0,0.0,0.0,0.0,0.0,0.0,0.0,0.0,0.0,0.0,0.0,0.0,0.0,0.0,0.0,0.0,0.0,0.0,0.0,0.0,0.0,0.0,0.0,0.0,0.0,0.0,0.0,0.0,0.0,0.0,0.0,0.0,0.0,0.0,0.0,0.0,0.0,0.0,0.0,0.0,0.0,0.0,0.0,0.0,0.0,0.0,0.0,0.0,0.0,0.0,0.0,0.0,0.0,0.0,0.0,0.0,0.0,0.0,0.0,0.0,0.0,0.0,0.0,0.0,0.0,0.0,0.0,0.0,0.0,0.0,0.0,0.0,0.0,0.0,0.0,0.0,0.0,0.0,0.0,0.0,0.0,0.0,0.0,0.0,0.0,0.0,0.0,0.0,0.0,0.0,0.0,0.0,0.0,0.0,0.0,0.0,0.0,0.0,0.0,0.0,0.0,0.0,0.0,0.0,0.0,0.0,0.0,0.0,0.0,0.0,0.0,0.0,0.0,0.0,0.0,0.0,0.0,0.0,0.0,0.0,0.0,0.0,0.0,0.0,0.0,0.0,0.0,0.0,0.0,0.0,0.0,0.0,0.0,0.0,0.0,0.0,0.0,0.0,0.0,0.0,0.0,0.0,0.0,0.0,0.0,0.0,0.0,0.0,0.0,0.0,0.0,0.0,0.0,0.0,0.0,0.0,0.0,0.0,0.0,0.0,0.0,0.0,0.0,0.0,0.0,0.0,0.0,0.0,0.0,0.0,0.0,0.0,0.0,0.0,0.0,0.0,0.0,0.0,0.0,0.0,0.0,0.0,0.0,0.0,0.0,0.0,0.0,0.0,0.0,0.0,0.0,0.0,0.0,0.0,0.0,0.0,0.0,0.0,0.0,0.0,0.0,0.0,0.0,0.0,0.0,0.0,0.0,0.0,0.0,0.0,0.0,0.0,0.0,0.0,0.0,0.0,0.0,0.0,0.0,0.0,0.0,0.0,0.0,0.0,0.0,0.0,0.0,0.0,0.0,0.0,0.0,0.0,0.0,0.0,0.0,0.0,0.0,0.0,0.0,0.0,0.0,0.0,0.0,0.0,0.0,0.0,0.0,0.0,0.0,0.0,0.0,0.0,0.0,0.0,0.0,0.0,0.0,0.0,0.0,0.0,0.0,0.0,0.0,0.0,0.0,0.0,0.0,0.0,0.0,0.0,0.0,0.0,0.0,0.0,0.0,0.0,0.0,0.0,0.0,0.0,0.0,0.0,0.0,0.0,0.0,0.0,0.0,0.0,0.0,0.0,0.0,0.0,0.0,0.0,0.0,0.0,0.0,0.0,0.0,0.0,0.0,0.0,0.0,0.0,0.0,0.0,0.0,0.0,0.0,0.0,0.0,0.0,0.0,0.0,0.0,0.0,0.0,0.0,0.0,0.0,0.0,0.0,0.0,0.0,0.0,0.0,0.0,0.0,0.0,0.0,0.0,0.0,0.0,0.0,0.0,0.0,0.0,0.0,0.0,0.0,0.0,0.0,0.0,0.0,0.0,0.0,0.0,0.0,0.0,0.0,0.0,0.0,0.0,0.0,0.0,0.0,0.0,0.0,0.0,0.0,0.0,0.0,0.0,0.0,0.0,0.0,0.0,0.0,0.0,0.0,0.0,0.0,0.0,0.0,0.0,0.0,0.0,0.0,0.0,0.0,0.0,0.0,0.0,0.0,0.0,0.0,0.0,0.0,0.0,0.0,0.0,0.0,0.0,0.0,0.0,0.0,0.0,0.0,0.0,0.0,0.0,0.0,0.0,0.0,0.0,0.0,0.0,0.0,0.0,0.0,0.0,0.0,0.0,0.0,0.0,0.0,0.0,0.0,0.0,0.0,0.0,0.0,0.0,0.0,0.0,0.0,0.0,0.0,0.0,0.0,0.0,0.0,0.0,0.0,0.0,0.0,0.0,0.0,0.0,0.0,0.0,0.0,0.0,0.0,0.0,0.0,0.0,0.0,0.0,0.0,0.0,0.0,0.0,0.0,0.0,0.0,0.0,0.0,0.0,0.0,0.0,0.0,0.0,0.0,0.0,0.0,0.0,0.0,0.0,0.0,0.0,0.0,0.0,0.0,0.0,0.0,0.0,0.0,0.0,0.0,0.0,0.0,0.0,0.0,0.0,0.0,0.0,0.0,0.0,0.0,0.0,0.0,0.0,0.0,0.0,0.0,0.0,0.0,0.0,0.0,0.0,0.0,0.0,0.0,0.0,0.0,0.0,0.0,0.0,0.0,0.0,0.0,0.0,0.0,0.0,0.0,0.0,0.0,0.0,0.0,0.0,0.0,0.0,0.0,0.0,0.0,0.0,0.0,0.0,0.0,0.0,0.0,0.0,0.0,0.0,0.0,0.0,0.0,0.0,0.0,0.0,0.0,0.0,0.0,0.0,0.0,0.0,0.0,0.0,0.0,0.0,0.0,0.0,0.0,0.0,0.0,0.0,0.0,0.0,0.0,0.0,0.0,0.0,0.0,0.0,0.0,0.0,0.0,0.0,0.0,0.0,0.0,0.0,0.0,0.0,0.0,0.0,0.0,0.0,0.0,0.0,0.0,0.0,0.0,0.0,0.0,0.0,0.0,0.0,0.0,0.0,0.0,0.0,0.0,0.0,0.0,0.0,0.0,0.0,0.0,0.0,0.0,0.0,0.0,0.0,0.0,0.0,0.0,0.0,0.0,0.0,0.0,0.0,0.0,0.0,0.0,0.0,0.0,0.0,0.0,0.0,0.0,-1.7152,0.0,0.0,0.0,0.0,0.0,0.0,0.0,0.0,0.0,0.0,0.0,0.0,0.0,0.0,0.0,0.0,0.0,0.0,0.0,0.0,0.0,0.0,0.0,0.0,0.0,0.0,0.0,0.0,0.0,0.0,0.0,0.0,0.0,0.0,0.0,0.0,0.0,0.0,0.0,0.0,0.0,0.0,0.0,0.0,0.0,0.0,0.0,0.0,0.0,0.0,0.0,0.0,0.0,0.0,0.0,0.0,0.0,0.0,0.0,0.0,0.0,0.0,0.0,0.0,0.0,0.0,0.0,0.0,0.0,0.0,0.0,0.0,0.0,0.0,0.0,0.0,0.0,0.0,0.0,0.0,0.0,0.0,0.0,0.0,0.0,0.0,0.0,0.0,0.0,0.0,0.0,0.0,0.0,0.0,0.0,0.0,0.0,0.0,0.0,0.0,0.0,0.0,0.0,0.0,0.0,0.0,0.0,0.0,0.0,0.0,-1.7589,-1.7589,-1.7589,-1.7448,-1.7206,0.0,0.0,0.0,0.0,0.0,0.0,0.0,0.0,0.0,0.0,0.0,0.0,0.0,0.0,0.0,0.0,0.0,0.0,0.0,0.0,0.0,0.0,0.0,0.0,0.0,0.0,0.0,0.0,0.0,0.0,0.0,0.0,0.0,0.0,0.0,0.0,0.0,0.0,0.0,0.0,0.0,0.0,0.0,0.0,0.0,0.0,0.0,0.0,0.0,0.0,0.0,0.0,0.0,0.0,0.0,0.0,0.0,0.0,0.0,0.0,0.0,0.0,0.0,0.0,0.0,0.0,0.0,0.0,0.0,0.0,0.0,0.0,0.0,0.0,0.0,0.0,0.0,0.0,0.0,0.0,0.0,0.0,0.0,0.0,0.0,0.0,0.0,0.0,0.0,0.0,0.0,0.0,0.0,0.0,0.0,0.0,0.0,0.0,0.0,0.0,0.0,0.0,0.0,0.0,0.0,0.0,0.0,0.0,0.0,0.0,0.0,0.0,-1.8023,-1.7836,-1.7407,0.0,0.0,0.0,0.0,0.0,0.0,0.0,0.0,0.0,0.0,0.0,0.0,0.0,0.0,0.0,0.0,0.0,0.0,0.0,0.0,0.0,0.0,0.0,0.0,0.0,0.0,0.0,0.0,0.0,0.0,0.0,0.0,0.0,0.0,0.0,0.0,0.0,0.0,0.0,0.0,0.0,0.0,0.0,0.0,0.0,0.0,0.0,0.0,0.0,0.0,0.0,0.0,0.0,0.0,0.0,0.0,0.0,0.0,0.0,0.0,0.0,0.0,0.0,0.0,0.0,0.0,0.0,0.0,0.0,0.0,0.0,0.0,0.0,0.0,0.0,0.0,0.0,0.0,0.0,0.0,0.0,0.0,0.0,0.0,0.0,0.0,0.0,0.0,0.0,0.0,0.0,0.0,0.0,0.0,0.0,0.0,0.0,0.0,0.0,0.0,0.0,0.0,0.0,0.0,0.0,0.0,0.0,0.0,0.0,0.0,-1.8455,-1.9559,-1.9332,0.0,-1.8009,0.0,0.0,0.0,0.0,0.0,0.0,0.0,0.0,0.0,0.0,0.0,0.0,0.0,0.0,0.0,0.0,0.0,0.0,0.0,0.0,0.0,0.0,0.0,0.0,0.0,0.0,0.0,0.0,0.0,0.0,0.0,0.0,0.0,0.0,0.0,0.0,0.0,0.0,0.0,0.0,0.0,0.0,0.0,0.0,0.0,0.0,0.0,0.0,0.0,0.0,0.0,0.0,0.0,0.0,0.0,0.0,0.0,0.0,0.0,0.0,0.0,0.0,0.0,0.0,0.0,0.0,0.0,0.0,0.0,0.0,0.0,0.0,0.0,0.0,0.0,0.0,0.0,0.0,0.0,0.0,0.0,0.0,0.0,0.0,0.0,0.0,0.0,0.0,0.0,0.0,0.0,0.0,0.0,0.0,0.0,0.0,0.0,0.0,0.0,0.0,0.0,0.0,0.0,0.0,0.0,0.0,0.0,0.0,0.0,0.0,-1.8878,-1.9533,-1.9259,-1.8771,0.0,0.0,0.0,0.0,0.0,0.0,0.0,0.0,0.0,0.0,0.0,0.0,0.0,0.0,0.0,0.0,0.0,0.0,0.0,0.0,0.0,0.0,0.0,0.0,0.0,0.0,0.0,0.0,0.0,0.0,0.0,0.0,0.0,0.0,0.0,0.0,0.0,0.0,0.0,0.0,0.0,0.0,0.0,0.0,0.0,0.0,0.0,0.0,0.0,0.0,0.0,0.0,0.0,0.0,0.0,0.0,0.0,0.0,0.0,0.0,0.0,0.0,0.0,0.0,0.0,0.0,0.0,0.0,0.0,0.0,0.0,0.0,0.0,0.0,0.0,0.0,0.0,0.0,0.0,0.0,0.0,0.0,0.0,0.0,0.0,0.0,0.0,0.0,0.0,0.0,0.0,0.0,0.0,0.0,0.0,0.0,0.0,0.0,0.0,0.0,0.0,0.0,0.0,0.0,0.0,0.0,0.0,0.0,0.0,0.0,-1.8951,-1.9265,-1.9693,-1.9519,-1.8978,-1.8015,0.0,0.0,0.0,0.0,0.0,0.0,0.0,0.0,0.0,0.0,0.0,0.0,0.0,0.0,0.0,0.0,0.0,0.0,0.0,0.0,0.0,0.0,0.0,0.0,0.0,0.0,0.0,0.0,0.0,0.0,0.0,0.0,0.0,0.0,0.0,0.0,0.0,0.0,0.0,0.0,0.0,0.0,0.0,0.0,0.0,0.0,0.0,0.0,0.0,0.0,0.0,0.0,0.0,0.0,0.0,0.0,0.0,0.0,0.0,0.0,0.0,0.0,0.0,0.0,0.0,0.0,0.0,0.0,0.0,0.0,0.0,0.0,0.0,0.0,0.0,0.0,0.0,0.0,0.0,0.0,0.0,0.0,0.0,0.0,0.0,0.0,0.0,0.0,0.0,0.0,0.0,0.0,0.0,0.0,0.0,0.0,0.0,0.0,0.0,0.0,0.0,0.0,0.0,0.0,0.0,0.0,0.0,0.0,-2.0401,-1.9753,-1.9812,-2.0588,-2.0663,-1.9786,0.0,0.0,0.0,0.0,0.0,0.0,0.0,0.0,0.0,0.0,0.0,0.0,0.0,0.0,0.0,0.0,0.0,0.0,0.0,0.0,0.0,0.0,0.0,0.0,0.0,0.0,0.0,0.0,0.0,0.0,0.0,0.0,0.0,0.0,0.0,0.0,0.0,0.0,0.0,0.0,0.0,0.0,0.0,0.0,0.0,0.0,0.0,0.0,0.0,0.0,0.0,0.0,0.0,0.0,0.0,0.0,0.0,0.0,0.0,0.0,0.0,0.0,0.0,0.0,0.0,0.0,0.0,0.0,0.0,0.0,0.0,0.0,0.0,0.0,0.0,0.0,0.0,0.0,0.0,0.0,0.0,0.0,0.0,0.0,0.0,0.0,0.0,0.0,0.0,0.0,0.0,0.0,0.0,0.0,0.0,0.0,0.0,0.0,0.0,0.0,0.0,0.0,0.0,0.0,0.0,0.0,0.0,0.0,0.0,-1.9225,-1.9512,-2.0247,-2.1403,-2.0074,-1.9058,0.0,0.0,0.0,0.0,0.0,0.0,0.0,0.0,0.0,0.0,0.0,0.0,0.0,0.0,0.0,0.0,0.0,0.0,0.0,0.0,0.0,0.0,0.0,0.0,0.0,0.0,0.0,0.0,0.0,0.0,0.0,0.0,0.0,0.0,0.0,0.0,0.0,0.0,0.0,0.0,0.0,0.0,0.0,0.0,0.0,0.0,0.0,0.0,0.0,0.0,0.0,0.0,0.0,0.0,0.0,0.0,0.0,0.0,0.0,0.0,0.0,0.0,0.0,0.0,0.0,0.0,0.0,0.0,0.0,0.0,0.0,0.0,0.0,0.0,0.0,0.0,0.0,0.0,0.0,0.0,0.0,0.0,0.0,0.0,0.0,0.0,0.0,0.0,0.0,0.0,0.0,0.0,0.0,0.0,0.0,0.0,0.0,0.0,0.0,0.0,0.0,0.0,0.0,0.0,0.0,0.0,0.0,0.0,0.0,-1.9038,0.0,-2.0855,-2.1463,-1.994,-1.8838,0.0,0.0,0.0,0.0,0.0,0.0,0.0,0.0,0.0,0.0,0.0,0.0,0.0,0.0,0.0,0.0,0.0,0.0,0.0,0.0,0.0,0.0,0.0,0.0,0.0,0.0,0.0,0.0,0.0,0.0,0.0,0.0,0.0,0.0,0.0,0.0,0.0,0.0,0.0,0.0,0.0,0.0,0.0,0.0,0.0,0.0,0.0,0.0,0.0,0.0,0.0,0.0,0.0,0.0,0.0,0.0,0.0,0.0,0.0,0.0,0.0,0.0,0.0,0.0,0.0,0.0,0.0,0.0,0.0,0.0,0.0,0.0,0.0,0.0,0.0,0.0,0.0,0.0,0.0,0.0,0.0,0.0,0.0,0.0,0.0,0.0,0.0,0.0,0.0,0.0,0.0,0.0,0.0,0.0,0.0,0.0,0.0,0.0,0.0,0.0,0.0,0.0,0.0,0.0,0.0,0.0,0.0,0.0,-1.8457,-2.0147,-2.1289,-2.149,-2.0742,-2.0341,-1.9225,0.0,0.0,0.0,0.0,0.0,0.0,0.0,0.0,0.0,0.0,0.0,0.0,0.0,0.0,0.0,0.0,0.0,0.0,0.0,0.0,0.0,0.0,0.0,0.0,0.0,0.0,0.0,0.0,0.0,0.0,0.0,0.0,0.0,0.0,0.0,0.0,0.0,0.0,0.0,0.0,0.0,0.0,0.0,0.0,0.0,0.0,0.0,0.0,0.0,0.0,0.0,0.0,0.0,0.0,0.0,0.0,0.0,0.0,0.0,0.0,0.0,0.0,0.0,0.0,0.0,0.0,0.0,0.0,0.0,0.0,0.0,0.0,0.0,0.0,0.0,0.0,0.0,0.0,0.0,0.0,0.0,0.0,0.0,0.0,0.0,0.0,0.0,0.0,0.0,0.0,0.0,0.0,0.0,0.0,0.0,0.0,0.0,0.0,0.0,0.0,0.0,0.0,0.0,0.0,0.0,0.0,0.0,0.0,0.0,-1.9633,-2.0381,-2.1129,-2.177,-2.002,-1.8925,0.0,0.0,0.0,0.0,0.0,0.0,0.0,0.0,0.0,0.0,0.0,0.0,0.0,0.0,0.0,0.0,0.0,0.0,0.0,0.0,0.0,0.0,0.0,0.0,0.0,0.0,0.0,0.0,0.0,0.0,0.0,0.0,0.0,0.0,0.0,0.0,0.0,0.0,0.0,0.0,0.0,0.0,0.0,0.0,0.0,0.0,0.0,0.0,0.0,0.0,0.0,0.0,0.0,0.0,0.0,0.0,0.0,0.0,0.0,0.0,0.0,0.0,0.0,0.0,0.0,0.0,0.0,0.0,0.0,0.0,0.0,0.0,0.0,0.0,0.0,0.0,0.0,0.0,0.0,0.0,0.0,0.0,0.0,0.0,0.0,0.0,0.0,0.0,0.0,0.0,0.0,0.0,0.0,0.0,0.0,0.0,0.0,0.0,0.0,0.0,0.0,0.0,0.0,0.0,0.0,0.0,0.0,0.0,0.0,-1.9946,-2.0748,-2.1543,-2.2238,-2.0441,-1.9325,-1.9011,0.0,0.0,0.0,0.0,0.0,0.0,0.0,0.0,0.0,0.0,0.0,0.0,0.0,0.0,0.0,0.0,0.0,0.0,0.0,0.0,0.0,0.0,0.0,0.0,0.0,0.0,0.0,0.0,0.0,0.0,0.0,0.0,0.0,0.0,0.0,0.0,0.0,0.0,0.0,0.0,0.0,0.0,0.0,0.0,0.0,0.0,0.0,0.0,0.0,0.0,0.0,0.0,0.0,0.0,0.0,0.0,0.0,0.0,0.0,0.0,0.0,0.0,0.0,0.0,0.0,0.0,0.0,0.0,0.0,0.0,0.0,0.0,0.0,0.0,0.0,0.0,0.0,0.0,0.0,0.0,0.0,0.0,0.0,0.0,0.0,0.0,0.0,0.0,0.0,0.0,0.0,0.0,0.0,0.0,0.0,0.0,0.0,0.0,0.0,0.0,0.0,0.0,0.0,0.0,0.0,0.0,0.0,0.0,-2.0715,-2.2204,-2.2625,-2.2118,-2.1443,-2.0321,0.0,0.0,0.0,0.0,0.0,0.0,0.0,0.0,0.0,0.0,0.0,0.0,0.0,0.0,0.0,0.0,0.0,0.0,0.0,0.0,0.0,0.0,0.0,0.0,0.0,0.0,0.0,0.0,0.0,0.0,0.0,0.0,0.0,0.0,0.0,0.0,0.0,0.0,0.0,0.0,0.0,0.0,0.0,0.0,0.0,0.0,0.0,0.0,0.0,0.0,0.0,0.0,0.0,0.0,0.0,0.0,0.0,0.0,0.0,0.0,0.0,0.0,0.0,0.0,0.0,0.0,0.0,0.0,0.0,0.0,0.0,0.0,0.0,0.0,0.0,0.0,0.0,0.0,0.0,0.0,0.0,0.0,0.0,0.0,0.0,0.0,0.0,0.0,0.0,0.0,0.0,0.0,0.0,0.0,0.0,0.0,0.0,0.0,0.0,0.0,0.0,0.0,0.0,0.0,0.0,0.0,0.0,0.0,0.0,-2.138,-2.2552,-2.3233,-2.326,-2.1884,-2.0695,0.0,0.0,0.0,0.0,0.0,0.0,0.0,0.0,0.0,0.0,0.0,0.0,0.0,0.0,0.0,0.0,0.0,0.0,0.0,0.0,0.0,0.0,0.0,0.0,0.0,0.0,0.0,0.0,0.0,0.0,0.0,0.0,0.0,0.0,0.0,0.0,0.0,0.0,0.0,0.0,0.0,0.0,0.0,0.0,0.0,0.0,0.0,0.0,0.0,0.0,0.0,0.0,0.0,0.0,0.0,0.0,0.0,0.0,0.0,0.0,0.0,0.0,0.0,0.0,0.0,0.0,0.0,0.0,0.0,0.0,0.0,0.0,0.0,0.0,0.0,0.0,0.0,0.0,0.0,0.0,0.0,0.0,0.0,0.0,0.0,0.0,0.0,0.0,0.0,0.0,0.0,0.0,0.0,0.0,0.0,0.0,0.0,0.0,0.0,0.0,0.0,0.0,0.0,0.0,0.0,0.0,0.0,0.0,-2.0681,-2.1789,-2.302,-2.3774,-2.3941,-2.2712,-2.153,0.0,0.0,0.0,0.0,0.0,0.0,0.0,0.0,0.0,0.0,0.0,0.0,0.0,0.0,0.0,0.0,0.0,0.0,0.0,0.0,0.0,0.0,0.0,0.0,0.0,0.0,0.0,0.0,0.0,0.0,0.0,0.0,0.0,0.0,0.0,0.0,0.0,0.0,0.0,0.0,0.0,0.0,0.0,0.0,0.0,0.0,0.0,0.0,0.0,0.0,0.0,0.0,0.0,0.0,0.0,0.0,0.0,0.0,0.0,0.0,0.0,0.0,0.0,0.0,0.0,0.0,0.0,0.0,0.0,0.0,0.0,0.0,0.0,0.0,0.0,0.0,0.0,0.0,0.0,0.0,0.0,0.0,0.0,0.0,0.0,0.0,0.0,0.0,0.0,0.0,0.0,0.0,0.0,0.0,0.0,0.0,0.0,0.0,0.0,0.0,0.0,0.0,0.0,0.0,0.0,0.0,0.0,0.0,-2.1142,-2.2024,-2.3454,-2.4222,-2.4229,-2.3621,-2.2539,0.0,0.0,0.0,0.0,0.0,0.0,0.0,0.0,0.0,0.0,0.0,0.0,0.0,0.0,0.0,0.0,0.0,0.0,0.0,0.0,0.0,0.0,0.0,0.0,0.0,0.0,0.0,0.0,0.0,0.0,0.0,0.0,0.0,0.0,0.0,0.0,0.0,0.0,0.0,0.0,0.0,0.0,0.0,0.0,0.0,0.0,0.0,0.0,0.0,0.0,0.0,0.0,0.0,0.0,0.0,0.0,0.0,0.0,0.0,0.0,0.0,0.0,0.0,0.0,0.0,0.0,0.0,0.0,0.0,0.0,0.0,0.0,0.0,0.0,0.0,0.0,0.0,0.0,0.0,0.0,0.0,0.0,0.0,0.0,0.0,0.0,0.0,0.0,0.0,0.0,0.0,0.0,0.0,0.0,0.0,0.0,0.0,0.0,0.0,0.0,0.0,0.0,0.0,0.0,0.0,0.0,0.0,0.0,-2.1443,-2.2318,-2.3554,-2.4315,-2.4536,-2.3514,-2.294,0.0,0.0,0.0,0.0,0.0,0.0,0.0,0.0,0.0,0.0,0.0,0.0,0.0,0.0,0.0,0.0,0.0,0.0,0.0,0.0,0.0,0.0,0.0,0.0,0.0,0.0,0.0,0.0,0.0,0.0,0.0,0.0,0.0,0.0,0.0,0.0,0.0,0.0,0.0,0.0,0.0,0.0,0.0,0.0,0.0,0.0,0.0,0.0,-2.6846,0.0,0.0,0.0,0.0,0.0,0.0,0.0,0.0,0.0,0.0,0.0,0.0,0.0,0.0,0.0,0.0,0.0,0.0,0.0,0.0,0.0,0.0,0.0,0.0,0.0,0.0,0.0,0.0,0.0,0.0,0.0,0.0,0.0,0.0,0.0,0.0,0.0,0.0,0.0,0.0,0.0,0.0,0.0,0.0,0.0,0.0,0.0,0.0,0.0,0.0,0.0,0.0,0.0,0.0,0.0,0.0,0.0,0.0,0.0,-2.1951,-2.2839,-2.3875,-2.4482,-2.4596,-2.471,-2.446,0.0,0.0,0.0,0.0,0.0,0.0,0.0,0.0,0.0,0.0,0.0,0.0,0.0,0.0,0.0,0.0,0.0,0.0,0.0,0.0,0.0,0.0,0.0,0.0,0.0,0.0,0.0,0.0,0.0,0.0,0.0,0.0,0.0,0.0,0.0,0.0,0.0,0.0,0.0,0.0,0.0,0.0,0.0,0.0,0.0,0.0,0.0,0.0,0.0,0.0,0.0,0.0,0.0,0.0,0.0,0.0,0.0,0.0,0.0,0.0,0.0,0.0,0.0,0.0,0.0,0.0,0.0,0.0,0.0,0.0,0.0,0.0,0.0,0.0,0.0,0.0,0.0,0.0,0.0,0.0,0.0,0.0,0.0,0.0,0.0,0.0,0.0,0.0,0.0,0.0,0.0,0.0,0.0,0.0,0.0,0.0,0.0,0.0,0.0,0.0,0.0,0.0,0.0,0.0,0.0,0.0,0.0,-2.0989,-2.2378,-2.3307,-2.4142,-2.4643,-2.491,-2.6236,-2.6245,-2.4827,0.0,0.0,0.0,0.0,0.0,0.0,0.0,0.0,0.0,0.0,0.0,0.0,0.0,0.0,0.0,0.0,0.0,0.0,0.0,0.0,0.0,0.0,0.0,0.0,0.0,0.0,0.0,0.0,0.0,0.0,0.0,0.0,0.0,0.0,0.0,0.0,0.0,0.0,-2.5215,-2.6025,0.0,0.0,0.0,0.0,0.0,0.0,0.0,0.0,-2.8154,0.0,0.0,0.0,0.0,0.0,0.0,0.0,0.0,0.0,0.0,0.0,0.0,0.0,0.0,0.0,0.0,0.0,0.0,0.0,0.0,0.0,0.0,0.0,0.0,0.0,0.0,0.0,0.0,0.0,0.0,0.0,0.0,0.0,0.0,0.0,0.0,0.0,0.0,0.0,0.0,0.0,0.0,0.0,0.0,0.0,0.0,0.0,0.0,0.0,0.0,0.0,0.0,0.0,0.0,0.0,0.0,-2.0361,-2.1203,-2.2178,-2.33,-2.3948,-2.4974,-2.635,-2.6461,-2.6736,-2.7322,0.0,0.0,0.0,0.0,0.0,0.0,0.0,0.0,0.0,0.0,0.0,0.0,0.0,0.0,0.0,0.0,0.0,0.0,0.0,0.0,0.0,0.0,0.0,0.0,0.0,0.0,0.0,0.0,0.0,0.0,0.0,0.0,0.0,0.0,0.0,0.0,0.0,0.0,0.0,-2.6914,-2.7532,0.0,0.0,0.0,0.0,0.0,0.0,0.0,0.0,-2.9033,0.0,0.0,0.0,0.0,0.0,0.0,0.0,0.0,0.0,0.0,0.0,0.0,0.0,0.0,0.0,0.0,0.0,0.0,0.0,0.0,0.0,0.0,0.0,0.0,0.0,0.0,0.0,0.0,0.0,0.0,0.0,0.0,0.0,0.0,0.0,0.0,0.0,0.0,0.0,0.0,0.0,0.0,0.0,0.0,0.0,0.0,0.0,0.0,0.0,0.0,0.0,0.0,0.0,0.0,0.0,-1.9947,-2.1169,-2.2285,-2.3293,-2.4643,-2.5768,-2.6565,-2.7693,-2.8216,0.0,0.0,0.0,0.0,0.0,0.0,0.0,0.0,0.0,0.0,0.0,0.0,0.0,0.0,0.0,0.0,0.0,0.0,0.0,0.0,0.0,0.0,0.0,0.0,0.0,0.0,0.0,0.0,0.0,0.0,0.0,0.0,0.0,0.0,0.0,0.0,0.0,0.0,0.0,0.0,-2.7451,-2.8144,-2.8648,0.0,0.0,0.0,0.0,0.0,0.0,-2.9111,-2.9394,0.0,0.0,0.0,0.0,0.0,0.0,0.0,0.0,0.0,0.0,0.0,0.0,0.0,0.0,0.0,0.0,0.0,0.0,0.0,0.0,0.0,0.0,0.0,0.0,0.0,0.0,0.0,0.0,0.0,0.0,0.0,0.0,0.0,0.0,0.0,0.0,0.0,0.0,0.0,0.0,0.0,0.0,0.0,0.0,0.0,0.0,0.0,0.0,0.0,0.0,0.0,0.0,0.0,0.0,0.0,-1.9424,-2.1583,-2.2987,-2.379,-2.5699,-2.6909,-2.723,-2.9088,-2.9429,0.0,0.0,0.0,0.0,0.0,0.0,0.0,0.0,0.0,0.0,0.0,0.0,0.0,0.0,0.0,0.0,0.0,0.0,0.0,0.0,0.0,0.0,0.0,0.0,0.0,0.0,0.0,0.0,0.0,0.0,0.0,0.0,0.0,0.0,0.0,0.0,0.0,0.0,0.0,0.0,0.0,-2.8896,-2.9482,-2.9773,0.0,0.0,0.0,0.0,-2.9355,-2.9609,0.0,0.0,0.0,0.0,0.0,0.0,0.0,0.0,0.0,0.0,0.0,0.0,0.0,0.0,0.0,0.0,0.0,0.0,0.0,0.0,0.0,0.0,0.0,0.0,0.0,0.0,0.0,0.0,0.0,0.0,0.0,0.0,0.0,0.0,0.0,0.0,0.0,0.0,0.0,0.0,0.0,0.0,0.0,0.0,0.0,0.0,0.0,0.0,0.0,0.0,0.0,0.0,0.0,0.0,0.0,0.0,-1.9492,-2.3079,-2.5039,-2.5286,-2.6941,-2.8552,-3.0044,-3.0182,-2.96,0.0,0.0,0.0,0.0,0.0,0.0,0.0,0.0,0.0,0.0,0.0,0.0,0.0,0.0,0.0,0.0,0.0,0.0,0.0,0.0,0.0,0.0,0.0,0.0,0.0,0.0,0.0,0.0,0.0,0.0,0.0,0.0,0.0,0.0,0.0,0.0,0.0,0.0,0.0,0.0,0.0,-2.9873,-2.9609,-3.0244,-3.0576,0.0,0.0,-3.0254,-3.0605,-3.0703,0.0,0.0,0.0,0.0,0.0,0.0,0.0,0.0,0.0,0.0,0.0,0.0,0.0,0.0,0.0,0.0,0.0,0.0,0.0,0.0,0.0,0.0,0.0,0.0,0.0,0.0,0.0,0.0,0.0,0.0,0.0,0.0,0.0,0.0,0.0,0.0,0.0,0.0,0.0,0.0,0.0,0.0,0.0,0.0,0.0,0.0,0.0,0.0,0.0,0.0,0.0,0.0,0.0,0.0,0.0,-2.0279,-2.0634,-2.3681,-2.5627,-2.6332,-2.7995,-2.9217,-2.9978,-2.9883,-2.9346,0.0,0.0,0.0,0.0,0.0,0.0,0.0,0.0,0.0,0.0,0.0,0.0,0.0,0.0,0.0,0.0,0.0,0.0,0.0,0.0,0.0,0.0,0.0,0.0,0.0,0.0,0.0,0.0,0.0,0.0,0.0,0.0,0.0,0.0,0.0,0.0,0.0,0.0,0.0,0.0,0.0,0.0,-3.1015,-3.1572,0.0,0.0,0.0,-3.1299,-3.125,0.0,0.0,0.0,0.0,0.0,0.0,0.0,0.0,0.0,0.0,0.0,0.0,0.0,0.0,0.0,0.0,0.0,0.0,0.0,0.0,0.0,0.0,0.0,0.0,0.0,0.0,0.0,0.0,0.0,0.0,0.0,0.0,0.0,0.0,0.0,0.0,0.0,0.0,0.0,0.0,0.0,0.0,0.0,0.0,0.0,0.0,0.0,0.0,0.0,0.0,0.0,0.0,0.0,0.0,0.0,0.0,0.0,-2.1659,-2.4753,-2.6696,-2.7277,-2.9039,-2.9972,-2.9861,-2.991,0.0,0.0,0.0,0.0,0.0,0.0,0.0,0.0,0.0,0.0,0.0,0.0,0.0,0.0,0.0,0.0,0.0,0.0,0.0,0.0,0.0,0.0,0.0,0.0,0.0,0.0,0.0,-2.1572,0.0,0.0,0.0,0.0,0.0,0.0,0.0,0.0,0.0,0.0,0.0,0.0,0.0,0.0,-3.081,-3.2002,-3.2617,-3.2949,0.0,0.0,-3.1894,-3.1562,-3.1162,-3.0654,0.0,0.0,0.0,0.0,0.0,0.0,0.0,0.0,0.0,0.0,0.0,0.0,0.0,0.0,0.0,0.0,0.0,0.0,0.0,0.0,0.0,0.0,0.0,0.0,0.0,0.0,0.0,0.0,0.0,0.0,0.0,0.0,0.0,0.0,0.0,0.0,0.0,0.0,0.0,0.0,0.0,0.0,0.0,0.0,0.0,0.0,0.0,0.0,0.0,0.0,0.0,0.0,0.0,0.0,0.0,-2.2267,-2.6847,-2.8917,-2.8352,-3.0288,-3.1189,-3.0801,-3.0791,-2.9443,0.0,0.0,0.0,0.0,0.0,0.0,0.0,0.0,0.0,0.0,0.0,0.0,0.0,0.0,0.0,0.0,0.0,0.0,0.0,0.0,0.0,0.0,0.0,0.0,0.0,0.0,0.0,0.0,0.0,0.0,0.0,0.0,0.0,0.0,0.0,0.0,0.0,0.0,0.0,0.0,0.0,-3.1172,-3.2051,-3.2861,-3.3379,0.0,0.0,-3.1553,-3.1464,-3.1162,-3.0459,-2.9219,0.0,0.0,0.0,0.0,0.0,0.0,0.0,0.0,0.0,0.0,0.0,0.0,0.0,0.0,0.0,0.0,0.0,0.0,0.0,0.0,0.0,0.0,0.0,0.0,0.0,0.0,0.0,0.0,0.0,0.0,0.0,0.0,0.0,0.0,0.0,0.0,0.0,0.0,0.0,0.0,0.0,0.0,0.0,0.0,0.0,0.0,0.0,0.0,0.0,0.0,0.0,0.0,0.0,-2.3832,-2.3656,-2.7519,-2.9436,-2.9174,-3.018,-3.0635,-3.0469,-2.9961,-2.8896,0.0,0.0,0.0,0.0,0.0,0.0,0.0,0.0,0.0,0.0,0.0,0.0,0.0,0.0,0.0,0.0,0.0,0.0,0.0,0.0,0.0,0.0,0.0,0.0,0.0,0.0,0.0,0.0,-2.3682,-2.3857,-2.4333,0.0,0.0,0.0,0.0,0.0,0.0,0.0,0.0,0.0,0.0,-3.168,-3.2783,-3.3223,0.0,0.0,-3.2568,-3.1914,-3.1914,-3.1103,-3.0205,-2.9443,-2.8184,0.0,0.0,0.0,0.0,0.0,0.0,0.0,0.0,0.0,0.0,0.0,0.0,0.0,0.0,0.0,0.0,0.0,0.0,0.0,0.0,0.0,0.0,0.0,0.0,0.0,0.0,0.0,0.0,0.0,0.0,0.0,0.0,0.0,0.0,0.0,0.0,0.0,0.0,0.0,0.0,0.0,0.0,0.0,0.0,0.0,0.0,0.0,0.0,0.0,0.0,0.0,0.0,-2.4737,-2.5047,-2.808,-2.9512,-2.9385,-2.9912,-3.0068,-2.9805,-2.9228,-2.8457,0.0,0.0,0.0,0.0,0.0,0.0,0.0,0.0,0.0,0.0,0.0,0.0,0.0,0.0,0.0,0.0,0.0,0.0,0.0,0.0,0.0,0.0,0.0,0.0,0.0,0.0,0.0,0.0,-2.4446,-2.4482,-2.4668,0.0,0.0,0.0,0.0,0.0,0.0,0.0,0.0,0.0,0.0,-3.1943,-3.3066,-3.3232,-3.3242,-3.3242,-3.251,-3.1885,-3.1621,-3.1306,-3.0794,-2.9779,0.0,0.0,0.0,0.0,0.0,0.0,0.0,0.0,0.0,0.0,0.0,0.0,0.0,0.0,0.0,0.0,0.0,0.0,0.0,0.0,0.0,0.0,0.0,0.0,0.0,0.0,0.0,0.0,0.0,0.0,0.0,0.0,0.0,0.0,0.0,0.0,0.0,0.0,0.0,0.0,0.0,0.0,0.0,0.0,0.0,0.0,0.0,0.0,0.0,0.0,0.0,0.0,0.0,-2.5478,-2.6347,-2.8476,-2.9355,-2.8965,-2.9756,-2.9785,-2.9004,-2.8926,-2.832,-2.708,0.0,0.0,0.0,0.0,0.0,0.0,0.0,0.0,0.0,0.0,0.0,0.0,0.0,0.0,0.0,0.0,0.0,0.0,0.0,0.0,0.0,0.0,0.0,0.0,0.0,0.0,-2.499,-2.4668,-2.4268,0.0,0.0,0.0,0.0,0.0,0.0,0.0,0.0,0.0,0.0,-3.0703,-3.1836,-3.2685,-3.2793,-3.2793,-3.2865,-3.2141,-3.125,-3.0554,-3.1978,-3.2411,0.0,0.0,0.0,0.0,0.0,0.0,0.0,0.0,0.0,0.0,0.0,0.0,0.0,0.0,0.0,0.0,0.0,0.0,0.0,0.0,0.0,0.0,0.0,0.0,0.0,0.0,0.0,0.0,-1.8163,0.0,0.0,0.0,0.0,0.0,0.0,0.0,0.0,0.0,0.0,0.0,-2.4108,-2.5528,0.0,0.0,0.0,0.0,0.0,0.0,0.0,0.0,0.0,0.0,0.0,0.0,-2.5546,-2.6426,-2.8193,-2.8935,-2.8535,-2.9053,-2.9209,-2.8926,-2.8643,-2.8037,-2.7041,0.0,0.0,0.0,0.0,0.0,0.0,0.0,0.0,0.0,0.0,0.0,0.0,0.0,0.0,0.0,0.0,0.0,0.0,0.0,0.0,0.0,0.0,0.0,0.0,0.0,-2.4912,0.0,0.0,0.0,0.0,0.0,0.0,0.0,0.0,0.0,0.0,0.0,-3.0366,-3.0427,-3.1318,-3.2051,-3.2344,-3.2129,-3.2394,0.0,0.0,0.0,0.0,0.0,0.0,0.0,0.0,0.0,0.0,0.0,0.0,0.0,0.0,-3.7174,-3.5295,-3.4261,-3.3684,-3.3859,0.0,0.0,0.0,0.0,0.0,0.0,0.0,0.0,0.0,0.0,0.0,0.0,0.0,0.0,0.0,0.0,-1.9161,0.0,0.0,0.0,0.0,0.0,0.0,0.0,0.0,-2.4219,-2.5151,-2.6026,-2.7444,-2.7734,0.0,-2.7197,-2.667,0.0,0.0,0.0,0.0,0.0,0.0,0.0,0.0,-2.5879,-2.6641,-2.8135,-2.8711,-2.833,-2.8701,-2.8848,-2.8711,-2.8437,-2.7959,-2.7256,-2.6476,-2.5898,0.0,0.0,0.0,0.0,0.0,0.0,0.0,0.0,0.0,0.0,0.0,0.0,0.0,0.0,0.0,0.0,0.0,0.0,0.0,0.0,0.0,0.0,0.0,-2.5916,0.0,0.0,0.0,0.0,0.0,0.0,0.0,0.0,0.0,-2.9122,-3.125,-3.2891,-3.2778,-3.3358,-3.3721,-3.3567,0.0,0.0,0.0,0.0,0.0,0.0,0.0,-3.6002,-3.5569,-3.541,-3.5553,-3.6474,-3.8064,-3.8919,-3.8153,0.0,0.0,-3.6496,-3.5403,-3.4813,-3.5002,-3.4738,-3.4638,-3.5177,-3.514,-3.4956,0.0,0.0,0.0,0.0,0.0,0.0,0.0,0.0,-1.988,-2.008,0.0,-2.1088,0.0,0.0,0.0,0.0,0.0,0.0,0.0,0.0,-2.7555,-2.8423,-2.7793,-2.8545,-2.8721,-2.835,-2.8691,-2.8437,-2.762,-2.6016,0.0,0.0,0.0,0.0,0.0,0.0,-2.6602,-2.706,-2.8262,-2.8691,-2.832,-2.8682,-2.8701,-2.832,-2.8301,-2.8105,-2.7757,-2.7689,-2.707,-2.5791,-2.5332,0.0,0.0,0.0,0.0,0.0,0.0,0.0,0.0,0.0,0.0,0.0,0.0,0.0,0.0,0.0,0.0,0.0,0.0,0.0,0.0,-2.7069,0.0,0.0,0.0,0.0,0.0,0.0,0.0,0.0,0.0,0.0,-3.1898,-3.3864,-3.5732,-3.6184,0.0,0.0,0.0,0.0,-3.6095,-3.6151,-3.659,-3.6827,-3.6555,-3.7968,-3.8592,-3.7147,0.0,0.0,-3.9032,-3.9283,-3.9245,-3.8216,-3.8429,-3.8869,-3.8718,-3.7398,-3.6556,-3.691,-3.6194,-3.5793,-3.6169,-3.5881,-3.552,-2.1209,0.0,0.0,0.0,0.0,-2.0267,-2.065,-2.1132,-2.1269,-2.1727,-2.2258,-2.252,0.0,0.0,0.0,0.0,0.0,0.0,-2.6021,-2.7328,-2.7142,-2.7611,-2.8574,-2.9131,-2.916,-2.875,-2.8857,-2.8486,-2.7676,-2.7219,-2.6396,-2.5333,0.0,0.0,0.0,0.0,-2.6748,-2.7471,-2.8144,-2.8418,-2.8301,-2.8418,-2.8418,-2.8301,-2.8301,-2.8242,-2.8115,-2.7832,-2.7353,-2.668,-2.5947,0.0,0.0,0.0,0.0,0.0,0.0,0.0,0.0,0.0,0.0,0.0,0.0,0.0,0.0,0.0,0.0,0.0,0.0,0.0,-2.5365,-2.7239,-2.8351,0.0,0.0,0.0,0.0,0.0,0.0,0.0,0.0,0.0,-3.5905,-3.637,-3.6757,0.0,0.0,-3.5983,-3.5568,-3.5859,-3.6475,-3.7527,0.0,0.0,0.0,-3.9664,-3.9523,-3.9436,-3.9389,-3.9233,-3.8969,-3.8655,-3.8379,-3.804,-3.7801,-3.7663,-3.7651,-3.7312,-3.6872,-3.6681,-3.638,-3.6169,-3.6355,-3.6267,-3.6119,-2.2184,-2.1574,-2.1162,-2.1085,-2.1099,-2.1149,-2.1463,-2.1911,-2.2078,-2.2494,-2.3077,-2.3991,-2.4007,-2.3376,-2.4667,0.0,0.0,0.0,-2.7501,-2.8501,-2.7874,-2.7967,-2.8647,-2.9101,-2.9092,-2.8682,-2.8672,-2.8408,-2.791,-2.7963,-2.7432,-2.6533,0.0,0.0,-2.621,-2.668,-2.706,-2.7412,-2.7822,-2.7959,-2.7803,-2.7793,-2.7871,-2.8037,-2.8047,-2.8125,-2.8281,-2.7891,-2.7461,-2.7031,-2.6367,-2.5586,0.0,0.0,0.0,0.0,0.0,0.0,0.0,0.0,0.0,0.0,0.0,-2.5564,0.0,0.0,0.0,0.0,-2.6539,-2.696,-2.7421,-2.9442,0.0,0.0,0.0,0.0,0.0,0.0,0.0,-3.505,-3.6609,-3.7883,-3.8672,-3.8494,-3.8322,-3.8504,-3.8075,-3.7641,-3.7402,0.0,-3.8153,-3.9043,-3.9667,-4.0293,-4.1155,-4.0601,-3.9998,-3.986,-3.9132,-3.8555,-3.8517,-3.8228,-3.7939,-3.7701,-3.74,-3.7111,-3.6945,-3.6908,-3.682,-3.648,-3.6417,-3.6417,-3.6417,-3.6417,-3.6367,-2.2866,-2.2861,-2.2057,-2.1722,-2.1748,-2.1944,-2.2205,-2.2445,-2.2458,-2.2721,-2.3426,-2.5521,-2.5638,-2.4286,-2.5848,0.0,0.0,-2.8454,-2.9004,-2.8984,-2.9355,-2.9082,-2.833,-2.8682,-2.8662,-2.8301,-2.8301,-2.8301,-2.8291,-2.8291,-2.8096,-2.7767,-2.7314,-2.71,-2.709,-2.7474,-2.7432,-2.708,-2.7432,-2.7422,-2.7031,-2.7012,-2.7207,-2.766,-2.766,-2.7793,-2.8154,-2.7812,-2.7412,-2.6982,-2.6692,-2.6182,-2.5287,0.0,0.0,0.0,0.0,0.0,0.0,0.0,0.0,0.0,0.0,0.0,0.0,0.0,0.0,0.0,-3.0373,0.0,-3.114,-3.2804,0.0,0.0,0.0,-3.4799,-3.4979,-3.6826,-3.809,-3.814,0.0,0.0,0.0,0.0,-4.0049,-4.0962,-4.0686,-4.045,-4.045,-4.0358,-4.0501,-4.032,-4.0862,-4.1175,-4.0924,-4.0513,-3.9835,-3.8994,-3.8316,-3.7965,-3.7927,-3.7839,-3.7651,-3.7199,-3.7111,-3.7021,-3.6505,-3.6455,-3.6417,-3.6417,-3.6417,-3.6417,-3.6405,-3.6355,-3.6119,-2.2866,-2.2914,-2.2707,-2.2552,-2.2619,-2.2625,-2.2699,-2.2752,-2.2752,-2.4125,-2.643,-2.702,-2.7931,-2.9198,-2.926,-2.9334,-2.943,-2.9779,-2.9726,-2.9414,-2.918,-2.8789,-2.831,-2.8398,-2.8389,-2.8301,-2.8301,-2.8301,-2.8301,-2.8301,-2.8242,-2.8135,-2.8047,-2.7832,-2.7519,-2.7285,-2.7285,-2.751,-2.7285,-2.7119,-2.7021,-2.7012,-2.706,-2.7168,-2.7178,-2.7207,-2.7314,-2.7226,-2.6973,-2.6613,-2.7328,-2.7383,-2.6522,-2.6605,0.0,0.0,0.0,0.0,0.0,0.0,0.0,0.0,0.0,-2.7568,-2.6098,0.0,-2.8812,0.0,-3.2374,-3.331,-3.1854,-3.415,0.0,0.0,-3.6505,-3.7233,-3.8885,-3.8842,-3.8831,-3.9245,-3.9534,-3.9747,-3.9873,-3.9772,-3.9622,-3.9496,-3.971,-3.9885,-3.9898,-4.0262,-4.0362,-4.0011,-4.0325,-4.04,-3.9622,-3.8969,-3.853,-3.8253,-3.7751,-3.7387,-3.7374,-3.7071,-3.6709,-3.6619,-3.6606,-3.6543,-3.6417,-3.6417,-3.6405,-3.6417,-3.6417,-3.6417,-3.6405,-3.6044,-3.5658,-2.2866,-2.2866,-2.2866,-2.2866,-2.2866,-2.2866,-2.2866,-2.2928,-2.372,-2.5018,-2.6664,-2.7841,-2.9321,-3.084,-3.0625,-3.0498,-3.0508,-3.0508,-3.0176,-2.9616,-2.9316,-2.8887,-2.8301,-2.8301,-2.8301,-2.8301,-2.8301,-2.8193,-2.8027,-2.8008,-2.792,-2.7734,-2.7725,-2.7607,-2.7383,-2.7324,-2.7236,-2.71,-2.666,-2.6445,-2.6455,-2.6445,-2.6533,-2.6728,-2.6728,-2.7059,-2.7774,-2.7643,-2.7351,-2.6976,-2.7349,-2.7421,-2.6953,-2.7086,-2.7683,0.0,0.0,0.0,0.0,0.0,0.0,0.0,0.0,0.0,0.0,0.0,-3.0522,0.0,-3.3802,0.0,-3.3924,-3.6064,-3.7692,-3.8123,-3.8252,-3.8793,-4.0023,-3.9622,-3.9358,-3.9659,-3.9697,-3.9609,-3.9371,-3.9333,-3.912,-3.8555,-3.8743,-3.8944,-3.8956,-3.922,-3.9283,-3.9007,-3.9207,-3.922,-3.8542,-3.8015,-3.7638,-3.76,-3.7186,-3.687,-3.6797,-3.637,-3.6069,-3.6317,-3.6028,-3.5717,-3.5931,-3.5768,-3.5629,-3.5629,-3.5629,-3.5717,-3.5943,-3.5742,-3.5408,-2.2866,-2.2866,-2.2866,-2.2866,-2.2866,-2.2887,-2.2874,-2.2936,-2.4615,-2.5583,-2.6136,-2.863,-3.0218,-3.0976,-3.0918,-3.0898,-3.0898,-3.0898,-3.041,-2.959,-2.958,-2.9121,-2.831,-2.8301,-2.8301,-2.8301,-2.8301,-2.8105,-2.7796,-2.7695,-2.7523,-2.7109,-2.7041,-2.6992,-2.6953,-2.7314,-2.7161,-2.6318,-2.5937,-2.5684,-2.5684,-2.5684,-2.5918,-2.6279,-2.6497,-2.7241,-2.8536,-2.8473,-2.8179,-2.7835,-2.7608,-2.7465,-2.7444,-2.7633,-2.8399,0.0,-2.9875,0.0,0.0,0.0,0.0,0.0,0.0,0.0,0.0,-3.2629,-3.2497,-3.2354,-3.4895,-3.645,-3.636,-3.7827,-3.9032,-3.9521,-3.9521,-3.9496,-3.9572,-3.9534,-3.9484,-3.9471,-3.9484,-3.9283,-3.8843,-3.8806,-3.8542,-3.8015,-3.7927,-3.7914,-3.7826,-3.7977,-3.8115,-3.8002,-3.7939,-3.8002,-3.7877,-3.7437,-3.7036,-3.6948,-3.6571,-3.6279,-3.6179,-3.5755,-3.5545,-3.5906,-3.5378,-3.4906,-3.532,-3.5006,-3.4731,-3.4768,-3.4813,-3.4906,-3.5257,-3.527,-3.4969,-2.2866,-2.2866,-2.2866,-2.2866,-2.2908,-2.2605,-2.2505,-2.262,-2.3999,-2.6191,-2.883,-3.0405,-3.1244,-3.1377,-3.1045,-3.0898,-3.0898,-3.0898,-3.042,-2.958,-2.958,-2.9121,-2.832,-2.8301,-2.8301,-2.8301,-2.8301,-2.8252,-2.8164,-2.7885,-2.7679,-2.7591,-2.7187,-2.6836,0.0,0.0,0.0,0.0,-2.5732,-2.5684,-2.5684,-2.5684,-2.5732,-2.585,-2.6838,0.0,-2.783,-2.8679,-2.9139,-2.9085,-2.9908,0.0,0.0,0.0,0.0,0.0,0.0,0.0,0.0,0.0,0.0,0.0,-3.2399,-3.2728,-3.1893,-3.3642,-3.483,-3.4854,-3.6183,-3.705,-3.7007,-3.7679,-3.8391,-3.8931,-3.8605,-3.8504,-3.8982,-3.863,-3.8316,-3.8329,-3.8329,-3.8291,-3.8203,-3.8178,-3.7965,-3.7437,-3.7337,-3.7149,-3.6795,-3.7412,-3.7965,-3.7977,-3.76,-3.7349,-3.7337,-3.6872,-3.637,-3.5981,-3.5759,-3.5542,-3.5177,-3.4989,-3.4843,-3.5077,-3.4851,-3.4668,-3.4818,-3.4788,-3.465,-3.4668,-3.4655,-3.4705,-3.4806,-3.4525,-3.4161,-2.2866,0.0,-2.2866,-2.2779,0.0,-2.2331,-2.2574,-2.3333,-2.499,-2.7541,-3.0499,-3.1173,-3.1406,-3.1201,-3.0986,-3.0762,-3.0547,-3.0547,-3.0078,-2.9268,-2.9248,-2.8906,-2.8301,-2.8301,-2.8301,-2.8301,-2.8301,-2.8076,-2.7666,-2.7441,-2.7129,-2.6709,-2.6494,-2.6279,-2.6074,-2.6064,-2.5908,-2.5693,-2.5684,-2.5684,-2.5732,-2.6304,-2.6668,-2.6668,0.0,0.0,0.0,0.0,0.0,0.0,0.0,0.0,0.0,0.0,0.0,-3.2173,-3.1976,-3.1564,-3.108,-3.2008,-3.261,-3.2663,-3.3923,-3.4304,-3.3465,-3.4968,-3.6056,-3.6332,-3.6872,-3.7299,-3.7575,-3.7839,-3.8128,-3.8379,-3.8178,-3.814,-3.8354,-3.8191,-3.8002,-3.8002,-3.8002,-3.7927,-3.7626,-3.76,-3.7374,-3.6908,-3.6533,-3.6282,-3.6094,-3.6659,-3.7186,-3.7186,-3.6998,-3.6684,-3.6408,-3.6169,-3.5768,-3.5245,-3.5094,-3.4981,-3.4731,-3.4487,-3.4399,-3.46,-3.4299,-3.3985,-3.4248,-3.4098,-3.3909,-3.3909,-3.3909,-3.3909,-3.3922,-3.3897,-3.3796,-2.2866,-2.2866,-2.2866,-2.2719,-2.2478,-2.2184,-2.2946,-2.4558,0.0,0.0,0.0,-3.1406,-3.1221,-3.0889,-3.0801,-3.0557,-3.0205,-3.0117,-2.9658,-2.8926,-2.8926,-2.8701,-2.8301,-2.8301,-2.8301,-2.8291,-2.8223,-2.7822,-2.7139,-2.6982,-2.6543,-2.5859,-2.5723,-2.5684,-2.5732,-2.5917,-2.6014,-2.6014,-2.6014,-2.6149,-2.638,-2.7352,-2.7919,-2.7908,-2.9085,-3.0169,-3.1178,-3.1412,-3.1384,-3.1074,-3.105,-3.105,-3.105,-3.1038,-3.1656,-3.2988,-3.3124,-3.3124,-3.3136,-3.3583,-3.3947,-3.4035,-3.4831,-3.5433,-3.5621,-3.6094,-3.6593,-3.6998,-3.7036,-3.7224,-3.7663,-3.7713,-3.7713,-3.7713,-3.7713,-3.7701,-3.7713,-3.7713,-3.7651,-3.7713,-3.7663,-3.755,-3.7098,-3.6923,-3.6734,-3.627,-3.5768,-3.5357,-3.5408,-3.578,-3.6069,-3.6069,-3.6019,-3.5893,-3.5495,-3.537,-3.5132,-3.4643,-3.4575,-3.455,-3.4387,-3.4048,-3.3972,-3.4261,-3.3646,-3.3407,-3.3621,-3.3445,-3.3136,-3.3124,-3.3124,-3.3074,-3.2993,-3.3269,-3.3395,-2.2866,-2.2866,-2.2866,-2.2901,-2.2772,-2.2478,-2.3768,-2.6132,-2.76,-2.9236,-3.0976,-3.0976,-3.0947,-3.0879,-3.0469,-3.0254,-3.0176,-2.9824,-2.9385,0.0,-2.8926,-2.8691,-2.8301,-2.8301,-2.8301,-2.8262,-2.7982,-2.7685,-2.75,-2.6836,-2.6396,-2.626,-2.5879,-2.5684,-2.5771,-2.6802,-2.7315,-2.7305,-2.7352,-2.7814,-2.8866,-2.905,-2.9131,-2.9189,-3.0305,-3.1,-3.1223,-3.2239,-3.2815,-3.2741,-3.2728,-3.2728,-3.2771,-3.2716,-3.2852,-3.3068,-3.3124,-3.3124,-3.3136,-3.3583,-3.4098,-3.455,-3.4718,-3.524,-3.6191,-3.6367,-3.6443,-3.6518,-3.6505,-3.6543,-3.6631,-3.6584,-3.6644,-3.6631,-3.6644,-3.6631,-3.6644,-3.6631,-3.6644,-3.6631,-3.6644,-3.6584,-3.648,-3.6081,-3.5746,-3.5558,-3.5177,-3.4781,-3.4813,-3.4901,-3.4951,-3.4951,-3.4951,-3.4868,-3.4818,-3.4839,-3.4555,-3.4098,-3.4022,-3.3884,-3.3508,-3.3357,-3.3319,-3.3375,-3.3206,-3.3199,-3.3275,-3.3187,-3.3099,-3.3086,-3.3048,-3.2893,-3.2453,-3.2416,-3.2428,-2.2866,-2.2866,-2.2866,-2.2772,-2.2721,-2.3992,-2.5818,-2.7922,-2.9204,-3.0147,-3.0889,-3.0898,-3.0898,-3.085,-3.04,-3.0068,-2.9834,-2.9414,-2.8984,-2.8594,-2.8574,-2.8476,-2.8301,-2.8301,-2.8174,-2.8012,-2.7816,-2.7474,-2.7024,-2.6572,-2.6269,-2.6035,-2.583,-2.5684,-2.5771,-2.6993,-2.7908,-2.8541,-2.8588,-2.8855,-2.9407,-3.0033,-3.0361,-3.0361,-3.1601,-3.2227,-3.2239,-3.2797,-3.3124,-3.3124,-3.3124,-3.3124,-3.3124,-3.3124,-3.3124,-3.3124,-3.3124,-3.3124,-3.3124,-3.3596,-3.4135,-3.4675,-3.468,-3.4926,-3.5429,-3.5479,-3.5466,-3.5479,-3.5466,-3.5466,-3.5479,-3.5466,-3.5479,-3.5466,-3.5479,-3.5479,-3.5466,-3.5466,-3.5466,-3.5466,-3.5479,-3.5479,-3.5479,-3.5253,-3.5056,-3.5019,-3.4613,-3.4186,-3.3909,-3.3847,-3.4073,-3.4587,-3.468,-3.4575,-3.4349,-3.4274,-3.4035,-3.3545,-3.3458,-3.3345,-3.3149,-3.3124,-3.3124,-3.3124,-3.3124,-3.3124,-3.3111,-3.3124,-3.2968,-3.2641,-3.2604,-3.2378,-3.1926,-3.1562,-3.1461,-2.2866,-2.2866,-2.2866,-2.2991,-2.3317,-2.5556,-2.7523,-2.9225,-3.0377,-3.0898,-3.0898,-3.0898,-3.084,-3.0693,-3.0254,-2.9824,-2.9404,-2.8975,-2.8613,-2.832,-2.8301,-2.8301,-2.8281,-2.8203,-2.7978,-2.7708,-2.7532,-2.7092,-2.6445,-2.6299,-2.6074,-2.5713,-2.5684,-2.5684,-2.5742,-2.7268,-2.8459,-2.9361,-2.9954,-3.0226,-3.0271,-3.1134,-3.1633,-3.1689,-3.2556,-3.3124,-3.3124,-3.3124,-3.3124,-3.3124,-3.3124,-3.3124,-3.3124,-3.3124,-3.3124,-3.3124,-3.3124,-3.3124,-3.3149,-3.347,-3.3884,-3.4311,-3.4349,-3.4349,-3.4361,-3.4349,-3.4474,-3.463,-3.4731,-3.4718,-3.4743,-3.4718,-3.468,-3.468,-3.468,-3.4743,-3.4693,-3.468,-3.468,-3.468,-3.468,-3.4705,-3.4668,-3.4613,-3.4487,-3.4299,-3.3972,-3.3545,-3.3212,-3.3124,-3.3483,-3.4035,-3.4361,-3.4161,-3.3784,-3.3721,-3.3545,-3.3162,-3.3149,-3.3149,-3.3124,-3.3124,-3.3124,-3.3124,-3.3124,-3.3036,-3.2918,-3.2855,-3.2616,-3.2177,-3.2026,-3.1851,-3.1336,-3.0821,-3.0721,-2.2866,-2.2866,-2.2866,-2.3849,-2.5182,-2.6383,-2.7852,-2.9507,-3.0501,-3.0898,-3.0898,-3.0889,-3.0644,-3.0244,-2.9824,-2.9414,-2.8984,-2.8545,-2.833,-2.8301,-2.8301,-2.8291,-2.8242,-2.791,-2.7757,-2.7601,-2.6904,-2.6514,-2.6348,-2.5937,-2.5732,-2.5684,-2.5684,-2.5684,-2.5965,-2.8028,-2.9269,-2.9453,-3.1601,-3.2754,-3.2742,-3.2884,-3.2939,-3.2927,-3.3025,-3.3124,-3.3124,-3.3124,-3.3124,-3.3124,-3.3124,-3.3124,-3.3124,-3.3124,-3.3124,-3.3124,-3.3124,-3.3124,-3.3124,-3.3131,-3.325,-3.3262,-3.3294,-3.3282,-3.3325,-3.3312,-3.3671,-3.4399,-3.4643,-3.4593,-3.468,-3.4663,-3.4613,-3.453,-3.4568,-3.468,-3.4605,-3.468,-3.468,-3.468,-3.46,-3.4668,-3.455,-3.4236,-3.3809,-3.3458,-3.3345,-3.3275,-3.3162,-3.3124,-3.3136,-3.3257,-3.33,-3.3325,-3.325,-3.3212,-3.3224,-3.3136,-3.3124,-3.3124,-3.3124,-3.3124,-3.3111,-3.296,-3.3048,-3.2842,-3.2453,-3.2277,-3.2102,-3.1625,-3.1411,-3.1273,-3.0783,-3.0294,-3.0319,-2.2866,-2.2866,-2.2866,-2.3924,-2.5576,-2.6776,-2.8107,-2.9545,-3.0768,-3.1123,-3.0859,-3.0605,-3.0371,-3.0166,-2.9756,-2.9336,-2.8906,-2.8486,-2.8301,-2.8301,-2.8291,-2.8164,-2.7963,-2.7816,-2.7464,-2.6934,-2.6553,-2.625,-2.6016,-2.582,-2.5684,-2.5684,-2.5684,-2.5684,-2.5917,-2.8168,-2.9396,-2.9442,-3.1833,-3.3124,-3.3124,-3.3124,-3.3124,-3.3124,-3.3124,-3.3124,-3.3124,-3.3124,-3.3124,-3.3124,-3.3124,-3.3124,-3.3124,-3.3124,-3.3124,-3.3124,-3.3124,-3.3124,-3.3124,-3.3124,-3.3124,-3.3124,-3.3124,-3.3124,-3.3124,-3.3124,-3.3294,-3.3646,-3.3759,-3.3759,-3.3771,-3.3746,-3.3746,-3.3746,-3.3746,-3.3759,-3.3746,-3.3759,-3.3759,-3.3746,-3.3759,-3.3759,-3.3734,-3.3558,-3.3319,-3.3149,-3.3124,-3.3124,-3.3124,-3.3124,-3.3124,-3.3124,-3.3124,-3.3124,-3.3124,-3.3124,-3.3111,-3.3111,-3.3124,-3.3124,-3.3074,-3.3124,-3.3036,-3.2641,-3.2579,-3.2365,-3.1825,-3.1712,-3.1562,-3.1097,-3.0595,-3.0357,-3.0168,-2.9955,-3.0068,-2.2866,-2.2866,-2.2866,-2.3924,-2.5606,-2.6824,-2.815,-2.9545,-3.0835,-3.1172,-3.0869,-3.0537,-3.0244,-2.998,-2.959,-2.916,-2.874,-2.8428,-2.8301,-2.8301,-2.8301,-2.8119,-2.7685,-2.7581,-2.7109,-2.6465,-2.626,-2.6045,-2.5713,-2.5684,-2.5684,-2.5684,-2.5684,-2.5684,-2.5927,-2.7898,-2.9096,-2.9544,-3.1557,-3.2754,-3.3025,-3.3124,-3.3124,-3.3124,-3.3124,-3.3124,-3.3124,-3.3124,-3.3124,-3.3124,-3.3124,-3.3124,-3.3124,-3.3124,-3.3124,-3.3124,-3.3124,-3.3124,-3.3124,-3.3124,-3.3124,-3.3124,-3.3124,-3.3124,-3.3124,-3.3124,-3.3124,-3.3162,-3.3124,-3.3162,-3.3124,-3.3124,-3.3124,-3.3124,-3.3124,-3.3124,-3.3149,-3.3124,-3.3162,-3.3124,-3.3237,-3.3124,-3.3136,-3.3149,-3.3136,-3.3136,-3.3124,-3.3124,-3.3124,-3.3124,-3.3086,-3.2867,-3.2872,-3.2905,-3.3018,-3.288,-3.288,-3.278,-3.2704,-3.2558,-3.2616,-3.2604,-3.2621,-3.2026,-3.2001,-3.18,-3.1323,-3.1148,-3.1009,-3.0507,-3.008,-2.9817,-2.9867,-2.9792,-2.9779,-2.2866,-2.2866,-2.2866,-2.3856,-2.5532,-2.6543,-2.7874,-2.943,-3.0498,-3.0918,-3.0898,-3.0801,-3.0381,-2.9665,-2.916,-2.8721,-2.8369,-2.831,-2.8301,-2.8291,-2.8271,-2.8066,-2.7656,-2.7236,-2.6807,-2.6328,-2.5986,-2.5742,-2.5684,-2.5684,-2.5684,-2.5684,-2.5684,-2.5684,-2.5917,-2.7173,-2.8319,-2.9442,-3.0822,-3.1952,-3.2939,-3.3124,-3.3124,-3.3124,-3.3124,-3.3124,-3.3124,-3.3124,-3.3124,-3.3124,-3.3124,-3.3124,-3.3124,-3.3124,-3.3124,-3.3124,-3.3124,-3.3124,-3.3124,-3.3124,-3.3124,-3.3124,-3.3124,-3.3124,-3.3124,-3.3124,-3.3124,-3.3124,-3.3124,-3.3124,-3.3124,-3.3124,-3.3124,-3.3124,-3.3124,-3.3124,-3.3124,-3.3124,-3.3124,-3.3124,-3.3124,-3.3124,-3.3124,-3.3124,-3.3061,-3.3048,-3.3086,-3.3023,-3.2905,-3.3011,-3.2797,-3.2403,-3.229,-3.2441,-3.2867,-3.2579,-3.229,-3.2215,-3.1989,-3.1612,-3.1499,-3.1449,-3.1461,-3.1461,-3.1449,-3.1248,-3.0821,-3.0532,-3.0357,-3.0055,-2.9842,-2.9666,-2.939,-2.9666,-2.9603,-2.2866,-2.2866,-2.2866,-2.3263,-2.4078,-2.6278,-2.7497,-2.8057,-3.0297,-3.1133,-3.081,-3.0303,-2.9863,-2.9587,-2.8828,-2.8437,-2.8301,-2.8301,-2.8301,-2.8262,-2.8018,-2.7666,-2.7236,-2.6816,-2.6396,-2.5996,-2.5771,-2.5684,-2.5684,-2.5684,-2.5684,-2.5684,-2.5684,-2.5684,-2.6062,-2.7767,-2.8993,-2.9544,-3.1368,-3.2655,-3.3038,-3.3124,-3.3124,-3.3124,-3.3124,-3.3124,-3.3124,-3.3124,-3.3124,-3.3124,-3.3124,-3.3124,-3.3124,-3.3124,-3.3124,-3.3124,-3.3124,-3.3124,-3.3124,-3.3124,-3.3124,-3.3124,-3.3124,-3.3124,-3.3124,-3.3124,-3.3124,-3.3124,-3.3124,-3.3124,-3.3124,-3.3124,-3.3124,-3.3124,-3.3124,-3.3124,-3.3124,-3.3124,-3.3124,-3.3124,-3.3124,-3.3124,-3.2986,-3.2767,-3.2528,-3.2478,-3.2227,-3.2106,-3.2043,-3.2014,-3.1964,-3.1763,-3.1687,-3.175,-3.1913,-3.1863,-3.1687,-3.165,-3.1524,-3.1449,-3.1348,-3.126,-3.1286,-3.0947,-3.0896,-3.067,-3.0269,-3.0055,-2.9829,-2.944,-2.9252,-2.9114,-2.8775,-2.8976,-2.8888,-2.2866,-2.2866,-2.2866,-2.2806,-2.3147,-2.5986,-2.712,-2.7135,-2.9948,-3.1162,-3.0771,-3.0098,-2.9707,-2.9473,-2.8809,-2.8398,-2.8301,-2.8301,-2.8301,-2.8252,-2.7861,-2.7432,-2.7002,-2.6582,-2.6162,-2.5742,-2.5684,-2.5684,-2.5684,-2.5684,-2.5684,-2.5684,-2.5684,-2.5684,-2.6052,-2.7804,-2.8958,-2.9681,-3.1468,-3.2655,-3.3038,-3.3124,-3.3124,-3.3124,-3.3124,-3.3124,-3.3124,-3.3124,-3.3124,-3.3124,-3.3124,-3.3124,-3.3124,-3.3124,-3.3124,-3.3124,-3.3124,-3.3124,-3.3124,-3.3124,-3.3124,-3.3124,-3.3124,-3.3124,-3.3124,-3.3124,-3.3124,-3.3124,-3.3124,-3.3124,-3.3124,-3.3124,-3.3124,-3.3124,-3.3124,-3.3124,-3.3124,-3.3124,-3.2968,-3.2805,-3.2754,-3.2704,-3.2528,-3.2177,-3.1989,-3.1951,-3.1599,-3.1399,-3.1386,-3.1386,-3.1298,-3.1173,-3.1148,-3.1022,-3.0972,-3.0821,-3.1022,-3.1047,-3.0884,-3.0934,-3.0984,-3.0959,-3.0821,-3.0482,-3.0218,-3.0005,-2.9792,-2.9578,-2.9214,-2.875,-2.8662,-2.8586,-2.8373,-2.821,-2.8344,-2.2866,-2.2866,-2.2866,-2.2706,-2.2895,-2.5496,-2.664,-2.6963,-2.9498,-3.0713,-3.0674,-3.0322,-2.9844,-2.9492,-2.8984,-2.8643,-2.835,-2.8301,-2.8301,-2.8252,-2.7822,-2.7402,-2.7002,-2.6533,-2.6123,-2.5703,-2.5684,-2.5684,-2.5684,-2.5684,-2.5684,-2.5684,-2.5684,-2.5684,-2.5684,-2.722,-2.8355,-2.9498,-3.0855,-3.2008,-3.2927,-3.3124,-3.3124,-3.3124,-3.3124,-3.3124,-3.3124,-3.3124,-3.3124,-3.3124,-3.3124,-3.3124,-3.3124,-3.3124,-3.3124,-3.3124,-3.3124,-3.3124,-3.3124,-3.3124,-3.3124,-3.3124,-3.3124,-3.3124,-3.3124,-3.3124,-3.3124,-3.3124,-3.3124,-3.3124,-3.3124,-3.3124,-3.3124,-3.3124,-3.3124,-3.3124,-3.3124,-3.3056,-3.2855,-3.239,-3.2252,-3.1976,-3.1587,-3.1424,-3.1386,-3.1373,-3.126,-3.116,-3.111,-3.111,-3.106,-3.0758,-3.0595,-3.0495,-3.0143,-2.9842,-3.0181,-3.0407,-3.0193,-3.0093,-3.0156,-3.0156,-3.0043,-2.9715,-2.9553,-2.934,-2.9114,-2.89,-2.8649,-2.831,-2.8222,-2.8021,-2.7819,-2.7763,-2.8341,-2.2866,-2.2866,-2.2866,-2.2692,-2.266,-2.442,-2.5604,-2.655,-2.8409,-2.9664,-3.0256,-2.9951,-2.9531,-2.9101,-2.8672,-2.8418,-2.8301,-2.8301,-2.8291,-2.8164,-2.7559,-2.7158,-2.6894,-2.6279,-2.582,-2.5703,-2.5684,-2.5684,-2.5684,-2.5684,-2.5684,-2.5684,-2.5684,-2.5684,-2.583,-2.7709,-2.9085,-2.9544,-3.1456,-3.2698,-3.3081,-3.3124,-3.3124,-3.3124,-3.3124,-3.3124,-3.3124,-3.3124,-3.3124,-3.3124,-3.3124,-3.3124,-3.3124,-3.3124,-3.3124,-3.3124,-3.3124,-3.3124,-3.3124,-3.3124,-3.3124,-3.3124,-3.3124,-3.3124,-3.3124,-3.3124,-3.3124,-3.3124,-3.3124,-3.3124,-3.3124,-3.3124,-3.3124,-3.3124,-3.3124,-3.3111,-3.3036,-3.2729,-3.2441,-3.2215,-3.1888,-3.1587,-3.1361,-3.1122,-3.0859,-3.0809,-3.0583,-3.0357,-3.0331,-3.0407,-3.0269,-3.0068,-3.0018,-3.003,-2.9779,-2.9641,-2.9842,-2.9917,-2.9679,-2.9591,-2.9591,-2.939,-2.9264,-2.9101,-2.8925,-2.8699,-2.8473,-2.8273,-2.8059,-2.7783,-2.7595,-2.7379,-2.7173,-2.7474,-2.8088,-2.2866,-2.2914,-2.2746,-2.2525,-2.2431,-2.3667,-2.5037,-2.6376,-2.7797,-2.9093,-2.9947,-2.9756,-2.9326,-2.8896,-2.8486,-2.8301,-2.8281,-2.8144,-2.8057,-2.7959,-2.7363,-2.6953,-2.6728,-2.6035,-2.5684,-2.5684,-2.5684,-2.5684,-2.5684,-2.5684,-2.5684,-2.5684,-2.5684,-2.5684,-2.5917,-2.8085,-2.9396,-2.9761,-3.1777,-3.3124,-3.3124,-3.3124,-3.3124,-3.3124,-3.3124,-3.3124,-3.3124,-3.3124,-3.3124,-3.3124,-3.3124,-3.3124,-3.3124,-3.3124,-3.3124,-3.3124,-3.3124,-3.3124,-3.3124,-3.3124,-3.3124,-3.3124,-3.3124,-3.3124,-3.3124,-3.3124,-3.3124,-3.3124,-3.3124,-3.3124,-3.3124,-3.3124,-3.3124,-3.3124,-3.3124,-3.298,-3.2792,-3.2441,-3.1989,-3.1687,-3.1298,-3.1047,-3.0758,-3.0583,-3.0319,-3.0256,-3.0018,-2.9779,-2.9779,-2.9817,-2.9779,-2.9779,-2.9842,-2.9754,-2.9515,-2.9503,-2.9566,-2.944,-2.9252,-2.9277,-2.9315,-2.8888,-2.8587,-2.8612,-2.8461,-2.8197,-2.7971,-2.7833,-2.7645,-2.7331,-2.703,-2.6901,-2.6829,-2.7343,-2.7893,-2.2921,-2.2806,-2.2539,-2.2251,-2.2141,-2.3264,-2.4641,-2.6147,-2.7391,-2.8775,-2.9803,-2.9658,-2.9248,-2.8848,-2.8447,-2.8301,-2.8223,-2.7943,-2.7685,-2.7529,-2.7129,-2.6738,-2.6318,-2.5869,-2.5693,-2.5684,-2.5684,-2.5684,-2.5684,-2.5684,-2.5684,-2.5684,-2.5684,-2.5684,-2.6149,-2.8168,-2.9396,-2.9715,-3.1833,-3.3081,-3.3124,-3.3124,-3.3124,-3.3124,-3.3124,-3.3124,-3.3124,-3.3124,-3.3124,-3.3124,-3.3124,-3.3124,-3.3124,-3.3124,-3.3124,-3.3124,-3.3124,-3.3124,-3.3124,-3.3124,-3.3124,-3.3124,-3.3124,-3.3124,-3.3124,-3.3124,-3.3124,-3.3124,-3.3124,-3.3124,-3.3124,-3.3124,-3.3124,-3.3124,-3.3124,-3.2855,-3.2328,-3.219,-3.1725,-3.0959,-3.0595,-3.0419,-3.0005,-2.9892,-2.9867,-2.9854,-2.9829,-2.9792,-2.9754,-2.9729,-2.9716,-2.9641,-2.9503,-2.9239,-2.8938,-2.8988,-2.9013,-2.885,-2.8674,-2.8662,-2.8775,-2.8386,-2.7921,-2.7908,-2.7908,-2.767,-2.7469,-2.7306,-2.713,-2.6876,-2.6663,-2.6524,-2.6905,-2.7537,-2.8168,-2.2732,-2.2532,-2.2445,-2.2131,-2.1762,-2.2144,-2.3725,-2.5838,-2.6047,-2.7602,-2.9247,-2.9277,-2.8887,-2.8476,-2.8359,-2.8301,-2.8184,-2.7842,-2.7513,-2.7148,-2.6748,-2.6318,-2.5977,-2.5762,-2.5684,-2.5684,-2.5684,-2.5684,-2.5684,-2.5684,-2.5684,-2.5684,-2.5684,-2.5684,-2.6052,-2.8168,-2.9315,-2.9727,-3.1833,-3.3124,-3.3124,-3.3124,-3.3124,-3.3124,-3.3124,-3.3124,-3.3124,-3.3124,-3.3124,-3.3124,-3.3124,-3.3124,-3.3124,-3.3124,-3.3124,-3.3124,-3.3124,-3.3124,-3.3124,-3.3124,-3.3124,-3.3124,-3.3124,-3.3124,-3.3124,-3.3124,-3.3124,-3.3124,-3.3124,-3.3124,-3.3124,-3.3124,-3.3124,-3.3124,-3.3086,-3.2805,-3.2303,-3.1825,-3.1323,-3.0708,-3.0294,-2.9993,-2.9854,-2.9779,-2.9779,-2.9779,-2.9779,-2.9779,-2.9741,-2.9428,-2.9302,-2.9038,-2.8837,-2.8574,-2.8386,-2.8436,-2.8398,-2.8235,-2.8047,-2.7858,-2.7934,-2.7833,-2.7344,-2.704,-2.7178,-2.704,-2.6889,-2.6725,-2.6524,-2.6512,-2.6624,-2.6748,-2.7451,-2.8117,-2.8907,-2.2692,-2.2405,-2.2285,-2.1977,-2.1621,-2.1423,-2.3175,-2.5509,-2.5588,-2.6941,-2.9008,-2.9111,-2.8691,-2.831,-2.8301,-2.8301,-2.8223,-2.7666,-2.7256,-2.6963,-2.6396,-2.5996,-2.5732,-2.5684,-2.5684,-2.5684,-2.5684,-2.5684,-2.5684,-2.5684,-2.5684,-2.5684,-2.5684,-2.5684,-2.5878,-2.8075,-2.9396,-2.9818,-3.1789,-3.3124,-3.3124,-3.3124,-3.3124,-3.3124,-3.3124,-3.3124,-3.3124,-3.3124,-3.3124,-3.3124,-3.3124,-3.3124,-3.3124,-3.3124,-3.3124,-3.3124,-3.3124,-3.3124,-3.3124,-3.3124,-3.3124,-3.3124,-3.3124,-3.3124,-3.3124,-3.3124,-3.3124,-3.3124,-3.3124,-3.3124,-3.3124,-3.3124,-3.3124,-3.3056,-3.2867,-3.2591,-3.2227,-3.1738,-3.1198,-3.067,-3.0156,-2.9779,-2.9779,-2.9779,-2.9779,-2.9779,-2.9779,-2.9779,-2.9729,-2.9252,-2.8838,-2.8675,-2.8373,-2.8084,-2.7959,-2.7984,-2.7745,-2.757,-2.7457,-2.7243,-2.7155,-2.718,-2.6964,-2.66,-2.6524,-2.6449,-2.6361,-2.6361,-2.6487,-2.6555,-2.6748,-2.7144,-2.7775,-2.8593,-2.9392,-2.2619,-2.2305,-2.2044,-2.1836,-2.1541,-2.1293,-2.2923,-2.5428,-2.5386,-2.6795,-2.8912,-2.9033,-2.8613,-2.8301,-2.8301,-2.8291,-2.8242,-2.7451,-2.7002,-2.6621,-2.6093,-2.5703,-2.5703,-2.5684,-2.5684,-2.5684,-2.5684,-2.5684,-2.5684,-2.5684,-2.5684,-2.5684,-2.5684,-2.5684,-2.6197,-2.8132,-2.9258,-2.9806,-3.1833,-3.3038,-3.3124,-3.3124,-3.3124,-3.3124,-3.3124,-3.3124,-3.3124,-3.3124,-3.3124,-3.3124,-3.3124,-3.3124,-3.3124,-3.3124,-3.3124,-3.3124,-3.3124,-3.3124,-3.3124,-3.3124,-3.3124,-3.3124,-3.3124,-3.3124,-3.3124,-3.3124,-3.3124,-3.3124,-3.3124,-3.3124,-3.3124,-3.3124,-3.3124,-3.3031,-3.2641,-3.2365,-3.2114,-3.1675,-3.111,-3.062,-3.0055,-2.9842,-2.9779,-2.9779,-2.9779,-2.9779,-2.9779,-2.9779,-2.9566,-2.9076,-2.88,-2.8624,-2.821,-2.767,-2.7595,-2.7544,-2.7228,-2.6939,-2.6876,-2.6713,-2.6499,-2.6474,-2.6449,-2.6298,-2.6021,-2.5946,-2.5996,-2.6097,-2.6367,-2.6555,-2.6668,-2.7229,-2.7854,-2.8844,-2.97,-2.2211,-2.1737,-2.167,-2.1476,-2.1223,-2.1192,-2.273,-2.5299,-2.5007,-2.6386,-2.8473,-2.8569,-2.8398,-2.8301,-2.8301,-2.8301,-2.8154,-2.7363,-2.6699,-2.5996,-2.583,-2.5684,-2.5684,-2.5684,-2.5684,-2.5684,-2.5684,-2.5684,-2.5684,-2.5684,-2.5684,-2.5684,-2.5684,-2.5684,-2.6052,-2.8075,-2.9396,-2.9806,-3.1833,-3.3038,-3.3124,-3.3124,-3.3124,-3.3124,-3.3124,-3.3124,-3.3124,-3.3124,-3.3124,-3.3124,-3.3124,-3.3124,-3.3124,-3.3124,-3.3124,-3.3124,-3.3124,-3.3124,-3.3124,-3.3124,-3.3124,-3.3124,-3.3124,-3.3124,-3.3124,-3.3124,-3.3124,-3.3124,-3.3124,-3.3124,-3.3124,-3.3124,-3.3124,-3.3074,-3.2855,-3.2591,-3.2177,-3.1399,-3.0696,-3.0181,-2.9917,-2.9779,-2.9779,-2.9779,-2.9779,-2.9779,-2.9779,-2.9779,-2.9428,-2.8963,-2.8687,-2.8487,-2.7858,-2.7306,-2.7128,-2.7102,-2.6914,-2.6663,-2.6562,-2.6298,-2.6084,-2.5787,-2.5799,-2.5636,-2.536,-2.5438,-2.5762,-2.6013,-2.6289,-2.6438,-2.6725,-2.74,-2.8146,-2.9111,-2.9711,-2.1951,-2.1628,-2.1621,-2.1383,-2.1116,-2.1025,-2.2208,-2.4061,-2.4462,-2.5756,-2.7622,-2.8089,-2.8301,-2.8301,-2.8281,-2.8203,-2.7832,-2.7119,-2.6377,-2.581,-2.5684,-2.5684,-2.5684,-2.5684,-2.5684,-2.5684,-2.5684,-2.5684,-2.5684,-2.5684,-2.5684,-2.5684,-2.5684,-2.5684,-2.6052,-2.8168,-2.9258,-2.9863,-3.1789,-3.3124,-3.3124,-3.3124,-3.3124,-3.3124,-3.3124,-3.3124,-3.3124,-3.3124,-3.3124,-3.3124,-3.3124,-3.3124,-3.3124,-3.3124,-3.3124,-3.3124,-3.3124,-3.3124,-3.3124,-3.3124,-3.3124,-3.3124,-3.3124,-3.3124,-3.3124,-3.3124,-3.3124,-3.3124,-3.3124,-3.3124,-3.3124,-3.3124,-3.3124,-3.3011,-3.2591,-3.2177,-3.18,-3.1298,-3.0771,-3.0281,-2.998,-2.9842,-2.9779,-2.9779,-2.9779,-2.9779,-2.9779,-2.9779,-2.9641,-2.9164,-2.8599,-2.8197,-2.7482,-2.6977,-2.6688,-2.66,-2.665,-2.6537,-2.6524,-2.6185,-2.5824,-2.5523,-2.5234,-2.5079,-2.498,-2.5486,-2.5792,-2.5999,-2.629,-2.6708,-2.7138,-2.7692,-2.8355,-2.9232,-2.9617,-2.175,-2.1547,-2.1501,-2.1269,-2.1015,-2.0735,-2.1699,-2.3343,-2.4011,-2.5436,-2.6912,-2.7943,-2.8301,-2.8301,-2.8301,-2.8027,-2.7461,-2.6826,-2.6172,-2.5742,-2.5684,-2.5684,-2.5684,-2.5684,-2.5684,-2.5684,-2.5684,-2.5684,-2.5684,-2.5684,-2.5684,-2.5684,-2.5684,-2.5684,-2.6235,-2.8028,-2.9396,-2.9727,-3.1833,-3.3124,-3.3124,-3.3124,-3.3124,-3.3124,-3.3124,-3.3124,-3.3124,-3.3124,-3.3124,-3.3124,-3.3124,-3.3124,-3.3124,-3.3124,-3.3124,-3.3124,-3.3124,-3.3124,-3.3124,-3.3124,-3.3124,-3.3124,-3.3124,-3.3124,-3.3124,-3.3124,-3.3124,-3.3124,-3.3124,-3.3061,-3.3011,-3.2867,-3.283,-3.2641,-3.1888,-3.1449,-3.1286,-3.126,-3.0922,-3.0457,-3.0018,-2.9804,-2.9779,-2.9779,-2.9779,-2.9779,-2.9779,-2.9716,-2.9578,-2.9202,-2.8549,-2.7896,-2.7228,-2.6851,-2.6562,-2.6487,-2.6487,-2.6521,-2.6521,-2.6156,-2.5761,-2.5599,-2.5345,-2.4817,-2.4836,-2.5242,-2.5572,-2.5781,-2.6192,-2.6876,-2.7357,-2.7745,-2.8494,-2.9374,-2.9404,-2.145,-2.1162,-2.0922,-2.0788,-2.0708,-2.0434,-2.1642,-2.3873,-2.4089,-2.5719,-2.7752,-2.8213,-2.8301,-2.8291,-2.8291,-2.7861,-2.7139,-2.6533,-2.6123,-2.5742,-2.5684,-2.5684,-2.5684,-2.5684,-2.5684,-2.5684,-2.5684,-2.5684,-2.5684,-2.5684,-2.5684,-2.5684,-2.5684,-2.5684,-2.6332,-2.8028,-2.9396,-2.9715,-3.1789,-3.3038,-3.3124,-3.3124,-3.3124,-3.3124,-3.3124,-3.3124,-3.3124,-3.3124,-3.3124,-3.3124,-3.3124,-3.3124,-3.3124,-3.3124,-3.3124,-3.3124,-3.3124,-3.3124,-3.3124,-3.3124,-3.3124,-3.3124,-3.3124,-3.3124,-3.3124,-3.3124,-3.3124,-3.3124,-3.3074,-3.2893,-3.2403,-3.2441,-3.2139,-3.1813,-3.1537,-3.1185,-3.0896,-3.0721,-3.057,-3.0118,-2.988,-2.9779,-2.9779,-2.9779,-2.9779,-2.9779,-2.9779,-2.9628,-2.9402,-2.8888,-2.821,-2.757,-2.6939,-2.67,-2.6487,-2.6487,-2.6487,-2.6555,-2.648,-2.6211,-2.5922,-2.5826,-2.5532,-2.4831,-2.4506,-2.4592,-2.4989,-2.5652,-2.6204,-2.6915,-2.7326,-2.7717,-2.8218,-2.8705,-2.8595,-2.1156,-2.0875,-2.0728,-2.0588,-2.0414,-2.0134,-2.068,-2.2072,-2.3431,-2.4722,-2.6154,-2.7511,-2.8301,-2.8242,-2.8037,-2.749,-2.6768,-2.625,-2.5947,-2.5703,-2.5684,-2.5684,-2.5684,-2.5684,-2.5684,-2.5684,-2.5684,-2.5684,-2.5684,-2.5684,-2.5684,-2.5684,-2.5684,-2.5684,-2.6235,-2.8121,-2.9223,-2.9954,-3.1745,-3.3124,-3.3124,-3.3124,-3.3124,-3.3124,-3.3124,-3.3124,-3.3124,-3.3124,-3.3124,-3.3124,-3.3124,-3.3124,-3.3124,-3.3124,-3.3124,-3.3124,-3.3124,-3.3124,-3.3124,-3.3124,-3.3124,-3.3124,-3.3124,-3.3124,-3.3124,-3.3124,-3.3124,-3.3111,-3.3099,-3.283,-3.2303,-3.2177,-3.1938,-3.1486,-3.116,-3.0871,-3.062,-3.0369,-3.008,-2.9829,-2.9804,-2.9779,-2.9779,-2.9779,-2.9779,-2.9779,-2.9779,-2.9541,-2.9239,-2.8725,-2.8097,-2.7469,-2.6939,-2.6625,-2.6487,-2.6487,-2.6487,-2.6555,-2.6548,-2.6278,-2.6197,-2.616,-2.5437,-2.4631,-2.4413,-2.48,-2.5716,-2.6785,-2.6888,-2.693,-2.7332,-2.7693,-2.7803,-2.7889,-2.7919,-2.0889,-2.0675,-2.0548,-2.0368,-2.0114,-2.0176,-2.0392,-2.1024,-2.3287,-2.4616,-2.5032,-2.702,-2.8144,-2.8018,-2.765,-2.7063,-2.6348,-2.5957,-2.5723,-2.5693,-2.5684,-2.5684,-2.5684,-2.5684,-2.5684,-2.5684,-2.5684,-2.5684,-2.5684,-2.5684,-2.5684,-2.5684,-2.5684,-2.5917,-2.661,-2.8355,-2.9177,-3.0406,-3.1833,-3.3038,-3.3124,-3.3124,-3.3124,-3.3124,-3.3124,-3.3124,-3.3124,-3.3124,-3.3124,-3.3124,-3.3124,-3.3124,-3.3124,-3.3124,-3.3124,-3.3124,-3.3124,-3.3124,-3.3124,-3.3124,-3.3124,-3.3124,-3.3124,-3.3124,-3.3124,-3.3111,-3.3074,-3.2998,-3.2867,-3.2516,-3.1888,-3.1851,-3.1562,-3.1097,-3.0645,-3.0419,-3.0306,-3.0131,-2.9942,-2.9792,-2.9779,-2.9779,-2.9779,-2.9779,-2.9779,-2.9779,-2.9779,-2.9302,-2.9001,-2.875,-2.8185,-2.7532,-2.7027,-2.665,-2.6487,-2.6487,-2.6487,-2.6521,-2.6607,-2.6532,-2.6535,-2.6561,-2.5845,-2.5485,-2.5755,-2.6286,-2.7178,-2.7439,-2.7158,-2.7111,-2.7433,-2.763,-2.772,-2.7809,-2.7884,-2.0708,-2.069,-2.0181,-1.988,-2.0096,-2.101,-2.2157,-2.3392,-2.4956,-2.6608,-2.7156,-2.7636,-2.7826,-2.7591,-2.6975,-2.6533,-2.626,-2.5957,-2.5684,-2.5684,-2.5684,-2.5684,-2.5684,-2.5684,-2.5684,-2.5684,-2.5684,-2.5684,-2.5684,-2.5684,-2.5684,-2.5684,-2.5781,-2.6207,-2.722,-2.8623,-2.9909,-3.1,-3.2382,-3.3124,-3.3124,-3.3124,-3.3124,-3.3124,-3.3124,-3.3124,-3.3124,-3.3124,-3.3124,-3.3124,-3.3124,-3.3124,-3.3124,-3.3124,-3.3124,-3.3124,-3.3124,-3.3124,-3.3124,-3.3124,-3.3124,-3.3124,-3.3124,-3.3124,-3.3111,-3.298,-3.2805,-3.2328,-3.2353,-3.1951,-3.1248,-3.0909,-3.0545,-3.0319,-3.0093,-2.998,-2.9905,-3.0018,-2.9817,-2.9779,-2.9779,-2.9779,-2.9779,-2.9779,-2.9779,-2.9779,-2.9679,-2.9214,-2.8737,-2.8461,-2.7959,-2.7266,-2.6952,-2.66,-2.6487,-2.6487,-2.6521,-2.6521,-2.69,-2.6979,-2.6935,-2.7083,-2.7435,-2.7226,-2.74,-2.7196,-2.7336,-2.736,-2.7174,-2.7265,-2.7509,-2.7585,-2.76,-2.7705,-2.7794,-2.1448,-2.1427,-2.1163,-2.146,-2.2074,-2.2652,-2.3207,-2.4044,-2.5426,-2.6308,-2.6767,-2.7482,-2.7422,-2.6943,-2.6504,-2.625,-2.6025,-2.5771,-2.5693,-2.5684,-2.5684,-2.5684,-2.5684,-2.5684,-2.5684,-2.5684,-2.5684,-2.5684,-2.5684,-2.5684,-2.5684,-2.5684,-2.5781,-2.6342,-2.7589,-2.8819,-2.9988,-3.1178,-3.2382,-3.3081,-3.3124,-3.3124,-3.3124,-3.3124,-3.3124,-3.3124,-3.3124,-3.3124,-3.3124,-3.3124,-3.3124,-3.3124,-3.3124,-3.3124,-3.3124,-3.3124,-3.3124,-3.3124,-3.3124,-3.3124,-3.3124,-3.3111,-3.3111,-3.3124,-3.3061,-3.2754,-3.2528,-3.2252,-3.2215,-3.1675,-3.0831,-3.0645,-3.0294,-3.0005,-2.9792,-2.9779,-2.9779,-2.9779,-2.9779,-2.9779,-2.9779,-2.9779,-2.9779,-2.9779,-2.9741,-2.9666,-2.9591,-2.9277,-2.8662,-2.8072,-2.7469,-2.6751,-2.66,-2.6512,-2.6487,-2.6487,-2.6624,-2.685,-2.792,-2.7885,-2.7541,-2.7624,-2.8136,-2.8441,-2.8436,-2.814,-2.7695,-2.7428,-2.7361,-2.7458,-2.7585,-2.7585,-2.7585,-2.76,-2.7675,-2.2532,-2.2406,-2.206,-2.2653,-2.383,-2.4211,-2.4318,-2.4399,-2.5883,-2.6275,-2.612,-2.6858,-2.6885,-2.6357,-2.6201,-2.6025,-2.5713,-2.5684,-2.5684,-2.5684,-2.5684,-2.5684,-2.5684,-2.5684,-2.5684,-2.5684,-2.5684,-2.5684,-2.5684,-2.5684,-2.5684,-2.5684,-2.5684,-2.6428,-2.7589,-2.8866,-3.0135,-3.1821,-3.2655,-3.3081,-3.3124,-3.3124,-3.3124,-3.3124,-3.3124,-3.3124,-3.3124,-3.3124,-3.3124,-3.3124,-3.3124,-3.3124,-3.3124,-3.3124,-3.3124,-3.3124,-3.3124,-3.3124,-3.3124,-3.3124,-3.3124,-3.3074,-3.2855,-3.2704,-3.2546,-3.2215,-3.1888,-3.1712,-3.1687,-3.1223,-3.0643,-3.0382,-3.0168,-2.993,-2.9779,-2.9779,-2.9779,-2.9779,-2.9779,-2.9779,-2.9779,-2.9779,-2.9779,-2.9779,-2.9716,-2.9591,-2.944,-2.9227,-2.8573,-2.7803,-2.7411,-2.6794,-2.6602,-2.6782,-2.7263,-2.7129,-2.704,-2.7142,-2.8233,-2.8648,-2.8161,-2.8467,-2.9106,-2.9305,-2.9204,-2.8751,-2.8078,-2.7813,-2.7585,-2.7585,-2.7585,-2.7585,-2.7585,-2.7585,-2.7585,-2.4055,-2.3575,-2.2176,-2.2556,-2.4019,-2.538,-2.5649,-2.5388,-2.6878,-2.713,-2.6663,-2.6619,-2.6269,-2.5869,-2.581,-2.5762,-2.5684,-2.5684,-2.5684,-2.5684,-2.5684,-2.5684,-2.5684,-2.5684,-2.5684,-2.5684,-2.5684,-2.5684,-2.5684,-2.5684,-2.5684,-2.5684,-2.5684,-2.6524,-2.7673,-2.9039,-3.0586,-3.2052,-3.2884,-3.3081,-3.3124,-3.3124,-3.3124,-3.3124,-3.3124,-3.3124,-3.3124,-3.3124,-3.3124,-3.3124,-3.3124,-3.3124,-3.3124,-3.3124,-3.3124,-3.3124,-3.3124,-3.3124,-3.3124,-3.3124,-3.3099,-3.2918,-3.2541,-3.2051,-3.1838,-3.1587,-3.1248,-3.0972,-3.1047,-3.0645,-3.0156,-2.9854,-2.9892,-2.9854,-2.9779,-2.9779,-2.9779,-2.9779,-2.9779,-2.9779,-2.9779,-2.9779,-2.9779,-2.9779,-2.9503,-2.9352,-2.8787,-2.8548,-2.8185,-2.7542,-2.7494,-2.7129,-2.6816,-2.7196,-2.8279,-2.8084,-2.7229,-2.7451,-2.8344,-2.8684,-2.8634,-2.9229,-3.0071,-2.9391,-2.9126,-2.882,-2.8485,-2.7991,-2.766,-2.7615,-2.7585,-2.7585,-2.7585,-2.7585,-2.7585,-2.3311,-2.2109,-2.1503,-2.3208,-2.6231,-2.652,-2.6541,-2.647,-2.6988,-2.7031,-2.6602,-2.6191,-2.5849,-2.5723,-2.5684,-2.5684,-2.5684,-2.5684,-2.5684,-2.5684,-2.5684,-2.5684,-2.5684,-2.5684,-2.5684,-2.5684,-2.5684,-2.5684,-2.5684,-2.5684,-2.5684,-2.5684,-2.5684,-2.6524,-2.7673,-2.9269,-3.0899,-3.1821,-3.2698,-3.3124,-3.3124,-3.3124,-3.3124,-3.3124,-3.3124,-3.3124,-3.3124,-3.3124,-3.3124,-3.3111,-3.3111,-3.3074,-3.3061,-3.3074,-3.3074,-3.3086,-3.3086,-3.3099,-3.3074,-3.3061,-3.2973,-3.2378,-3.18,-3.126,-3.1223,-3.1097,-3.0884,-3.0683,-3.0583,-3.0306,-2.9917,-2.9804,-2.9804,-2.9792,-2.9779,-2.9779,-2.9779,-2.9779,-2.9779,-2.9779,-2.9779,-2.9779,-2.9779,-2.9779,-2.9428,-2.9051,-2.8422,-2.7889,-2.757,-2.7473,-2.7494,-2.7604,-2.7317,-2.7196,-2.8182,-2.7802,-2.7217,-2.7913,-2.8616,-2.8728,-2.9035,-3.027,-3.0763,-2.9914,-2.9114,-2.8929,-2.8558,-2.7998,-2.772,-2.763,-2.7585,-2.7585,-2.7585,-2.7585,-2.7585,-2.233,-2.114,-2.098,-2.2958,-2.607,-2.6389,-2.6343,-2.6289,-2.6613,-2.6592,-2.6182,-2.581,-2.5684,-2.5684,-2.5684,-2.5684,-2.5684,-2.5684,-2.5684,-2.5684,-2.5684,-2.5684,-2.5684,-2.5684,-2.5684,-2.5684,-2.5684,-2.5684,-2.5684,-2.5684,-2.5684,-2.5684,-2.5732,-2.6294,-2.721,-2.935,-3.0944,-3.1865,-3.2513,-3.3124,-3.3124,-3.3124,-3.3124,-3.3124,-3.3124,-3.3124,-3.3124,-3.3124,-3.3124,-3.3048,-3.2918,-3.2805,-3.2805,-3.2817,-3.283,-3.2867,-3.2955,-3.2993,-3.2867,-3.2767,-3.2554,-3.1964,-3.1235,-3.0884,-3.0746,-3.0583,-3.0344,-3.0331,-3.0319,-3.0206,-2.9779,-2.9779,-2.9779,-2.9779,-2.9779,-2.9779,-2.9779,-2.9779,-2.9779,-2.9779,-2.9779,-2.9754,-2.9503,-2.9441,-2.8975,-2.846,-2.7744,-2.7372,-2.7325,-2.7348,-2.7642,-2.7802,-2.792,-2.7868,-2.7868,-2.8214,-2.8584,-2.8904,-2.9392,-2.9098,-2.9546,-3.0615,-3.0871,-2.9888,-2.9252,-2.905,-2.8607,-2.8034,-2.7764,-2.76,-2.7585,-2.7585,-2.7585,-2.7585,-2.7585,-2.1433,-2.1062,-2.0585,-2.1418,-2.3087,-2.449,-2.4827,-2.4771,-2.5858,-2.6182,-2.5791,-2.5684,-2.5684,-2.5684,-2.5684,-2.5684,-2.5684,-2.5684,-2.5684,-2.5684,-2.5684,-2.5684,-2.5684,-2.5684,-2.5684,-2.5684,-2.5684,-2.5684,-2.5684,-2.5684,-2.5684,-2.583,-2.5917,-2.6062,-2.61,-2.8262,-3.0643,-3.2612,-3.2884,-3.3081,-3.3124,-3.3124,-3.3124,-3.3124,-3.3124,-3.3124,-3.3124,-3.293,-3.2905,-3.2855,-3.2441,-3.2265,-3.224,-3.224,-3.224,-3.224,-3.2692,-3.2679,-3.2315,-3.224,-3.1888,-3.1436,-3.0771,-3.0432,-3.0018,-2.9854,-2.9917,-3.0005,-2.993,-2.9892,-2.9779,-2.9779,-2.9779,-2.9779,-2.9779,-2.9779,-2.9779,-2.9779,-2.9779,-2.9566,-2.9666,-2.9704,-2.9365,-2.9013,-2.852,-2.7915,-2.7112,-2.692,-2.7216,-2.7795,-2.8325,-2.8492,-2.8734,-2.8652,-2.878,-2.9504,-2.9931,-3.0177,-2.9913,-2.9319,-2.9175,-2.9701,-2.9746,-2.9431,-2.917,-2.8801,-2.8427,-2.8049,-2.7809,-2.7585,-2.7585,-2.7585,-2.7585,-2.7585,-2.7585,-2.0521,-1.9361,-1.9001,-1.9013,-1.9821,-2.2843,-2.4049,-2.4158,-2.5269,-2.582,-2.5713,-2.5684,-2.5684,-2.5684,-2.5684,-2.5684,-2.5684,-2.5684,-2.5684,-2.5684,-2.5684,-2.5684,-2.5684,-2.5684,-2.5684,-2.5684,-2.5684,-2.5684,-2.5684,-2.5684,-2.5684,-2.5781,-2.661,-2.6935,-2.7615,-2.9223,-3.1223,-3.1865,-3.2513,-3.3124,-3.3124,-3.3124,-3.3124,-3.3124,-3.3124,-3.3111,-3.3036,-3.2754,-3.2579,-3.2453,-3.1964,-3.1687,-3.1662,-3.1662,-3.1675,-3.1675,-3.1951,-3.1876,-3.1587,-3.1411,-3.1097,-3.0771,-3.0432,-3.0043,-2.9804,-2.9779,-2.9792,-2.9779,-2.9779,-2.9779,-2.9779,-2.9779,-2.9779,-2.9779,-2.9779,-2.9779,-2.9779,-2.9779,-2.9716,-2.9315,-2.9214,-2.9337,-2.914,-2.8592,-2.8098,-2.8173,-2.7618,-2.7795,-2.8105,-2.8994,-2.9642,-2.9659,-2.9721,-2.9566,-2.9628,-2.969,-2.9412,-2.917,-2.9087,-2.8868,-2.8886,-2.9003,-2.8769,-2.8508,-2.8527,-2.8472,-2.8139,-2.7824,-2.772,-2.7585,-2.7585,-2.7585,-2.7585,-2.7585,-2.7585,-2.0201,-1.9015,-1.8286,-1.813,-1.8684,-2.1151,-2.2726,-2.3791,-2.5069,-2.5684,-2.5684,-2.5684,-2.5684,-2.5684,-2.5684,-2.5684,-2.5684,-2.5684,-2.5684,-2.5684,-2.5684,-2.5684,-2.5684,-2.5684,-2.5684,-2.5684,-2.5684,-2.5684,-2.5684,-2.5684,-2.6004,-2.6658,-2.7579,-2.8448,-2.9223,-3.0451,-3.1456,-3.2052,-3.284,-3.3124,-3.3124,-3.3124,-3.3124,-3.3124,-3.3099,-3.298,-3.2729,-3.2428,-3.2102,-3.1851,-3.1486,-3.1135,-3.111,-3.1122,-3.1122,-3.1122,-3.1122,-3.1135,-3.1022,-3.0633,-3.0407,-3.0294,-2.9942,-2.9817,-2.9779,-2.9779,-2.9779,-2.9779,-2.9779,-2.9779,-2.9779,-2.9779,-2.9779,-2.9779,-2.9779,-2.9779,-2.9806,-2.9793,-2.977,-2.9339,-2.8894,-2.8985,-2.8744,-2.8261,-2.7659,-2.7957,-2.8212,-2.8568,-2.8894,-2.9566,-3.0147,-3.0072,-3.0103,-2.9844,-2.9473,-2.9178,-2.8809,-2.82,-2.8288,-2.8497,-2.8202,-2.8207,-2.7921,-2.773,-2.7925,-2.8019,-2.7794,-2.7585,-2.7585,-2.7585,-2.7585,-2.7585,-2.7585,-2.7585,-2.7585,-2.0412,-1.9938,-1.8663,-1.8787,-1.9606,-2.0187,-2.1608,-2.384,-2.5177,-2.5684,-2.5684,-2.5684,-2.5684,-2.5684,-2.5684,-2.5684,-2.5684,-2.5684,-2.5684,-2.5684,-2.5684,-2.5684,-2.5684,-2.5684,-2.5684,-2.5684,-2.5684,-2.5684,-2.5684,-2.5684,-2.6284,-2.7579,-2.8588,-2.9727,-3.0687,-3.1304,-3.1979,-3.2605,-3.2939,-3.3124,-3.3124,-3.3124,-3.3048,-3.2955,-3.2923,-3.2616,-3.2328,-3.1989,-3.1738,-3.1373,-3.0884,-3.0683,-3.0595,-3.0595,-3.0595,-3.0583,-3.0583,-3.0583,-3.052,-3.008,-2.9955,-2.9942,-2.9842,-2.9779,-2.9779,-2.9779,-2.9779,-2.9779,-2.9779,-2.9779,-2.9779,-2.9779,-2.9779,-2.9779,-2.9779,-2.978,-2.982,-2.9821,-2.986,-2.9518,-2.9012,-2.8681,-2.7991,-2.7474,-2.7498,-2.8133,-2.8517,-2.8844,-2.916,-2.9442,-2.9858,-2.9782,-2.9813,-2.9936,-2.9631,-2.9484,-2.9102,-2.8771,-2.8339,-2.8373,-2.796,-2.7646,-2.7643,-2.7643,-2.7618,-2.7585,-2.7585,-2.7585,-2.7585,-2.7585,-2.7585,-2.7585,-2.7585,-2.7585,-2.7585,-2.1059,-2.0151,-2.0485,-2.083,-2.1202,-2.2106,-2.3534,-2.5069,-2.5586,-2.5684,-2.5684,-2.5684,-2.5684,-2.5684,-2.5684,-2.5684,-2.5684,-2.5684,-2.5684,-2.5684,-2.5684,-2.5684,-2.5684,-2.5684,-2.5684,-2.5684,-2.5684,-2.5684,-2.5732,-2.5732,-2.6972,-2.8716,-2.9315,-3.0643,-3.1656,-3.2129,-3.248,-3.2789,-3.2993,-3.2998,-3.3023,-3.3023,-3.2805,-3.2579,-3.2466,-3.2152,-3.175,-3.1323,-3.106,-3.0821,-3.0306,-3.0043,-3.003,-3.003,-3.0018,-3.0018,-3.003,-3.003,-3.0005,-2.988,-2.9779,-2.9779,-2.9779,-2.9779,-2.9779,-2.9779,-2.9779,-2.9779,-2.9779,-2.9779,-2.9779,-2.9779,-2.9779,-2.9779,-2.9767,-2.9742,-2.9719,-2.9566,-2.9525,-2.8935,-2.8429,-2.8157,-2.7439,-2.7169,-2.7348,-2.8151,-2.8748,-2.9097,-2.9518,-2.9797,-3.0025,-2.9981,-2.9858,-3.0072,-3.0351,-3.0294,-2.9825,-2.9374,-2.8723,-2.8152,-2.7847,-2.7624,-2.759,-2.7585,-2.7585,-2.7585,-2.7585,-2.7585,-2.7585,-2.7585,-2.7585,-2.7585,-2.7585,-2.7585,-2.7585,-2.1474,-2.0776,-2.0779,-2.1456,-2.2517,-2.3375,-2.4452,-2.5528,-2.5684,-2.5684,-2.5684,-2.5684,-2.5684,-2.5684,-2.5684,-2.5684,-2.5684,-2.5684,-2.5684,-2.5684,-2.5684,-2.5684,-2.5684,-2.5684,-2.5684,-2.5684,-2.5684,-2.5684,-2.5781,-2.6476,-2.7626,-2.9166,-2.9727,-3.1279,-3.2333,-3.2476,-3.2356,-3.2591,-3.2679,-3.2616,-3.2591,-3.2616,-3.2365,-3.2014,-3.1888,-3.1574,-3.1148,-3.0696,-3.0557,-3.0357,-2.988,-2.9804,-2.9804,-2.9804,-2.9804,-2.9829,-2.9829,-2.9842,-2.9842,-2.9817,-2.9779,-2.9779,-2.9779,-2.9779,-2.9779,-2.9779,-2.9779,-2.9779,-2.9779,-2.9779,-2.9779,-2.9779,-2.9779,-2.9779,-2.9729,-2.9666,-2.9479,-2.9286,-2.8733,-2.8084,-2.7756,-2.7585,-2.7276,-2.7027,-2.7438,-2.8716,-2.9286,-2.9348,-2.9858,-3.0404,-3.0658,-3.0777,-3.0494,-3.0359,-3.0544,-3.0322,-2.9519,-2.8821,-2.8254,-2.7781,-2.758,-2.7585,-2.7585,-2.7585,-2.7585,-2.7585,-2.7585,-2.7585,-2.7585,-2.7585,-2.7585,-2.7585,-2.7585,-2.7585,-2.7585,-2.1811,-2.1608,-2.0538,-2.1811,-2.3692,-2.3939,-2.4609,-2.5635,-2.5684,-2.5684,-2.5684,-2.5684,-2.5684,-2.5684,-2.5684,-2.5684,-2.5684,-2.5684,-2.5684,-2.5684,-2.5684,-2.5684,-2.5684,-2.5684,-2.5684,-2.5684,-2.5684,-2.5732,-2.6062,-2.6754,-2.7945,-2.9407,-3.0485,-3.1765,-3.2753,-3.234,-3.2077,-3.2089,-3.2026,-3.1888,-3.1775,-3.1825,-3.1901,-3.1449,-3.1273,-3.1097,-3.0708,-3.0457,-3.0331,-2.998,-2.9804,-2.9779,-2.9779,-2.9779,-2.9779,-2.9779,-2.9779,-2.9779,-2.9779,-2.9779,-2.9779,-2.9779,-2.9779,-2.9779,-2.9779,-2.9779,-2.9779,-2.9779,-2.9779,-2.9779,-2.9779,-2.9779,-2.9779,-2.9691,-2.9591,-2.9644,-2.9602,-2.9329,-2.8861,-2.8219,-2.7709,-2.7537,-2.755,-2.7351,-2.7229,-2.8939,-2.9889,-2.9752,-2.9797,-3.0464,-3.0778,-3.0999,-3.0703,-3.0168,-2.9704,-2.9375,-2.8669,-2.804,-2.7719,-2.7432,-2.7233,-2.7357,-2.7585,-2.7585,-2.7585,-2.7585,-2.7585,-2.7585,-2.7585,-2.7585,-2.7585,-2.7585,-2.7585,-2.7585,-2.7585,-2.2617,-2.1904,-2.3543,-2.4667,-2.5177,-2.5226,-2.5372,-2.5684,-2.5684,-2.5684,-2.5684,-2.5684,-2.5684,-2.5684,-2.5684,-2.5684,-2.5684,-2.5684,-2.5684,-2.5684,-2.5684,-2.5684,-2.5684,-2.5684,-2.5684,-2.5684,-2.5684,-2.5781,-2.6197,-2.7125,-2.8272,-2.9453,-3.0721,-3.2008,-3.2907,-3.2227,-3.1675,-3.1675,-3.1248,-3.1235,-3.1311,-3.1323,-3.1348,-3.0972,-3.0746,-3.0532,-3.0206,-3.0005,-2.9942,-2.9804,-2.9792,-2.9779,-2.9779,-2.9779,-2.9779,-2.9779,-2.9779,-2.9779,-2.9779,-2.9779,-2.9779,-2.9779,-2.9779,-2.9779,-2.9779,-2.9779,-2.9779,-2.9779,-2.9779,-2.9779,-2.9779,-2.9779,-2.9767,-2.9616,-2.9465,-2.9604,-2.9693,-2.9285,-2.8899,-2.8379,-2.7782,-2.7683,-2.7683,-2.7716,-2.755,-2.8344,-2.9628,-2.995,-2.9473,-2.9721,-3.0002,-3.0258,-3.0406,-2.9977,-2.9425,-2.8913,-2.8426,-2.7864,-2.753,-2.7202,-2.6933,-2.7229,-2.7585,-2.7585,-2.7585,-2.7585,-2.7585,-2.7585,-2.7585,-2.7585,-2.7585,-2.7585,-2.7585,-2.7585,-2.7585,-2.1448,-2.1151,-2.3692,-2.5167,-2.5635,-2.5684,-2.5684,-2.5684,-2.5684,-2.5684,-2.5684,-2.5684,-2.5684,-2.5684,-2.5684,-2.5684,-2.5684,-2.5684,-2.5684,-2.5684,-2.5684,-2.5684,-2.5684,-2.5684,-2.5684,-2.5684,-2.5732,-2.5917,-2.6572,-2.7804,-2.9085,-3.0181,-3.1356,-3.2265,-3.288,-3.2026,-3.1361,-3.1361,-3.0658,-3.0507,-3.0783,-3.0834,-3.0746,-3.0419,-3.0181,-3.0018,-2.9955,-2.9779,-2.9792,-2.9792,-2.9779,-2.9779,-2.9779,-2.9779,-2.9779,-2.9779,-2.9779,-2.9779,-2.9779,-2.9779,-2.9779,-2.9779,-2.9779,-2.9779,-2.9779,-2.9779,-2.9779,-2.9779,-2.9779,-2.9779,-2.9779,-2.9779,-2.9779,-2.9691,-2.9541,-2.9543,-2.8904,-2.8145,-2.7794,-2.7356,-2.7142,-2.7317,-2.755,-2.8312,-2.8376,-2.9192,-3.0254,-3.0569,-3.0042,-2.9442,-2.9591,-2.9647,-2.9888,-3.0118,-2.9958,-2.9297,-2.8584,-2.8021,-2.7322,-2.7355,-2.728,-2.7433,-2.7585,-2.7585,-2.7585,-2.7585,-2.7585,-2.7585,-2.7585,-2.7585,-2.7585,-2.7585,-2.7585,-2.7585,-2.7585,-1.9782,-2.0231,-2.2667,-2.451,-2.5586,-2.5684,-2.5684,-2.5684,-2.5684,-2.5684,-2.5684,-2.5684,-2.5684,-2.5684,-2.5684,-2.5684,-2.5684,-2.5684,-2.5684,-2.5684,-2.5684,-2.5684,-2.5684,-2.5684,-2.5684,-2.5684,-2.5732,-2.6514,-2.74,-2.8588,-2.9772,-3.1178,-3.2122,-3.2943,-3.2629,-3.1964,-3.121,-3.0972,-3.047,-2.993,-3.0018,-3.0218,-3.0143,-2.9955,-2.9779,-2.9779,-2.9779,-2.9779,-2.9779,-2.9779,-2.9779,-2.9779,-2.9779,-2.9779,-2.9779,-2.9779,-2.9779,-2.9779,-2.9779,-2.9779,-2.9779,-2.9779,-2.9779,-2.9779,-2.9779,-2.9779,-2.9779,-2.9779,-2.9779,-2.9779,-2.9779,-2.9779,-2.9779,-2.9743,-2.9567,-2.9164,-2.8154,-2.7452,-2.7237,-2.6884,-2.6939,-2.7162,-2.7822,-2.862,-2.9254,-3.0133,-3.0733,-3.1014,-3.1014,-3.036,-3.0077,-2.9789,-2.9646,-2.9871,-2.9676,-2.9461,-2.8595,-2.7668,-2.7045,-2.7369,-2.7585,-2.7585,-2.7585,-2.7585,-2.7585,-2.7585,-2.7585,-2.7585,-2.7585,-2.7585,-2.7585,-2.7585,-2.7585,-2.7585,-2.7585,-2.0282,-2.1448,-2.3026,-2.4452,-2.5577,-2.5684,-2.5684,-2.5684,-2.5684,-2.5684,-2.5684,-2.5684,-2.5684,-2.5684,-2.5684,-2.5684,-2.5684,-2.5684,-2.5684,-2.5684,-2.5684,-2.5684,-2.5684,-2.5684,-2.5684,-2.5684,-2.582,-2.6524,-2.7814,-2.8958,-3.0067,-3.1308,-3.1926,-3.2323,-3.219,-3.1486,-3.0821,-3.062,-3.0306,-2.9779,-2.9779,-2.9905,-2.988,-2.9804,-2.9779,-2.9779,-2.9779,-2.9779,-2.9779,-2.9779,-2.9779,-2.9779,-2.9779,-2.9779,-2.9779,-2.9779,-2.9779,-2.9779,-2.9779,-2.9779,-2.9779,-2.9779,-2.9779,-2.9779,-2.9779,-2.9779,-2.9779,-2.9779,-2.9779,-2.9779,-2.9779,-2.9779,-2.9793,-2.9694,-2.9579,-2.8613,-2.7605,-2.7943,-2.8224,-2.7835,-2.7584,-2.7953,-2.8492,-2.8971,-2.9129,-2.9981,-3.0866,-3.1058,-3.051,-3.0421,-3.0451,-2.9955,-2.9475,-2.8164,-2.7399,-2.8796,-2.8375,-2.7398,-2.6837,-2.7222,-2.7499,-2.7585,-2.7585,-2.7575,-2.7585,-2.7585,-2.7585,-2.7585,-2.7585,-2.7585,-2.7585,-2.7585,-2.7585,-2.7585,-2.7585]}]]